<?xml version="1.0" encoding="utf-8"?>
<gpx xmlns:xsi="http://www.w3.org/2001/XMLSchema-instance" xmlns:xsd="http://www.w3.org/2001/XMLSchema" version="1.1" creator="Shapelink.com" xmlns="http://www.topografix.com/GPX/1/1" xmlns:gpxtpx="http://www.garmin.com/xmlschemas/TrackPointExtension/v1">
  <metadata>
    <name>Løping 4.83 km, 2014-07-03</name>
    <desc></desc>
    <author><name>Mikael Blom</name></author> 
    <time>2014-07-03T07:38:34Z</time>
  </metadata>
  <trk>
    <name>Løping 4.83 km, 2014-07-03</name>
    <trkseg>
      <trkpt lat="59.9536157" lon="17.7152438">
        <ele>22.7283</ele>
        <time>2014-07-03T07:38:34Z</time>
      </trkpt>
      <trkpt lat="59.9535396" lon="17.7152319">
        <ele>35.7061</ele>
        <time>2014-07-03T07:38:35Z</time>
      </trkpt>
      <trkpt lat="59.9534891" lon="17.7153952">
        <ele>42.4354</ele>
        <time>2014-07-03T07:38:36Z</time>
      </trkpt>
      <trkpt lat="59.9534737" lon="17.7155367">
        <ele>41.474</ele>
        <time>2014-07-03T07:38:37Z</time>
      </trkpt>
      <trkpt lat="59.9534831" lon="17.7156111">
        <ele>34.7449</ele>
        <time>2014-07-03T07:38:38Z</time>
      </trkpt>
      <trkpt lat="59.9534799" lon="17.7156673">
        <ele>30.4188</ele>
        <time>2014-07-03T07:38:39Z</time>
      </trkpt>
      <trkpt lat="59.9534799" lon="17.7155788">
        <ele>29.4575</ele>
        <time>2014-07-03T07:38:40Z</time>
      </trkpt>
      <trkpt lat="59.953448" lon="17.7156145">
        <ele>32.3416</ele>
        <time>2014-07-03T07:38:41Z</time>
      </trkpt>
      <trkpt lat="59.9534339" lon="17.7156295">
        <ele>31.8607</ele>
        <time>2014-07-03T07:38:42Z</time>
      </trkpt>
      <trkpt lat="59.9534111" lon="17.7156673">
        <ele>32.3416</ele>
        <time>2014-07-03T07:38:43Z</time>
      </trkpt>
      <trkpt lat="59.9533842" lon="17.7157292">
        <ele>32.3416</ele>
        <time>2014-07-03T07:38:44Z</time>
      </trkpt>
      <trkpt lat="59.9533643" lon="17.7157764">
        <ele>31.3801</ele>
        <time>2014-07-03T07:38:45Z</time>
      </trkpt>
      <trkpt lat="59.9533303" lon="17.7158033">
        <ele>33.3029</ele>
        <time>2014-07-03T07:38:46Z</time>
      </trkpt>
      <trkpt lat="59.9533002" lon="17.7158329">
        <ele>35.7061</ele>
        <time>2014-07-03T07:38:47Z</time>
      </trkpt>
      <trkpt lat="59.953284" lon="17.715867">
        <ele>34.7449</ele>
        <time>2014-07-03T07:38:48Z</time>
      </trkpt>
      <trkpt lat="59.953268" lon="17.7158854">
        <ele>33.7834</ele>
        <time>2014-07-03T07:38:49Z</time>
      </trkpt>
      <trkpt lat="59.9532381" lon="17.7158982">
        <ele>35.7061</ele>
        <time>2014-07-03T07:38:50Z</time>
      </trkpt>
      <trkpt lat="59.9532196" lon="17.7159194">
        <ele>34.7449</ele>
        <time>2014-07-03T07:38:51Z</time>
      </trkpt>
      <trkpt lat="59.9531978" lon="17.7159537">
        <ele>35.2255</ele>
        <time>2014-07-03T07:38:52Z</time>
      </trkpt>
      <trkpt lat="59.9531748" lon="17.7160092">
        <ele>35.2255</ele>
        <time>2014-07-03T07:38:53Z</time>
      </trkpt>
      <trkpt lat="59.9531453" lon="17.7160784">
        <ele>36.6675</ele>
        <time>2014-07-03T07:38:54Z</time>
      </trkpt>
      <trkpt lat="59.9531231" lon="17.7161621">
        <ele>37.1481</ele>
        <time>2014-07-03T07:38:55Z</time>
      </trkpt>
      <trkpt lat="59.9530973" lon="17.7162478">
        <ele>38.1094</ele>
        <time>2014-07-03T07:38:56Z</time>
      </trkpt>
      <trkpt lat="59.9530791" lon="17.7163479">
        <ele>38.5901</ele>
        <time>2014-07-03T07:38:57Z</time>
      </trkpt>
      <trkpt lat="59.9530664" lon="17.7164374">
        <ele>39.0707</ele>
        <time>2014-07-03T07:38:58Z</time>
      </trkpt>
      <trkpt lat="59.9530488" lon="17.716494">
        <ele>40.0321</ele>
        <time>2014-07-03T07:38:59Z</time>
      </trkpt>
      <trkpt lat="59.9530252" lon="17.7165669">
        <ele>40.9934</ele>
        <time>2014-07-03T07:39:00Z</time>
      </trkpt>
      <trkpt lat="59.9530076" lon="17.7166416">
        <ele>41.9547</ele>
        <time>2014-07-03T07:39:01Z</time>
      </trkpt>
      <trkpt lat="59.952994" lon="17.7166633">
        <ele>42.4354</ele>
        <time>2014-07-03T07:39:02Z</time>
      </trkpt>
      <trkpt lat="59.952981" lon="17.7167065">
        <ele>42.4354</ele>
        <time>2014-07-03T07:39:03Z</time>
      </trkpt>
      <trkpt lat="59.9529704" lon="17.7167664">
        <ele>42.916</ele>
        <time>2014-07-03T07:39:04Z</time>
      </trkpt>
      <trkpt lat="59.952962" lon="17.7168494">
        <ele>43.3966</ele>
        <time>2014-07-03T07:39:05Z</time>
      </trkpt>
      <trkpt lat="59.952951" lon="17.7169292">
        <ele>45.3192</ele>
        <time>2014-07-03T07:39:06Z</time>
      </trkpt>
      <trkpt lat="59.9529487" lon="17.716989">
        <ele>46.2806</ele>
        <time>2014-07-03T07:39:07Z</time>
      </trkpt>
      <trkpt lat="59.9529489" lon="17.7170193">
        <ele>45.7999</ele>
        <time>2014-07-03T07:39:08Z</time>
      </trkpt>
      <trkpt lat="59.9529463" lon="17.7170564">
        <ele>45.7999</ele>
        <time>2014-07-03T07:39:09Z</time>
      </trkpt>
      <trkpt lat="59.9529478" lon="17.7170851">
        <ele>45.7999</ele>
        <time>2014-07-03T07:39:10Z</time>
      </trkpt>
      <trkpt lat="59.952945" lon="17.7171579">
        <ele>45.7999</ele>
        <time>2014-07-03T07:39:11Z</time>
      </trkpt>
      <trkpt lat="59.9529538" lon="17.7171523">
        <ele>45.3192</ele>
        <time>2014-07-03T07:39:12Z</time>
      </trkpt>
      <trkpt lat="59.9529604" lon="17.7171659">
        <ele>44.8386</ele>
        <time>2014-07-03T07:39:13Z</time>
      </trkpt>
      <trkpt lat="59.9529563" lon="17.717197">
        <ele>45.7999</ele>
        <time>2014-07-03T07:39:14Z</time>
      </trkpt>
      <trkpt lat="59.9529511" lon="17.7172363">
        <ele>46.7612</ele>
        <time>2014-07-03T07:39:15Z</time>
      </trkpt>
      <trkpt lat="59.95295" lon="17.7172478">
        <ele>46.7612</ele>
        <time>2014-07-03T07:39:16Z</time>
      </trkpt>
      <trkpt lat="59.9529517" lon="17.7172478">
        <ele>46.7612</ele>
        <time>2014-07-03T07:39:17Z</time>
      </trkpt>
      <trkpt lat="59.9529453" lon="17.7173124">
        <ele>47.2418</ele>
        <time>2014-07-03T07:39:18Z</time>
      </trkpt>
      <trkpt lat="59.9529428" lon="17.7173358">
        <ele>47.2418</ele>
        <time>2014-07-03T07:39:19Z</time>
      </trkpt>
      <trkpt lat="59.9529345" lon="17.7174499">
        <ele>48.2034</ele>
        <time>2014-07-03T07:39:20Z</time>
      </trkpt>
      <trkpt lat="59.9529335" lon="17.7175119">
        <ele>47.2418</ele>
        <time>2014-07-03T07:39:21Z</time>
      </trkpt>
      <trkpt lat="59.9529243" lon="17.7175816">
        <ele>47.2418</ele>
        <time>2014-07-03T07:39:22Z</time>
      </trkpt>
      <trkpt lat="59.9529127" lon="17.7175943">
        <ele>46.7612</ele>
        <time>2014-07-03T07:39:23Z</time>
      </trkpt>
      <trkpt lat="59.952905" lon="17.7176445">
        <ele>45.7999</ele>
        <time>2014-07-03T07:39:24Z</time>
      </trkpt>
      <trkpt lat="59.9528984" lon="17.71764">
        <ele>45.3192</ele>
        <time>2014-07-03T07:39:25Z</time>
      </trkpt>
      <trkpt lat="59.9528863" lon="17.7176937">
        <ele>44.8386</ele>
        <time>2014-07-03T07:39:26Z</time>
      </trkpt>
      <trkpt lat="59.9528729" lon="17.7177702">
        <ele>43.8773</ele>
        <time>2014-07-03T07:39:27Z</time>
      </trkpt>
      <trkpt lat="59.9528624" lon="17.7177978">
        <ele>43.8773</ele>
        <time>2014-07-03T07:39:28Z</time>
      </trkpt>
      <trkpt lat="59.952846" lon="17.7178921">
        <ele>43.8773</ele>
        <time>2014-07-03T07:39:29Z</time>
      </trkpt>
      <trkpt lat="59.9528272" lon="17.7179591">
        <ele>43.8773</ele>
        <time>2014-07-03T07:39:30Z</time>
      </trkpt>
      <trkpt lat="59.9528168" lon="17.718009">
        <ele>43.3966</ele>
        <time>2014-07-03T07:39:31Z</time>
      </trkpt>
      <trkpt lat="59.952803" lon="17.7180578">
        <ele>42.916</ele>
        <time>2014-07-03T07:39:32Z</time>
      </trkpt>
      <trkpt lat="59.9527893" lon="17.7181397">
        <ele>43.3966</ele>
        <time>2014-07-03T07:39:33Z</time>
      </trkpt>
      <trkpt lat="59.9527702" lon="17.7181606">
        <ele>43.8773</ele>
        <time>2014-07-03T07:39:34Z</time>
      </trkpt>
      <trkpt lat="59.9527538" lon="17.7181676">
        <ele>43.3966</ele>
        <time>2014-07-03T07:39:35Z</time>
      </trkpt>
      <trkpt lat="59.9527445" lon="17.7181631">
        <ele>42.916</ele>
        <time>2014-07-03T07:39:36Z</time>
      </trkpt>
      <trkpt lat="59.9527381" lon="17.718216">
        <ele>42.916</ele>
        <time>2014-07-03T07:39:37Z</time>
      </trkpt>
      <trkpt lat="59.9527225" lon="17.7182581">
        <ele>42.916</ele>
        <time>2014-07-03T07:39:38Z</time>
      </trkpt>
      <trkpt lat="59.9527042" lon="17.7183068">
        <ele>42.916</ele>
        <time>2014-07-03T07:39:39Z</time>
      </trkpt>
      <trkpt lat="59.9526904" lon="17.71837">
        <ele>41.9547</ele>
        <time>2014-07-03T07:39:40Z</time>
      </trkpt>
      <trkpt lat="59.9526515" lon="17.7185055">
        <ele>42.4354</ele>
        <time>2014-07-03T07:39:42Z</time>
      </trkpt>
      <trkpt lat="59.9526435" lon="17.7185863">
        <ele>41.474</ele>
        <time>2014-07-03T07:39:43Z</time>
      </trkpt>
      <trkpt lat="59.9526258" lon="17.7186257">
        <ele>41.474</ele>
        <time>2014-07-03T07:39:44Z</time>
      </trkpt>
      <trkpt lat="59.9526061" lon="17.7186679">
        <ele>40.5128</ele>
        <time>2014-07-03T07:39:45Z</time>
      </trkpt>
      <trkpt lat="59.9525906" lon="17.7187402">
        <ele>40.5128</ele>
        <time>2014-07-03T07:39:46Z</time>
      </trkpt>
      <trkpt lat="59.9525811" lon="17.7188235">
        <ele>40.5128</ele>
        <time>2014-07-03T07:39:47Z</time>
      </trkpt>
      <trkpt lat="59.9525734" lon="17.718902">
        <ele>40.5128</ele>
        <time>2014-07-03T07:39:48Z</time>
      </trkpt>
      <trkpt lat="59.9525676" lon="17.7189463">
        <ele>40.5128</ele>
        <time>2014-07-03T07:39:49Z</time>
      </trkpt>
      <trkpt lat="59.9525475" lon="17.7190363">
        <ele>41.474</ele>
        <time>2014-07-03T07:39:50Z</time>
      </trkpt>
      <trkpt lat="59.9525339" lon="17.7190975">
        <ele>42.4354</ele>
        <time>2014-07-03T07:39:51Z</time>
      </trkpt>
      <trkpt lat="59.9525195" lon="17.7191653">
        <ele>42.4354</ele>
        <time>2014-07-03T07:39:52Z</time>
      </trkpt>
      <trkpt lat="59.9525055" lon="17.7192327">
        <ele>42.916</ele>
        <time>2014-07-03T07:39:53Z</time>
      </trkpt>
      <trkpt lat="59.9524891" lon="17.7192922">
        <ele>42.916</ele>
        <time>2014-07-03T07:39:54Z</time>
      </trkpt>
      <trkpt lat="59.9524742" lon="17.7193214">
        <ele>43.8773</ele>
        <time>2014-07-03T07:39:55Z</time>
      </trkpt>
      <trkpt lat="59.9524669" lon="17.7193389">
        <ele>43.3966</ele>
        <time>2014-07-03T07:39:56Z</time>
      </trkpt>
      <trkpt lat="59.9524601" lon="17.7193975">
        <ele>43.3966</ele>
        <time>2014-07-03T07:39:57Z</time>
      </trkpt>
      <trkpt lat="59.9524581" lon="17.7194186">
        <ele>43.3966</ele>
        <time>2014-07-03T07:39:58Z</time>
      </trkpt>
      <trkpt lat="59.9524595" lon="17.7194626">
        <ele>43.3966</ele>
        <time>2014-07-03T07:39:59Z</time>
      </trkpt>
      <trkpt lat="59.9524552" lon="17.7195001">
        <ele>43.8773</ele>
        <time>2014-07-03T07:40:00Z</time>
      </trkpt>
      <trkpt lat="59.9524472" lon="17.7195333">
        <ele>43.8773</ele>
        <time>2014-07-03T07:40:01Z</time>
      </trkpt>
      <trkpt lat="59.9524388" lon="17.7195455">
        <ele>43.3966</ele>
        <time>2014-07-03T07:40:02Z</time>
      </trkpt>
      <trkpt lat="59.9524252" lon="17.7195403">
        <ele>43.3966</ele>
        <time>2014-07-03T07:40:03Z</time>
      </trkpt>
      <trkpt lat="59.9524103" lon="17.7195959">
        <ele>43.3966</ele>
        <time>2014-07-03T07:40:04Z</time>
      </trkpt>
      <trkpt lat="59.9524014" lon="17.7196467">
        <ele>43.3966</ele>
        <time>2014-07-03T07:40:05Z</time>
      </trkpt>
      <trkpt lat="59.9523972" lon="17.7196978">
        <ele>42.4354</ele>
        <time>2014-07-03T07:40:06Z</time>
      </trkpt>
      <trkpt lat="59.9523923" lon="17.7197521">
        <ele>42.916</ele>
        <time>2014-07-03T07:40:07Z</time>
      </trkpt>
      <trkpt lat="59.9523829" lon="17.7197791">
        <ele>43.8773</ele>
        <time>2014-07-03T07:40:08Z</time>
      </trkpt>
      <trkpt lat="59.9523772" lon="17.7197798">
        <ele>44.358</ele>
        <time>2014-07-03T07:40:09Z</time>
      </trkpt>
      <trkpt lat="59.9523896" lon="17.7197874">
        <ele>43.8773</ele>
        <time>2014-07-03T07:40:10Z</time>
      </trkpt>
      <trkpt lat="59.9523962" lon="17.7198199">
        <ele>43.8773</ele>
        <time>2014-07-03T07:40:11Z</time>
      </trkpt>
      <trkpt lat="59.9524013" lon="17.7198407">
        <ele>43.8773</ele>
        <time>2014-07-03T07:40:12Z</time>
      </trkpt>
      <trkpt lat="59.9524065" lon="17.7198616">
        <ele>43.8773</ele>
        <time>2014-07-03T07:40:13Z</time>
      </trkpt>
      <trkpt lat="59.9526243" lon="17.72419">
        <ele>52.0486</ele>
        <time>2014-07-03T07:41:37Z</time>
      </trkpt>
      <trkpt lat="59.9526042" lon="17.7243371">
        <ele>56.3745</ele>
        <time>2014-07-03T07:41:38Z</time>
      </trkpt>
      <trkpt lat="59.9525938" lon="17.7244497">
        <ele>59.7391</ele>
        <time>2014-07-03T07:41:39Z</time>
      </trkpt>
      <trkpt lat="59.952591" lon="17.7245214">
        <ele>61.6617</ele>
        <time>2014-07-03T07:41:40Z</time>
      </trkpt>
      <trkpt lat="59.9525988" lon="17.7245412">
        <ele>61.181</ele>
        <time>2014-07-03T07:41:41Z</time>
      </trkpt>
      <trkpt lat="59.9526041" lon="17.7245453">
        <ele>60.2197</ele>
        <time>2014-07-03T07:41:42Z</time>
      </trkpt>
      <trkpt lat="59.9526102" lon="17.7245776">
        <ele>59.7391</ele>
        <time>2014-07-03T07:41:43Z</time>
      </trkpt>
      <trkpt lat="59.9526189" lon="17.7246354">
        <ele>59.2584</ele>
        <time>2014-07-03T07:41:44Z</time>
      </trkpt>
      <trkpt lat="59.9526429" lon="17.7246262">
        <ele>56.8551</ele>
        <time>2014-07-03T07:41:45Z</time>
      </trkpt>
      <trkpt lat="59.9526506" lon="17.7246594">
        <ele>54.9324</ele>
        <time>2014-07-03T07:41:46Z</time>
      </trkpt>
      <trkpt lat="59.9526517" lon="17.7246742">
        <ele>53.9712</ele>
        <time>2014-07-03T07:41:47Z</time>
      </trkpt>
      <trkpt lat="59.9526502" lon="17.7247025">
        <ele>53.0098</ele>
        <time>2014-07-03T07:41:48Z</time>
      </trkpt>
      <trkpt lat="59.9526433" lon="17.7247338">
        <ele>52.5292</ele>
        <time>2014-07-03T07:41:49Z</time>
      </trkpt>
      <trkpt lat="59.9526352" lon="17.7247448">
        <ele>51.5679</ele>
        <time>2014-07-03T07:41:50Z</time>
      </trkpt>
      <trkpt lat="59.9526324" lon="17.7247194">
        <ele>50.126</ele>
        <time>2014-07-03T07:41:51Z</time>
      </trkpt>
      <trkpt lat="59.9526269" lon="17.7247069">
        <ele>48.684</ele>
        <time>2014-07-03T07:41:52Z</time>
      </trkpt>
      <trkpt lat="59.9526173" lon="17.7247266">
        <ele>47.7225</ele>
        <time>2014-07-03T07:41:53Z</time>
      </trkpt>
      <trkpt lat="59.9526062" lon="17.7247551">
        <ele>47.2418</ele>
        <time>2014-07-03T07:41:54Z</time>
      </trkpt>
      <trkpt lat="59.9526004" lon="17.724749">
        <ele>46.7612</ele>
        <time>2014-07-03T07:41:55Z</time>
      </trkpt>
      <trkpt lat="59.952589" lon="17.7247701">
        <ele>46.2806</ele>
        <time>2014-07-03T07:41:56Z</time>
      </trkpt>
      <trkpt lat="59.9525786" lon="17.7247749">
        <ele>45.3192</ele>
        <time>2014-07-03T07:41:57Z</time>
      </trkpt>
      <trkpt lat="59.9525671" lon="17.7247794">
        <ele>44.8386</ele>
        <time>2014-07-03T07:41:58Z</time>
      </trkpt>
      <trkpt lat="59.952556" lon="17.724783">
        <ele>44.358</ele>
        <time>2014-07-03T07:41:59Z</time>
      </trkpt>
      <trkpt lat="59.9525435" lon="17.7247993">
        <ele>43.8773</ele>
        <time>2014-07-03T07:42:00Z</time>
      </trkpt>
      <trkpt lat="59.952529" lon="17.7248359">
        <ele>42.916</ele>
        <time>2014-07-03T07:42:01Z</time>
      </trkpt>
      <trkpt lat="59.9525113" lon="17.7248594">
        <ele>42.4354</ele>
        <time>2014-07-03T07:42:02Z</time>
      </trkpt>
      <trkpt lat="59.952488" lon="17.7248584">
        <ele>42.916</ele>
        <time>2014-07-03T07:42:03Z</time>
      </trkpt>
      <trkpt lat="59.9524627" lon="17.7248921">
        <ele>42.916</ele>
        <time>2014-07-03T07:42:04Z</time>
      </trkpt>
      <trkpt lat="59.9524379" lon="17.7249425">
        <ele>42.916</ele>
        <time>2014-07-03T07:42:05Z</time>
      </trkpt>
      <trkpt lat="59.9524175" lon="17.7249805">
        <ele>42.4354</ele>
        <time>2014-07-03T07:42:06Z</time>
      </trkpt>
      <trkpt lat="59.9523993" lon="17.7249893">
        <ele>42.4354</ele>
        <time>2014-07-03T07:42:07Z</time>
      </trkpt>
      <trkpt lat="59.9523802" lon="17.7249986">
        <ele>42.4354</ele>
        <time>2014-07-03T07:42:08Z</time>
      </trkpt>
      <trkpt lat="59.9523668" lon="17.7250133">
        <ele>41.9547</ele>
        <time>2014-07-03T07:42:09Z</time>
      </trkpt>
      <trkpt lat="59.9523588" lon="17.7250411">
        <ele>41.474</ele>
        <time>2014-07-03T07:42:10Z</time>
      </trkpt>
      <trkpt lat="59.952344" lon="17.7250966">
        <ele>40.9934</ele>
        <time>2014-07-03T07:42:11Z</time>
      </trkpt>
      <trkpt lat="59.9523281" lon="17.7251095">
        <ele>40.5128</ele>
        <time>2014-07-03T07:42:12Z</time>
      </trkpt>
      <trkpt lat="59.9523135" lon="17.7251448">
        <ele>40.5128</ele>
        <time>2014-07-03T07:42:13Z</time>
      </trkpt>
      <trkpt lat="59.9522953" lon="17.7251808">
        <ele>40.0321</ele>
        <time>2014-07-03T07:42:14Z</time>
      </trkpt>
      <trkpt lat="59.9522784" lon="17.7252163">
        <ele>39.5513</ele>
        <time>2014-07-03T07:42:15Z</time>
      </trkpt>
      <trkpt lat="59.952264" lon="17.7252352">
        <ele>39.5513</ele>
        <time>2014-07-03T07:42:16Z</time>
      </trkpt>
      <trkpt lat="59.9522487" lon="17.7252411">
        <ele>39.5513</ele>
        <time>2014-07-03T07:42:17Z</time>
      </trkpt>
      <trkpt lat="59.9522299" lon="17.7252903">
        <ele>39.0707</ele>
        <time>2014-07-03T07:42:18Z</time>
      </trkpt>
      <trkpt lat="59.9522105" lon="17.7253559">
        <ele>39.5513</ele>
        <time>2014-07-03T07:42:19Z</time>
      </trkpt>
      <trkpt lat="59.9521937" lon="17.725409">
        <ele>39.5513</ele>
        <time>2014-07-03T07:42:20Z</time>
      </trkpt>
      <trkpt lat="59.9521768" lon="17.7254592">
        <ele>39.0707</ele>
        <time>2014-07-03T07:42:21Z</time>
      </trkpt>
      <trkpt lat="59.9521599" lon="17.7254829">
        <ele>38.5901</ele>
        <time>2014-07-03T07:42:22Z</time>
      </trkpt>
      <trkpt lat="59.9521402" lon="17.7255348">
        <ele>38.1094</ele>
        <time>2014-07-03T07:42:23Z</time>
      </trkpt>
      <trkpt lat="59.9521221" lon="17.7255602">
        <ele>38.5901</ele>
        <time>2014-07-03T07:42:24Z</time>
      </trkpt>
      <trkpt lat="59.952105" lon="17.7256093">
        <ele>38.1094</ele>
        <time>2014-07-03T07:42:25Z</time>
      </trkpt>
      <trkpt lat="59.9520854" lon="17.7256451">
        <ele>38.5901</ele>
        <time>2014-07-03T07:42:26Z</time>
      </trkpt>
      <trkpt lat="59.9520688" lon="17.7256729">
        <ele>39.0707</ele>
        <time>2014-07-03T07:42:27Z</time>
      </trkpt>
      <trkpt lat="59.952052" lon="17.7257202">
        <ele>38.5901</ele>
        <time>2014-07-03T07:42:28Z</time>
      </trkpt>
      <trkpt lat="59.9520357" lon="17.7257546">
        <ele>38.5901</ele>
        <time>2014-07-03T07:42:29Z</time>
      </trkpt>
      <trkpt lat="59.9520216" lon="17.7257782">
        <ele>38.5901</ele>
        <time>2014-07-03T07:42:30Z</time>
      </trkpt>
      <trkpt lat="59.9520069" lon="17.7257773">
        <ele>38.5901</ele>
        <time>2014-07-03T07:42:31Z</time>
      </trkpt>
      <trkpt lat="59.9519866" lon="17.7258169">
        <ele>38.5901</ele>
        <time>2014-07-03T07:42:32Z</time>
      </trkpt>
      <trkpt lat="59.9519653" lon="17.725862">
        <ele>39.0707</ele>
        <time>2014-07-03T07:42:33Z</time>
      </trkpt>
      <trkpt lat="59.9519468" lon="17.725884">
        <ele>38.5901</ele>
        <time>2014-07-03T07:42:34Z</time>
      </trkpt>
      <trkpt lat="59.9519264" lon="17.7259291">
        <ele>38.5901</ele>
        <time>2014-07-03T07:42:35Z</time>
      </trkpt>
      <trkpt lat="59.9519099" lon="17.7259606">
        <ele>38.5901</ele>
        <time>2014-07-03T07:42:36Z</time>
      </trkpt>
      <trkpt lat="59.9518968" lon="17.7259865">
        <ele>38.1094</ele>
        <time>2014-07-03T07:42:37Z</time>
      </trkpt>
      <trkpt lat="59.951881" lon="17.7260352">
        <ele>37.1481</ele>
        <time>2014-07-03T07:42:38Z</time>
      </trkpt>
      <trkpt lat="59.9518597" lon="17.7260674">
        <ele>36.6675</ele>
        <time>2014-07-03T07:42:39Z</time>
      </trkpt>
      <trkpt lat="59.9518359" lon="17.7260958">
        <ele>37.1481</ele>
        <time>2014-07-03T07:42:40Z</time>
      </trkpt>
      <trkpt lat="59.9518161" lon="17.726133">
        <ele>36.1868</ele>
        <time>2014-07-03T07:42:41Z</time>
      </trkpt>
      <trkpt lat="59.9517928" lon="17.7261737">
        <ele>36.1868</ele>
        <time>2014-07-03T07:42:42Z</time>
      </trkpt>
      <trkpt lat="59.9517674" lon="17.7262082">
        <ele>36.1868</ele>
        <time>2014-07-03T07:42:43Z</time>
      </trkpt>
      <trkpt lat="59.951744" lon="17.7262331">
        <ele>36.6675</ele>
        <time>2014-07-03T07:42:44Z</time>
      </trkpt>
      <trkpt lat="59.9517202" lon="17.7262643">
        <ele>36.6675</ele>
        <time>2014-07-03T07:42:45Z</time>
      </trkpt>
      <trkpt lat="59.9517013" lon="17.7262933">
        <ele>36.6675</ele>
        <time>2014-07-03T07:42:46Z</time>
      </trkpt>
      <trkpt lat="59.9516887" lon="17.7263082">
        <ele>36.1868</ele>
        <time>2014-07-03T07:42:47Z</time>
      </trkpt>
      <trkpt lat="59.9516748" lon="17.7263383">
        <ele>36.1868</ele>
        <time>2014-07-03T07:42:48Z</time>
      </trkpt>
      <trkpt lat="59.9516581" lon="17.7263634">
        <ele>35.7061</ele>
        <time>2014-07-03T07:42:49Z</time>
      </trkpt>
      <trkpt lat="59.9516426" lon="17.7263668">
        <ele>36.1868</ele>
        <time>2014-07-03T07:42:50Z</time>
      </trkpt>
      <trkpt lat="59.9516312" lon="17.7263838">
        <ele>36.1868</ele>
        <time>2014-07-03T07:42:51Z</time>
      </trkpt>
      <trkpt lat="59.9516193" lon="17.7264258">
        <ele>36.1868</ele>
        <time>2014-07-03T07:42:52Z</time>
      </trkpt>
      <trkpt lat="59.9516038" lon="17.7264858">
        <ele>35.7061</ele>
        <time>2014-07-03T07:42:53Z</time>
      </trkpt>
      <trkpt lat="59.9515898" lon="17.72652">
        <ele>36.1868</ele>
        <time>2014-07-03T07:42:54Z</time>
      </trkpt>
      <trkpt lat="59.9515798" lon="17.7265485">
        <ele>36.1868</ele>
        <time>2014-07-03T07:42:55Z</time>
      </trkpt>
      <trkpt lat="59.9515678" lon="17.7265676">
        <ele>36.6675</ele>
        <time>2014-07-03T07:42:56Z</time>
      </trkpt>
      <trkpt lat="59.9515587" lon="17.7266186">
        <ele>36.1868</ele>
        <time>2014-07-03T07:42:57Z</time>
      </trkpt>
      <trkpt lat="59.9515479" lon="17.7266247">
        <ele>36.1868</ele>
        <time>2014-07-03T07:42:58Z</time>
      </trkpt>
      <trkpt lat="59.9515348" lon="17.7266143">
        <ele>36.6675</ele>
        <time>2014-07-03T07:42:59Z</time>
      </trkpt>
      <trkpt lat="59.9515212" lon="17.7266294">
        <ele>36.6675</ele>
        <time>2014-07-03T07:43:00Z</time>
      </trkpt>
      <trkpt lat="59.9515054" lon="17.7266657">
        <ele>36.6675</ele>
        <time>2014-07-03T07:43:01Z</time>
      </trkpt>
      <trkpt lat="59.9514935" lon="17.7267199">
        <ele>37.1481</ele>
        <time>2014-07-03T07:43:02Z</time>
      </trkpt>
      <trkpt lat="59.9514897" lon="17.7267843">
        <ele>37.6287</ele>
        <time>2014-07-03T07:43:03Z</time>
      </trkpt>
      <trkpt lat="59.9514919" lon="17.7268739">
        <ele>37.6287</ele>
        <time>2014-07-03T07:43:04Z</time>
      </trkpt>
      <trkpt lat="59.9514944" lon="17.7269735">
        <ele>38.1094</ele>
        <time>2014-07-03T07:43:05Z</time>
      </trkpt>
      <trkpt lat="59.9514953" lon="17.7270113">
        <ele>39.0707</ele>
        <time>2014-07-03T07:43:06Z</time>
      </trkpt>
      <trkpt lat="59.9514977" lon="17.7270894">
        <ele>39.5513</ele>
        <time>2014-07-03T07:43:07Z</time>
      </trkpt>
      <trkpt lat="59.951498" lon="17.7271296">
        <ele>40.5128</ele>
        <time>2014-07-03T07:43:08Z</time>
      </trkpt>
      <trkpt lat="59.9515039" lon="17.7271774">
        <ele>41.9547</ele>
        <time>2014-07-03T07:43:09Z</time>
      </trkpt>
      <trkpt lat="59.95152" lon="17.7272006">
        <ele>42.4354</ele>
        <time>2014-07-03T07:43:10Z</time>
      </trkpt>
      <trkpt lat="59.9515257" lon="17.7272676">
        <ele>42.916</ele>
        <time>2014-07-03T07:43:11Z</time>
      </trkpt>
      <trkpt lat="59.9515375" lon="17.7273811">
        <ele>44.358</ele>
        <time>2014-07-03T07:43:12Z</time>
      </trkpt>
      <trkpt lat="59.9515494" lon="17.7274568">
        <ele>44.8386</ele>
        <time>2014-07-03T07:43:13Z</time>
      </trkpt>
      <trkpt lat="59.951559" lon="17.7275515">
        <ele>45.3192</ele>
        <time>2014-07-03T07:43:14Z</time>
      </trkpt>
      <trkpt lat="59.9515602" lon="17.7276477">
        <ele>45.7999</ele>
        <time>2014-07-03T07:43:15Z</time>
      </trkpt>
      <trkpt lat="59.9515515" lon="17.7277033">
        <ele>46.7612</ele>
        <time>2014-07-03T07:43:16Z</time>
      </trkpt>
      <trkpt lat="59.9515292" lon="17.7278276">
        <ele>48.684</ele>
        <time>2014-07-03T07:43:17Z</time>
      </trkpt>
      <trkpt lat="59.9515226" lon="17.7279452">
        <ele>49.6453</ele>
        <time>2014-07-03T07:43:18Z</time>
      </trkpt>
      <trkpt lat="59.9515137" lon="17.7280358">
        <ele>50.126</ele>
        <time>2014-07-03T07:43:19Z</time>
      </trkpt>
      <trkpt lat="59.951511" lon="17.7281254">
        <ele>51.0872</ele>
        <time>2014-07-03T07:43:20Z</time>
      </trkpt>
      <trkpt lat="59.9515055" lon="17.7282">
        <ele>52.0486</ele>
        <time>2014-07-03T07:43:21Z</time>
      </trkpt>
      <trkpt lat="59.9515043" lon="17.7282299">
        <ele>52.5292</ele>
        <time>2014-07-03T07:43:22Z</time>
      </trkpt>
      <trkpt lat="59.9515063" lon="17.7283021">
        <ele>53.4905</ele>
        <time>2014-07-03T07:43:23Z</time>
      </trkpt>
      <trkpt lat="59.95151" lon="17.7283658">
        <ele>53.9712</ele>
        <time>2014-07-03T07:43:24Z</time>
      </trkpt>
      <trkpt lat="59.9515114" lon="17.7284777">
        <ele>53.9712</ele>
        <time>2014-07-03T07:43:25Z</time>
      </trkpt>
      <trkpt lat="59.9515114" lon="17.7286078">
        <ele>54.4518</ele>
        <time>2014-07-03T07:43:26Z</time>
      </trkpt>
      <trkpt lat="59.9515255" lon="17.7286931">
        <ele>54.4518</ele>
        <time>2014-07-03T07:43:27Z</time>
      </trkpt>
      <trkpt lat="59.951542" lon="17.72876">
        <ele>53.9712</ele>
        <time>2014-07-03T07:43:28Z</time>
      </trkpt>
      <trkpt lat="59.9515648" lon="17.7288169">
        <ele>53.0098</ele>
        <time>2014-07-03T07:43:29Z</time>
      </trkpt>
      <trkpt lat="59.9515866" lon="17.7288416">
        <ele>53.4905</ele>
        <time>2014-07-03T07:43:30Z</time>
      </trkpt>
      <trkpt lat="59.9516085" lon="17.7288061">
        <ele>52.5292</ele>
        <time>2014-07-03T07:43:31Z</time>
      </trkpt>
      <trkpt lat="59.9516287" lon="17.728778">
        <ele>51.0872</ele>
        <time>2014-07-03T07:43:32Z</time>
      </trkpt>
      <trkpt lat="59.9516462" lon="17.728781">
        <ele>48.684</ele>
        <time>2014-07-03T07:43:33Z</time>
      </trkpt>
      <trkpt lat="59.9516676" lon="17.7287345">
        <ele>47.2418</ele>
        <time>2014-07-03T07:43:34Z</time>
      </trkpt>
      <trkpt lat="59.9516731" lon="17.7287609">
        <ele>46.7612</ele>
        <time>2014-07-03T07:43:35Z</time>
      </trkpt>
      <trkpt lat="59.951687" lon="17.7286879">
        <ele>46.2806</ele>
        <time>2014-07-03T07:43:36Z</time>
      </trkpt>
      <trkpt lat="59.9517224" lon="17.7285629">
        <ele>45.7999</ele>
        <time>2014-07-03T07:43:37Z</time>
      </trkpt>
      <trkpt lat="59.9517536" lon="17.7284902">
        <ele>44.8386</ele>
        <time>2014-07-03T07:43:38Z</time>
      </trkpt>
      <trkpt lat="59.951812" lon="17.7284093">
        <ele>44.358</ele>
        <time>2014-07-03T07:43:39Z</time>
      </trkpt>
      <trkpt lat="59.9518519" lon="17.7283165">
        <ele>43.3966</ele>
        <time>2014-07-03T07:43:40Z</time>
      </trkpt>
      <trkpt lat="59.9518833" lon="17.7282446">
        <ele>42.916</ele>
        <time>2014-07-03T07:43:41Z</time>
      </trkpt>
      <trkpt lat="59.9519036" lon="17.7282342">
        <ele>42.916</ele>
        <time>2014-07-03T07:43:42Z</time>
      </trkpt>
      <trkpt lat="59.9519245" lon="17.7282118">
        <ele>42.4354</ele>
        <time>2014-07-03T07:43:43Z</time>
      </trkpt>
      <trkpt lat="59.9519369" lon="17.7282008">
        <ele>42.4354</ele>
        <time>2014-07-03T07:43:44Z</time>
      </trkpt>
      <trkpt lat="59.951943" lon="17.7281855">
        <ele>43.3966</ele>
        <time>2014-07-03T07:43:45Z</time>
      </trkpt>
      <trkpt lat="59.9519479" lon="17.7281485">
        <ele>44.358</ele>
        <time>2014-07-03T07:43:46Z</time>
      </trkpt>
      <trkpt lat="59.9519695" lon="17.7279969">
        <ele>44.358</ele>
        <time>2014-07-03T07:43:47Z</time>
      </trkpt>
      <trkpt lat="59.951989" lon="17.7278975">
        <ele>44.358</ele>
        <time>2014-07-03T07:43:48Z</time>
      </trkpt>
      <trkpt lat="59.951995" lon="17.7278675">
        <ele>44.8386</ele>
        <time>2014-07-03T07:43:49Z</time>
      </trkpt>
      <trkpt lat="59.9520001" lon="17.727796">
        <ele>46.2806</ele>
        <time>2014-07-03T07:43:50Z</time>
      </trkpt>
      <trkpt lat="59.9520042" lon="17.727745">
        <ele>47.2418</ele>
        <time>2014-07-03T07:43:51Z</time>
      </trkpt>
      <trkpt lat="59.9520068" lon="17.727682">
        <ele>48.2034</ele>
        <time>2014-07-03T07:43:52Z</time>
      </trkpt>
      <trkpt lat="59.9520133" lon="17.7276073">
        <ele>49.1646</ele>
        <time>2014-07-03T07:43:53Z</time>
      </trkpt>
      <trkpt lat="59.9520296" lon="17.7275162">
        <ele>48.684</ele>
        <time>2014-07-03T07:43:54Z</time>
      </trkpt>
      <trkpt lat="59.9520385" lon="17.7274416">
        <ele>49.1646</ele>
        <time>2014-07-03T07:43:55Z</time>
      </trkpt>
      <trkpt lat="59.9520401" lon="17.7273975">
        <ele>50.126</ele>
        <time>2014-07-03T07:43:56Z</time>
      </trkpt>
      <trkpt lat="59.9520461" lon="17.7273399">
        <ele>51.0872</ele>
        <time>2014-07-03T07:43:57Z</time>
      </trkpt>
      <trkpt lat="59.9520566" lon="17.727265">
        <ele>51.0872</ele>
        <time>2014-07-03T07:43:58Z</time>
      </trkpt>
      <trkpt lat="59.9520615" lon="17.7271965">
        <ele>51.5679</ele>
        <time>2014-07-03T07:43:59Z</time>
      </trkpt>
      <trkpt lat="59.9520675" lon="17.7271389">
        <ele>51.0872</ele>
        <time>2014-07-03T07:44:00Z</time>
      </trkpt>
      <trkpt lat="59.9520765" lon="17.7271069">
        <ele>51.0872</ele>
        <time>2014-07-03T07:44:01Z</time>
      </trkpt>
      <trkpt lat="59.9520848" lon="17.7270441">
        <ele>52.0486</ele>
        <time>2014-07-03T07:44:02Z</time>
      </trkpt>
      <trkpt lat="59.9520912" lon="17.7270012">
        <ele>52.5292</ele>
        <time>2014-07-03T07:44:03Z</time>
      </trkpt>
      <trkpt lat="59.9520963" lon="17.7269268">
        <ele>52.5292</ele>
        <time>2014-07-03T07:44:04Z</time>
      </trkpt>
      <trkpt lat="59.9520986" lon="17.7268173">
        <ele>53.9712</ele>
        <time>2014-07-03T07:44:05Z</time>
      </trkpt>
      <trkpt lat="59.9521055" lon="17.7267554">
        <ele>54.9324</ele>
        <time>2014-07-03T07:44:06Z</time>
      </trkpt>
      <trkpt lat="59.9521169" lon="17.7266951">
        <ele>54.9324</ele>
        <time>2014-07-03T07:44:07Z</time>
      </trkpt>
      <trkpt lat="59.9521248" lon="17.726639">
        <ele>54.9324</ele>
        <time>2014-07-03T07:44:08Z</time>
      </trkpt>
      <trkpt lat="59.9521336" lon="17.7266066">
        <ele>55.4131</ele>
        <time>2014-07-03T07:44:09Z</time>
      </trkpt>
      <trkpt lat="59.9521462" lon="17.7265739">
        <ele>54.9324</ele>
        <time>2014-07-03T07:44:10Z</time>
      </trkpt>
      <trkpt lat="59.9521581" lon="17.7265012">
        <ele>55.4131</ele>
        <time>2014-07-03T07:44:11Z</time>
      </trkpt>
      <trkpt lat="59.9521747" lon="17.7264643">
        <ele>55.4131</ele>
        <time>2014-07-03T07:44:12Z</time>
      </trkpt>
      <trkpt lat="59.952191" lon="17.7263963">
        <ele>54.9324</ele>
        <time>2014-07-03T07:44:13Z</time>
      </trkpt>
      <trkpt lat="59.952213" lon="17.726361">
        <ele>53.9712</ele>
        <time>2014-07-03T07:44:14Z</time>
      </trkpt>
      <trkpt lat="59.9522285" lon="17.7263083">
        <ele>54.4518</ele>
        <time>2014-07-03T07:44:15Z</time>
      </trkpt>
      <trkpt lat="59.9522438" lon="17.7262471">
        <ele>54.9324</ele>
        <time>2014-07-03T07:44:16Z</time>
      </trkpt>
      <trkpt lat="59.9522601" lon="17.7261436">
        <ele>55.4131</ele>
        <time>2014-07-03T07:44:17Z</time>
      </trkpt>
      <trkpt lat="59.9522778" lon="17.7261275">
        <ele>55.4131</ele>
        <time>2014-07-03T07:44:18Z</time>
      </trkpt>
      <trkpt lat="59.952298" lon="17.7260398">
        <ele>55.4131</ele>
        <time>2014-07-03T07:44:19Z</time>
      </trkpt>
      <trkpt lat="59.9523212" lon="17.7260092">
        <ele>54.4518</ele>
        <time>2014-07-03T07:44:20Z</time>
      </trkpt>
      <trkpt lat="59.9523368" lon="17.7259539">
        <ele>54.9324</ele>
        <time>2014-07-03T07:44:21Z</time>
      </trkpt>
      <trkpt lat="59.9523564" lon="17.7258859">
        <ele>54.9324</ele>
        <time>2014-07-03T07:44:22Z</time>
      </trkpt>
      <trkpt lat="59.9523747" lon="17.7258198">
        <ele>54.9324</ele>
        <time>2014-07-03T07:44:23Z</time>
      </trkpt>
      <trkpt lat="59.9523896" lon="17.7257638">
        <ele>54.9324</ele>
        <time>2014-07-03T07:44:24Z</time>
      </trkpt>
      <trkpt lat="59.9524092" lon="17.7256996">
        <ele>54.9324</ele>
        <time>2014-07-03T07:44:25Z</time>
      </trkpt>
      <trkpt lat="59.9524296" lon="17.7256803">
        <ele>54.9324</ele>
        <time>2014-07-03T07:44:26Z</time>
      </trkpt>
      <trkpt lat="59.9524513" lon="17.7256084">
        <ele>55.4131</ele>
        <time>2014-07-03T07:44:27Z</time>
      </trkpt>
      <trkpt lat="59.9524705" lon="17.7255056">
        <ele>55.8938</ele>
        <time>2014-07-03T07:44:28Z</time>
      </trkpt>
      <trkpt lat="59.9524958" lon="17.7254391">
        <ele>55.4131</ele>
        <time>2014-07-03T07:44:29Z</time>
      </trkpt>
      <trkpt lat="59.9525149" lon="17.7253919">
        <ele>55.4131</ele>
        <time>2014-07-03T07:44:30Z</time>
      </trkpt>
      <trkpt lat="59.9525393" lon="17.7253272">
        <ele>54.9324</ele>
        <time>2014-07-03T07:44:31Z</time>
      </trkpt>
      <trkpt lat="59.9525631" lon="17.7252502">
        <ele>54.4518</ele>
        <time>2014-07-03T07:44:32Z</time>
      </trkpt>
      <trkpt lat="59.9525907" lon="17.7252023">
        <ele>53.9712</ele>
        <time>2014-07-03T07:44:33Z</time>
      </trkpt>
      <trkpt lat="59.9526153" lon="17.7251732">
        <ele>53.9712</ele>
        <time>2014-07-03T07:44:34Z</time>
      </trkpt>
      <trkpt lat="59.9526358" lon="17.7251057">
        <ele>53.9712</ele>
        <time>2014-07-03T07:44:35Z</time>
      </trkpt>
      <trkpt lat="59.9526599" lon="17.7250662">
        <ele>53.4905</ele>
        <time>2014-07-03T07:44:36Z</time>
      </trkpt>
      <trkpt lat="59.9526839" lon="17.7250271">
        <ele>53.0098</ele>
        <time>2014-07-03T07:44:37Z</time>
      </trkpt>
      <trkpt lat="59.9527047" lon="17.7249661">
        <ele>52.5292</ele>
        <time>2014-07-03T07:44:38Z</time>
      </trkpt>
      <trkpt lat="59.952721" lon="17.7249312">
        <ele>53.0098</ele>
        <time>2014-07-03T07:44:39Z</time>
      </trkpt>
      <trkpt lat="59.9527382" lon="17.724913">
        <ele>53.4905</ele>
        <time>2014-07-03T07:44:40Z</time>
      </trkpt>
      <trkpt lat="59.9527572" lon="17.7249179">
        <ele>53.4905</ele>
        <time>2014-07-03T07:44:41Z</time>
      </trkpt>
      <trkpt lat="59.9527797" lon="17.7248796">
        <ele>53.9712</ele>
        <time>2014-07-03T07:44:42Z</time>
      </trkpt>
      <trkpt lat="59.952804" lon="17.7248556">
        <ele>53.9712</ele>
        <time>2014-07-03T07:44:43Z</time>
      </trkpt>
      <trkpt lat="59.9528135" lon="17.7248809">
        <ele>54.4518</ele>
        <time>2014-07-03T07:44:44Z</time>
      </trkpt>
      <trkpt lat="59.9528279" lon="17.7249058">
        <ele>54.9324</ele>
        <time>2014-07-03T07:44:45Z</time>
      </trkpt>
      <trkpt lat="59.952844" lon="17.7249275">
        <ele>54.9324</ele>
        <time>2014-07-03T07:44:46Z</time>
      </trkpt>
      <trkpt lat="59.9528702" lon="17.7249353">
        <ele>54.9324</ele>
        <time>2014-07-03T07:44:47Z</time>
      </trkpt>
      <trkpt lat="59.9528885" lon="17.724953">
        <ele>54.9324</ele>
        <time>2014-07-03T07:44:48Z</time>
      </trkpt>
      <trkpt lat="59.9529062" lon="17.7249529">
        <ele>54.9324</ele>
        <time>2014-07-03T07:44:49Z</time>
      </trkpt>
      <trkpt lat="59.9529221" lon="17.7248728">
        <ele>55.8938</ele>
        <time>2014-07-03T07:44:50Z</time>
      </trkpt>
      <trkpt lat="59.9529381" lon="17.7248864">
        <ele>56.3745</ele>
        <time>2014-07-03T07:44:51Z</time>
      </trkpt>
      <trkpt lat="59.952948" lon="17.7248769">
        <ele>57.3358</ele>
        <time>2014-07-03T07:44:52Z</time>
      </trkpt>
      <trkpt lat="59.952963" lon="17.7248268">
        <ele>57.3358</ele>
        <time>2014-07-03T07:44:53Z</time>
      </trkpt>
      <trkpt lat="59.9529836" lon="17.7247806">
        <ele>56.8551</ele>
        <time>2014-07-03T07:44:54Z</time>
      </trkpt>
      <trkpt lat="59.9530009" lon="17.7247448">
        <ele>57.3358</ele>
        <time>2014-07-03T07:44:55Z</time>
      </trkpt>
      <trkpt lat="59.9530134" lon="17.7246641">
        <ele>57.8165</ele>
        <time>2014-07-03T07:44:56Z</time>
      </trkpt>
      <trkpt lat="59.9530318" lon="17.7246216">
        <ele>58.2971</ele>
        <time>2014-07-03T07:44:57Z</time>
      </trkpt>
      <trkpt lat="59.9530517" lon="17.7245953">
        <ele>58.7777</ele>
        <time>2014-07-03T07:44:58Z</time>
      </trkpt>
      <trkpt lat="59.9530727" lon="17.724561">
        <ele>58.7777</ele>
        <time>2014-07-03T07:44:59Z</time>
      </trkpt>
      <trkpt lat="59.9530944" lon="17.724516">
        <ele>59.2584</ele>
        <time>2014-07-03T07:45:00Z</time>
      </trkpt>
      <trkpt lat="59.9531132" lon="17.7244746">
        <ele>59.2584</ele>
        <time>2014-07-03T07:45:01Z</time>
      </trkpt>
      <trkpt lat="59.9531195" lon="17.7245046">
        <ele>61.181</ele>
        <time>2014-07-03T07:45:02Z</time>
      </trkpt>
      <trkpt lat="59.9531324" lon="17.7245201">
        <ele>61.6617</ele>
        <time>2014-07-03T07:45:03Z</time>
      </trkpt>
      <trkpt lat="59.9531538" lon="17.7245082">
        <ele>61.6617</ele>
        <time>2014-07-03T07:45:04Z</time>
      </trkpt>
      <trkpt lat="59.9531695" lon="17.724489">
        <ele>62.6229</ele>
        <time>2014-07-03T07:45:05Z</time>
      </trkpt>
      <trkpt lat="59.9531807" lon="17.7244797">
        <ele>62.6229</ele>
        <time>2014-07-03T07:45:06Z</time>
      </trkpt>
      <trkpt lat="59.9531949" lon="17.724459">
        <ele>62.1423</ele>
        <time>2014-07-03T07:45:07Z</time>
      </trkpt>
      <trkpt lat="59.9532094" lon="17.7244283">
        <ele>61.6617</ele>
        <time>2014-07-03T07:45:08Z</time>
      </trkpt>
      <trkpt lat="59.9532265" lon="17.7244071">
        <ele>61.6617</ele>
        <time>2014-07-03T07:45:09Z</time>
      </trkpt>
      <trkpt lat="59.9532416" lon="17.7243823">
        <ele>62.1423</ele>
        <time>2014-07-03T07:45:10Z</time>
      </trkpt>
      <trkpt lat="59.9532537" lon="17.7243593">
        <ele>62.1423</ele>
        <time>2014-07-03T07:45:11Z</time>
      </trkpt>
      <trkpt lat="59.9532695" lon="17.72433">
        <ele>62.1423</ele>
        <time>2014-07-03T07:45:12Z</time>
      </trkpt>
      <trkpt lat="59.9532842" lon="17.7242997">
        <ele>62.1423</ele>
        <time>2014-07-03T07:45:13Z</time>
      </trkpt>
      <trkpt lat="59.9533047" lon="17.724266">
        <ele>61.181</ele>
        <time>2014-07-03T07:45:14Z</time>
      </trkpt>
      <trkpt lat="59.9533223" lon="17.7242322">
        <ele>61.181</ele>
        <time>2014-07-03T07:45:15Z</time>
      </trkpt>
      <trkpt lat="59.9533324" lon="17.7242049">
        <ele>61.6617</ele>
        <time>2014-07-03T07:45:16Z</time>
      </trkpt>
      <trkpt lat="59.9533467" lon="17.7241707">
        <ele>61.181</ele>
        <time>2014-07-03T07:45:17Z</time>
      </trkpt>
      <trkpt lat="59.9533666" lon="17.7241362">
        <ele>60.2197</ele>
        <time>2014-07-03T07:45:18Z</time>
      </trkpt>
      <trkpt lat="59.9533798" lon="17.7240948">
        <ele>60.7003</ele>
        <time>2014-07-03T07:45:19Z</time>
      </trkpt>
      <trkpt lat="59.9534135" lon="17.7240532">
        <ele>58.2971</ele>
        <time>2014-07-03T07:45:20Z</time>
      </trkpt>
      <trkpt lat="59.953433" lon="17.7240218">
        <ele>58.2971</ele>
        <time>2014-07-03T07:45:21Z</time>
      </trkpt>
      <trkpt lat="59.9534666" lon="17.7239751">
        <ele>57.3358</ele>
        <time>2014-07-03T07:45:22Z</time>
      </trkpt>
      <trkpt lat="59.9534821" lon="17.7239492">
        <ele>56.8551</ele>
        <time>2014-07-03T07:45:23Z</time>
      </trkpt>
      <trkpt lat="59.9535102" lon="17.7239192">
        <ele>54.4518</ele>
        <time>2014-07-03T07:45:24Z</time>
      </trkpt>
      <trkpt lat="59.9535308" lon="17.7238917">
        <ele>53.0098</ele>
        <time>2014-07-03T07:45:25Z</time>
      </trkpt>
      <trkpt lat="59.9535608" lon="17.7238623">
        <ele>51.5679</ele>
        <time>2014-07-03T07:45:26Z</time>
      </trkpt>
      <trkpt lat="59.9535765" lon="17.7238485">
        <ele>51.0872</ele>
        <time>2014-07-03T07:45:27Z</time>
      </trkpt>
      <trkpt lat="59.9535883" lon="17.7238423">
        <ele>50.126</ele>
        <time>2014-07-03T07:45:28Z</time>
      </trkpt>
      <trkpt lat="59.953607" lon="17.7238223">
        <ele>48.2034</ele>
        <time>2014-07-03T07:45:29Z</time>
      </trkpt>
      <trkpt lat="59.9536438" lon="17.7237791">
        <ele>45.3192</ele>
        <time>2014-07-03T07:45:30Z</time>
      </trkpt>
      <trkpt lat="59.9536676" lon="17.7237444">
        <ele>44.358</ele>
        <time>2014-07-03T07:45:31Z</time>
      </trkpt>
      <trkpt lat="59.9536941" lon="17.7237138">
        <ele>43.3966</ele>
        <time>2014-07-03T07:45:32Z</time>
      </trkpt>
      <trkpt lat="59.9537248" lon="17.7236825">
        <ele>40.9934</ele>
        <time>2014-07-03T07:45:33Z</time>
      </trkpt>
      <trkpt lat="59.9537457" lon="17.7236653">
        <ele>39.5513</ele>
        <time>2014-07-03T07:45:34Z</time>
      </trkpt>
      <trkpt lat="59.9537655" lon="17.7236426">
        <ele>38.5901</ele>
        <time>2014-07-03T07:45:35Z</time>
      </trkpt>
      <trkpt lat="59.9537856" lon="17.7236136">
        <ele>36.6675</ele>
        <time>2014-07-03T07:45:36Z</time>
      </trkpt>
      <trkpt lat="59.9537908" lon="17.7236054">
        <ele>37.6287</ele>
        <time>2014-07-03T07:45:37Z</time>
      </trkpt>
      <trkpt lat="59.9538096" lon="17.7235798">
        <ele>38.1094</ele>
        <time>2014-07-03T07:45:38Z</time>
      </trkpt>
      <trkpt lat="59.9538301" lon="17.7235442">
        <ele>39.0707</ele>
        <time>2014-07-03T07:45:39Z</time>
      </trkpt>
      <trkpt lat="59.9538395" lon="17.723523">
        <ele>41.9547</ele>
        <time>2014-07-03T07:45:40Z</time>
      </trkpt>
      <trkpt lat="59.9538652" lon="17.7234914">
        <ele>42.4354</ele>
        <time>2014-07-03T07:45:41Z</time>
      </trkpt>
      <trkpt lat="59.9538815" lon="17.7234611">
        <ele>44.358</ele>
        <time>2014-07-03T07:45:42Z</time>
      </trkpt>
      <trkpt lat="59.9538908" lon="17.7234386">
        <ele>46.2806</ele>
        <time>2014-07-03T07:45:43Z</time>
      </trkpt>
      <trkpt lat="59.9539013" lon="17.7234146">
        <ele>46.7612</ele>
        <time>2014-07-03T07:45:44Z</time>
      </trkpt>
      <trkpt lat="59.9539043" lon="17.7233955">
        <ele>49.6453</ele>
        <time>2014-07-03T07:45:45Z</time>
      </trkpt>
      <trkpt lat="59.9539193" lon="17.7233804">
        <ele>50.126</ele>
        <time>2014-07-03T07:45:46Z</time>
      </trkpt>
      <trkpt lat="59.9539443" lon="17.7233528">
        <ele>50.6066</ele>
        <time>2014-07-03T07:45:47Z</time>
      </trkpt>
      <trkpt lat="59.9539737" lon="17.7233336">
        <ele>51.0872</ele>
        <time>2014-07-03T07:45:48Z</time>
      </trkpt>
      <trkpt lat="59.9539887" lon="17.7233132">
        <ele>53.4905</ele>
        <time>2014-07-03T07:45:49Z</time>
      </trkpt>
      <trkpt lat="59.9540115" lon="17.7232987">
        <ele>53.9712</ele>
        <time>2014-07-03T07:45:50Z</time>
      </trkpt>
      <trkpt lat="59.954022" lon="17.723279">
        <ele>55.8938</ele>
        <time>2014-07-03T07:45:51Z</time>
      </trkpt>
      <trkpt lat="59.954039" lon="17.723267">
        <ele>56.3745</ele>
        <time>2014-07-03T07:45:52Z</time>
      </trkpt>
      <trkpt lat="59.9540566" lon="17.7232482">
        <ele>56.8551</ele>
        <time>2014-07-03T07:45:53Z</time>
      </trkpt>
      <trkpt lat="59.9540814" lon="17.7232308">
        <ele>56.3745</ele>
        <time>2014-07-03T07:45:54Z</time>
      </trkpt>
      <trkpt lat="59.9540901" lon="17.7232136">
        <ele>58.7777</ele>
        <time>2014-07-03T07:45:55Z</time>
      </trkpt>
      <trkpt lat="59.954101" lon="17.7232059">
        <ele>62.1423</ele>
        <time>2014-07-03T07:45:56Z</time>
      </trkpt>
      <trkpt lat="59.9541281" lon="17.7232059">
        <ele>63.5844</ele>
        <time>2014-07-03T07:45:57Z</time>
      </trkpt>
      <trkpt lat="59.9541555" lon="17.7231991">
        <ele>64.5457</ele>
        <time>2014-07-03T07:45:58Z</time>
      </trkpt>
      <trkpt lat="59.954184" lon="17.7231934">
        <ele>67.4297</ele>
        <time>2014-07-03T07:45:59Z</time>
      </trkpt>
      <trkpt lat="59.9542348" lon="17.723195">
        <ele>69.8329</ele>
        <time>2014-07-03T07:46:00Z</time>
      </trkpt>
      <trkpt lat="59.9542796" lon="17.723183">
        <ele>74.1588</ele>
        <time>2014-07-03T07:46:01Z</time>
      </trkpt>
      <trkpt lat="59.9543434" lon="17.7231397">
        <ele>80.8882</ele>
        <time>2014-07-03T07:46:02Z</time>
      </trkpt>
      <trkpt lat="59.9544162" lon="17.7230804">
        <ele>86.656</ele>
        <time>2014-07-03T07:46:03Z</time>
      </trkpt>
      <trkpt lat="59.954442" lon="17.7230972">
        <ele>92.9045</ele>
        <time>2014-07-03T07:46:04Z</time>
      </trkpt>
      <trkpt lat="59.9544886" lon="17.7231219">
        <ele>95.7885</ele>
        <time>2014-07-03T07:46:05Z</time>
      </trkpt>
      <trkpt lat="59.9545067" lon="17.7231328">
        <ele>101.556</ele>
        <time>2014-07-03T07:46:06Z</time>
      </trkpt>
      <trkpt lat="59.9545143" lon="17.7231504">
        <ele>103.479</ele>
        <time>2014-07-03T07:46:07Z</time>
      </trkpt>
      <trkpt lat="59.9545373" lon="17.7231504">
        <ele>103.96</ele>
        <time>2014-07-03T07:46:08Z</time>
      </trkpt>
      <trkpt lat="59.9545373" lon="17.7231323">
        <ele>109.728</ele>
        <time>2014-07-03T07:46:09Z</time>
      </trkpt>
      <trkpt lat="59.9545472" lon="17.7231287">
        <ele>110.208</ele>
        <time>2014-07-03T07:46:10Z</time>
      </trkpt>
      <trkpt lat="59.9545508" lon="17.7231431">
        <ele>109.728</ele>
        <time>2014-07-03T07:46:11Z</time>
      </trkpt>
      <trkpt lat="59.9545578" lon="17.7231545">
        <ele>108.766</ele>
        <time>2014-07-03T07:46:12Z</time>
      </trkpt>
      <trkpt lat="59.9545689" lon="17.7231706">
        <ele>108.766</ele>
        <time>2014-07-03T07:46:13Z</time>
      </trkpt>
      <trkpt lat="59.9545829" lon="17.7231949">
        <ele>109.247</ele>
        <time>2014-07-03T07:46:14Z</time>
      </trkpt>
      <trkpt lat="59.9546001" lon="17.7232135">
        <ele>109.728</ele>
        <time>2014-07-03T07:46:15Z</time>
      </trkpt>
      <trkpt lat="59.9546174" lon="17.723237">
        <ele>107.805</ele>
        <time>2014-07-03T07:46:16Z</time>
      </trkpt>
      <trkpt lat="59.954628" lon="17.7232515">
        <ele>108.286</ele>
        <time>2014-07-03T07:46:17Z</time>
      </trkpt>
      <trkpt lat="59.9546487" lon="17.7232635">
        <ele>108.286</ele>
        <time>2014-07-03T07:46:18Z</time>
      </trkpt>
      <trkpt lat="59.9546658" lon="17.7232632">
        <ele>109.247</ele>
        <time>2014-07-03T07:46:19Z</time>
      </trkpt>
      <trkpt lat="59.9546791" lon="17.7232727">
        <ele>110.689</ele>
        <time>2014-07-03T07:46:20Z</time>
      </trkpt>
      <trkpt lat="59.9546916" lon="17.723286">
        <ele>111.65</ele>
        <time>2014-07-03T07:46:21Z</time>
      </trkpt>
      <trkpt lat="59.9547025" lon="17.7233072">
        <ele>110.689</ele>
        <time>2014-07-03T07:46:22Z</time>
      </trkpt>
      <trkpt lat="59.9547217" lon="17.7233225">
        <ele>111.65</ele>
        <time>2014-07-03T07:46:23Z</time>
      </trkpt>
      <trkpt lat="59.9547476" lon="17.7233305">
        <ele>112.131</ele>
        <time>2014-07-03T07:46:24Z</time>
      </trkpt>
      <trkpt lat="59.9547697" lon="17.7233487">
        <ele>111.65</ele>
        <time>2014-07-03T07:46:25Z</time>
      </trkpt>
      <trkpt lat="59.9547966" lon="17.7233688">
        <ele>110.689</ele>
        <time>2014-07-03T07:46:26Z</time>
      </trkpt>
      <trkpt lat="59.9548147" lon="17.7233866">
        <ele>110.689</ele>
        <time>2014-07-03T07:46:27Z</time>
      </trkpt>
      <trkpt lat="59.9548377" lon="17.7233958">
        <ele>110.208</ele>
        <time>2014-07-03T07:46:28Z</time>
      </trkpt>
      <trkpt lat="59.9548538" lon="17.7233955">
        <ele>110.689</ele>
        <time>2014-07-03T07:46:29Z</time>
      </trkpt>
      <trkpt lat="59.9548673" lon="17.723409">
        <ele>110.208</ele>
        <time>2014-07-03T07:46:30Z</time>
      </trkpt>
      <trkpt lat="59.95489" lon="17.72341">
        <ele>111.17</ele>
        <time>2014-07-03T07:46:31Z</time>
      </trkpt>
      <trkpt lat="59.9549148" lon="17.7234069">
        <ele>111.17</ele>
        <time>2014-07-03T07:46:32Z</time>
      </trkpt>
      <trkpt lat="59.9549423" lon="17.7234087">
        <ele>112.612</ele>
        <time>2014-07-03T07:46:33Z</time>
      </trkpt>
      <trkpt lat="59.9549636" lon="17.7234036">
        <ele>111.17</ele>
        <time>2014-07-03T07:46:34Z</time>
      </trkpt>
      <trkpt lat="59.9549903" lon="17.7234059">
        <ele>105.882</ele>
        <time>2014-07-03T07:46:35Z</time>
      </trkpt>
      <trkpt lat="59.9550083" lon="17.7234017">
        <ele>101.556</ele>
        <time>2014-07-03T07:46:36Z</time>
      </trkpt>
      <trkpt lat="59.9550298" lon="17.7234155">
        <ele>97.2305</ele>
        <time>2014-07-03T07:46:37Z</time>
      </trkpt>
      <trkpt lat="59.9550491" lon="17.7234165">
        <ele>93.3851</ele>
        <time>2014-07-03T07:46:38Z</time>
      </trkpt>
      <trkpt lat="59.9550682" lon="17.7234061">
        <ele>88.5787</ele>
        <time>2014-07-03T07:46:39Z</time>
      </trkpt>
      <trkpt lat="59.9550874" lon="17.7234001">
        <ele>83.772</ele>
        <time>2014-07-03T07:46:40Z</time>
      </trkpt>
      <trkpt lat="59.9551009" lon="17.7233949">
        <ele>81.8494</ele>
        <time>2014-07-03T07:46:41Z</time>
      </trkpt>
      <trkpt lat="59.9551247" lon="17.7233894">
        <ele>78.4847</ele>
        <time>2014-07-03T07:46:42Z</time>
      </trkpt>
      <trkpt lat="59.9551476" lon="17.7233789">
        <ele>76.0814</ele>
        <time>2014-07-03T07:46:43Z</time>
      </trkpt>
      <trkpt lat="59.9551609" lon="17.7233697">
        <ele>75.1202</ele>
        <time>2014-07-03T07:46:44Z</time>
      </trkpt>
      <trkpt lat="59.955187" lon="17.7233649">
        <ele>72.7169</ele>
        <time>2014-07-03T07:46:45Z</time>
      </trkpt>
      <trkpt lat="59.9552153" lon="17.7233602">
        <ele>71.7555</ele>
        <time>2014-07-03T07:46:46Z</time>
      </trkpt>
      <trkpt lat="59.9552444" lon="17.7233592">
        <ele>70.3135</ele>
        <time>2014-07-03T07:46:47Z</time>
      </trkpt>
      <trkpt lat="59.9552729" lon="17.7233597">
        <ele>67.9103</ele>
        <time>2014-07-03T07:46:48Z</time>
      </trkpt>
      <trkpt lat="59.9552926" lon="17.7233483">
        <ele>68.8716</ele>
        <time>2014-07-03T07:46:49Z</time>
      </trkpt>
      <trkpt lat="59.9553142" lon="17.72334">
        <ele>71.2749</ele>
        <time>2014-07-03T07:46:50Z</time>
      </trkpt>
      <trkpt lat="59.9553381" lon="17.7233355">
        <ele>72.7169</ele>
        <time>2014-07-03T07:46:51Z</time>
      </trkpt>
      <trkpt lat="59.9553635" lon="17.723339">
        <ele>72.7169</ele>
        <time>2014-07-03T07:46:52Z</time>
      </trkpt>
      <trkpt lat="59.9553889" lon="17.7233343">
        <ele>74.6395</ele>
        <time>2014-07-03T07:46:53Z</time>
      </trkpt>
      <trkpt lat="59.9554142" lon="17.7233323">
        <ele>76.0814</ele>
        <time>2014-07-03T07:46:54Z</time>
      </trkpt>
      <trkpt lat="59.9554312" lon="17.7233334">
        <ele>78.4847</ele>
        <time>2014-07-03T07:46:55Z</time>
      </trkpt>
      <trkpt lat="59.9554512" lon="17.7233384">
        <ele>79.446</ele>
        <time>2014-07-03T07:46:56Z</time>
      </trkpt>
      <trkpt lat="59.9554681" lon="17.7233464">
        <ele>80.8882</ele>
        <time>2014-07-03T07:46:57Z</time>
      </trkpt>
      <trkpt lat="59.9554826" lon="17.7233601">
        <ele>81.3688</ele>
        <time>2014-07-03T07:46:58Z</time>
      </trkpt>
      <trkpt lat="59.9554914" lon="17.7233759">
        <ele>83.2914</ele>
        <time>2014-07-03T07:46:59Z</time>
      </trkpt>
      <trkpt lat="59.9555151" lon="17.7233979">
        <ele>83.2914</ele>
        <time>2014-07-03T07:47:00Z</time>
      </trkpt>
      <trkpt lat="59.9555407" lon="17.723416">
        <ele>84.2527</ele>
        <time>2014-07-03T07:47:01Z</time>
      </trkpt>
      <trkpt lat="59.9555702" lon="17.7234425">
        <ele>83.772</ele>
        <time>2014-07-03T07:47:02Z</time>
      </trkpt>
      <trkpt lat="59.9556048" lon="17.7234546">
        <ele>84.2527</ele>
        <time>2014-07-03T07:47:03Z</time>
      </trkpt>
      <trkpt lat="59.9556312" lon="17.723466">
        <ele>84.2527</ele>
        <time>2014-07-03T07:47:04Z</time>
      </trkpt>
      <trkpt lat="59.9556541" lon="17.7234825">
        <ele>85.6946</ele>
        <time>2014-07-03T07:47:05Z</time>
      </trkpt>
      <trkpt lat="59.9556821" lon="17.72351">
        <ele>86.1753</ele>
        <time>2014-07-03T07:47:06Z</time>
      </trkpt>
      <trkpt lat="59.9557049" lon="17.7235427">
        <ele>88.098</ele>
        <time>2014-07-03T07:47:07Z</time>
      </trkpt>
      <trkpt lat="59.9557312" lon="17.7235658">
        <ele>90.0206</ele>
        <time>2014-07-03T07:47:08Z</time>
      </trkpt>
      <trkpt lat="59.955757" lon="17.7235762">
        <ele>91.9432</ele>
        <time>2014-07-03T07:47:09Z</time>
      </trkpt>
      <trkpt lat="59.9557847" lon="17.7235918">
        <ele>92.9045</ele>
        <time>2014-07-03T07:47:10Z</time>
      </trkpt>
      <trkpt lat="59.9558042" lon="17.7235968">
        <ele>93.3851</ele>
        <time>2014-07-03T07:47:11Z</time>
      </trkpt>
      <trkpt lat="59.9558302" lon="17.7235881">
        <ele>94.3466</ele>
        <time>2014-07-03T07:47:12Z</time>
      </trkpt>
      <trkpt lat="59.9558507" lon="17.7235716">
        <ele>94.3466</ele>
        <time>2014-07-03T07:47:13Z</time>
      </trkpt>
      <trkpt lat="59.9558665" lon="17.7235488">
        <ele>92.9045</ele>
        <time>2014-07-03T07:47:14Z</time>
      </trkpt>
      <trkpt lat="59.9558824" lon="17.7235121">
        <ele>90.9819</ele>
        <time>2014-07-03T07:47:15Z</time>
      </trkpt>
      <trkpt lat="59.9559008" lon="17.7234825">
        <ele>87.6172</ele>
        <time>2014-07-03T07:47:16Z</time>
      </trkpt>
      <trkpt lat="59.9559181" lon="17.7234593">
        <ele>84.7334</ele>
        <time>2014-07-03T07:47:17Z</time>
      </trkpt>
      <trkpt lat="59.9559323" lon="17.7234318">
        <ele>81.3688</ele>
        <time>2014-07-03T07:47:18Z</time>
      </trkpt>
      <trkpt lat="59.9559436" lon="17.7233913">
        <ele>79.9266</ele>
        <time>2014-07-03T07:47:19Z</time>
      </trkpt>
      <trkpt lat="59.9559564" lon="17.7233508">
        <ele>77.5234</ele>
        <time>2014-07-03T07:47:20Z</time>
      </trkpt>
      <trkpt lat="59.9559679" lon="17.7233053">
        <ele>77.0428</ele>
        <time>2014-07-03T07:47:21Z</time>
      </trkpt>
      <trkpt lat="59.9559768" lon="17.7232598">
        <ele>77.0428</ele>
        <time>2014-07-03T07:47:22Z</time>
      </trkpt>
      <trkpt lat="59.9559976" lon="17.7232214">
        <ele>74.6395</ele>
        <time>2014-07-03T07:47:23Z</time>
      </trkpt>
      <trkpt lat="59.9559974" lon="17.7231678">
        <ele>75.6008</ele>
        <time>2014-07-03T07:47:24Z</time>
      </trkpt>
      <trkpt lat="59.9559996" lon="17.7231115">
        <ele>76.0814</ele>
        <time>2014-07-03T07:47:25Z</time>
      </trkpt>
      <trkpt lat="59.9560053" lon="17.7230617">
        <ele>75.1202</ele>
        <time>2014-07-03T07:47:26Z</time>
      </trkpt>
      <trkpt lat="59.9560132" lon="17.7230158">
        <ele>74.6395</ele>
        <time>2014-07-03T07:47:27Z</time>
      </trkpt>
      <trkpt lat="59.9560137" lon="17.7229645">
        <ele>75.6008</ele>
        <time>2014-07-03T07:47:28Z</time>
      </trkpt>
      <trkpt lat="59.9560141" lon="17.7229147">
        <ele>75.1202</ele>
        <time>2014-07-03T07:47:29Z</time>
      </trkpt>
      <trkpt lat="59.9560083" lon="17.722861">
        <ele>74.1588</ele>
        <time>2014-07-03T07:47:30Z</time>
      </trkpt>
      <trkpt lat="59.9560067" lon="17.7228169">
        <ele>71.2749</ele>
        <time>2014-07-03T07:47:31Z</time>
      </trkpt>
      <trkpt lat="59.956008" lon="17.7227718">
        <ele>69.3523</ele>
        <time>2014-07-03T07:47:32Z</time>
      </trkpt>
      <trkpt lat="59.9560017" lon="17.7227257">
        <ele>68.8716</ele>
        <time>2014-07-03T07:47:33Z</time>
      </trkpt>
      <trkpt lat="59.955993" lon="17.7226823">
        <ele>68.3909</ele>
        <time>2014-07-03T07:47:34Z</time>
      </trkpt>
      <trkpt lat="59.9559856" lon="17.7226362">
        <ele>67.9103</ele>
        <time>2014-07-03T07:47:35Z</time>
      </trkpt>
      <trkpt lat="59.9559799" lon="17.7225926">
        <ele>67.9103</ele>
        <time>2014-07-03T07:47:36Z</time>
      </trkpt>
      <trkpt lat="59.9559763" lon="17.7225499">
        <ele>67.4297</ele>
        <time>2014-07-03T07:47:37Z</time>
      </trkpt>
      <trkpt lat="59.9559712" lon="17.7225045">
        <ele>67.4297</ele>
        <time>2014-07-03T07:47:38Z</time>
      </trkpt>
      <trkpt lat="59.9559655" lon="17.7224569">
        <ele>66.949</ele>
        <time>2014-07-03T07:47:39Z</time>
      </trkpt>
      <trkpt lat="59.9559545" lon="17.7224114">
        <ele>67.4297</ele>
        <time>2014-07-03T07:47:40Z</time>
      </trkpt>
      <trkpt lat="59.9559463" lon="17.7223614">
        <ele>66.949</ele>
        <time>2014-07-03T07:47:41Z</time>
      </trkpt>
      <trkpt lat="59.955939" lon="17.7223103">
        <ele>66.4683</ele>
        <time>2014-07-03T07:47:42Z</time>
      </trkpt>
      <trkpt lat="59.9559296" lon="17.7222684">
        <ele>65.9877</ele>
        <time>2014-07-03T07:47:43Z</time>
      </trkpt>
      <trkpt lat="59.9559249" lon="17.7222326">
        <ele>65.0264</ele>
        <time>2014-07-03T07:47:44Z</time>
      </trkpt>
      <trkpt lat="59.9559173" lon="17.7221828">
        <ele>64.5457</ele>
        <time>2014-07-03T07:47:45Z</time>
      </trkpt>
      <trkpt lat="59.9559114" lon="17.7221269">
        <ele>65.0264</ele>
        <time>2014-07-03T07:47:46Z</time>
      </trkpt>
      <trkpt lat="59.9559051" lon="17.72208">
        <ele>65.5071</ele>
        <time>2014-07-03T07:47:47Z</time>
      </trkpt>
      <trkpt lat="59.9559006" lon="17.7220357">
        <ele>65.9877</ele>
        <time>2014-07-03T07:47:48Z</time>
      </trkpt>
      <trkpt lat="59.9559001" lon="17.7219966">
        <ele>65.9877</ele>
        <time>2014-07-03T07:47:49Z</time>
      </trkpt>
      <trkpt lat="59.9558997" lon="17.7219518">
        <ele>65.5071</ele>
        <time>2014-07-03T07:47:50Z</time>
      </trkpt>
      <trkpt lat="59.9558965" lon="17.7218987">
        <ele>65.5071</ele>
        <time>2014-07-03T07:47:51Z</time>
      </trkpt>
      <trkpt lat="59.9559013" lon="17.7218476">
        <ele>65.5071</ele>
        <time>2014-07-03T07:47:52Z</time>
      </trkpt>
      <trkpt lat="59.9559047" lon="17.721796">
        <ele>65.5071</ele>
        <time>2014-07-03T07:47:53Z</time>
      </trkpt>
      <trkpt lat="59.9559122" lon="17.7217405">
        <ele>66.4683</ele>
        <time>2014-07-03T07:47:54Z</time>
      </trkpt>
      <trkpt lat="59.9559214" lon="17.721699">
        <ele>66.949</ele>
        <time>2014-07-03T07:47:55Z</time>
      </trkpt>
      <trkpt lat="59.9559234" lon="17.721661">
        <ele>66.949</ele>
        <time>2014-07-03T07:47:56Z</time>
      </trkpt>
      <trkpt lat="59.955925" lon="17.7216145">
        <ele>67.4297</ele>
        <time>2014-07-03T07:47:57Z</time>
      </trkpt>
      <trkpt lat="59.9559281" lon="17.721568">
        <ele>67.9103</ele>
        <time>2014-07-03T07:47:58Z</time>
      </trkpt>
      <trkpt lat="59.9559297" lon="17.7215164">
        <ele>69.3523</ele>
        <time>2014-07-03T07:47:59Z</time>
      </trkpt>
      <trkpt lat="59.9559279" lon="17.7214665">
        <ele>69.3523</ele>
        <time>2014-07-03T07:48:00Z</time>
      </trkpt>
      <trkpt lat="59.9559235" lon="17.7214193">
        <ele>69.3523</ele>
        <time>2014-07-03T07:48:01Z</time>
      </trkpt>
      <trkpt lat="59.9559157" lon="17.7213729">
        <ele>70.7942</ele>
        <time>2014-07-03T07:48:02Z</time>
      </trkpt>
      <trkpt lat="59.9559022" lon="17.7213255">
        <ele>71.7555</ele>
        <time>2014-07-03T07:48:03Z</time>
      </trkpt>
      <trkpt lat="59.9558872" lon="17.7212803">
        <ele>72.2362</ele>
        <time>2014-07-03T07:48:04Z</time>
      </trkpt>
      <trkpt lat="59.9558692" lon="17.7212447">
        <ele>72.2362</ele>
        <time>2014-07-03T07:48:05Z</time>
      </trkpt>
      <trkpt lat="59.9558503" lon="17.7212214">
        <ele>73.1976</ele>
        <time>2014-07-03T07:48:06Z</time>
      </trkpt>
      <trkpt lat="59.9558349" lon="17.7211997">
        <ele>72.7169</ele>
        <time>2014-07-03T07:48:07Z</time>
      </trkpt>
      <trkpt lat="59.9558106" lon="17.7211872">
        <ele>72.7169</ele>
        <time>2014-07-03T07:48:08Z</time>
      </trkpt>
      <trkpt lat="59.9557852" lon="17.721189">
        <ele>72.7169</ele>
        <time>2014-07-03T07:48:09Z</time>
      </trkpt>
      <trkpt lat="59.9557567" lon="17.7211932">
        <ele>72.7169</ele>
        <time>2014-07-03T07:48:10Z</time>
      </trkpt>
      <trkpt lat="59.9557354" lon="17.7211934">
        <ele>72.7169</ele>
        <time>2014-07-03T07:48:11Z</time>
      </trkpt>
      <trkpt lat="59.9557125" lon="17.7212049">
        <ele>72.2362</ele>
        <time>2014-07-03T07:48:12Z</time>
      </trkpt>
      <trkpt lat="59.9556814" lon="17.7212224">
        <ele>72.2362</ele>
        <time>2014-07-03T07:48:13Z</time>
      </trkpt>
      <trkpt lat="59.9556562" lon="17.7212373">
        <ele>70.7942</ele>
        <time>2014-07-03T07:48:14Z</time>
      </trkpt>
      <trkpt lat="59.955638" lon="17.7212582">
        <ele>70.3135</ele>
        <time>2014-07-03T07:48:15Z</time>
      </trkpt>
      <trkpt lat="59.9556176" lon="17.7212819">
        <ele>68.8716</ele>
        <time>2014-07-03T07:48:16Z</time>
      </trkpt>
      <trkpt lat="59.9555946" lon="17.7213041">
        <ele>67.9103</ele>
        <time>2014-07-03T07:48:17Z</time>
      </trkpt>
      <trkpt lat="59.955571" lon="17.7213338">
        <ele>66.4683</ele>
        <time>2014-07-03T07:48:18Z</time>
      </trkpt>
      <trkpt lat="59.9555423" lon="17.7213556">
        <ele>66.4683</ele>
        <time>2014-07-03T07:48:19Z</time>
      </trkpt>
      <trkpt lat="59.9555213" lon="17.721358">
        <ele>65.9877</ele>
        <time>2014-07-03T07:48:20Z</time>
      </trkpt>
      <trkpt lat="59.9554955" lon="17.7213539">
        <ele>66.4683</ele>
        <time>2014-07-03T07:48:21Z</time>
      </trkpt>
      <trkpt lat="59.9554769" lon="17.7213505">
        <ele>65.5071</ele>
        <time>2014-07-03T07:48:22Z</time>
      </trkpt>
      <trkpt lat="59.9554581" lon="17.7213618">
        <ele>64.5457</ele>
        <time>2014-07-03T07:48:23Z</time>
      </trkpt>
      <trkpt lat="59.9554348" lon="17.721369">
        <ele>65.0264</ele>
        <time>2014-07-03T07:48:24Z</time>
      </trkpt>
      <trkpt lat="59.9554144" lon="17.7213675">
        <ele>65.0264</ele>
        <time>2014-07-03T07:48:25Z</time>
      </trkpt>
      <trkpt lat="59.9553913" lon="17.7213579">
        <ele>65.0264</ele>
        <time>2014-07-03T07:48:26Z</time>
      </trkpt>
      <trkpt lat="59.9553691" lon="17.721352">
        <ele>65.0264</ele>
        <time>2014-07-03T07:48:27Z</time>
      </trkpt>
      <trkpt lat="59.9553547" lon="17.7213406">
        <ele>64.0651</ele>
        <time>2014-07-03T07:48:28Z</time>
      </trkpt>
      <trkpt lat="59.9553331" lon="17.7213201">
        <ele>64.5457</ele>
        <time>2014-07-03T07:48:29Z</time>
      </trkpt>
      <trkpt lat="59.9553055" lon="17.7213079">
        <ele>65.0264</ele>
        <time>2014-07-03T07:48:30Z</time>
      </trkpt>
      <trkpt lat="59.9552831" lon="17.7213059">
        <ele>65.9877</ele>
        <time>2014-07-03T07:48:31Z</time>
      </trkpt>
      <trkpt lat="59.9552639" lon="17.7213048">
        <ele>65.9877</ele>
        <time>2014-07-03T07:48:32Z</time>
      </trkpt>
      <trkpt lat="59.9552412" lon="17.7212975">
        <ele>65.9877</ele>
        <time>2014-07-03T07:48:33Z</time>
      </trkpt>
      <trkpt lat="59.9552205" lon="17.7213017">
        <ele>65.0264</ele>
        <time>2014-07-03T07:48:34Z</time>
      </trkpt>
      <trkpt lat="59.9551946" lon="17.7213121">
        <ele>65.5071</ele>
        <time>2014-07-03T07:48:35Z</time>
      </trkpt>
      <trkpt lat="59.9551677" lon="17.721317">
        <ele>66.4683</ele>
        <time>2014-07-03T07:48:36Z</time>
      </trkpt>
      <trkpt lat="59.9551372" lon="17.721324">
        <ele>67.4297</ele>
        <time>2014-07-03T07:48:37Z</time>
      </trkpt>
      <trkpt lat="59.9551138" lon="17.7213198">
        <ele>66.949</ele>
        <time>2014-07-03T07:48:38Z</time>
      </trkpt>
      <trkpt lat="59.9550843" lon="17.72131">
        <ele>67.9103</ele>
        <time>2014-07-03T07:48:39Z</time>
      </trkpt>
      <trkpt lat="59.9550548" lon="17.7213011">
        <ele>68.3909</ele>
        <time>2014-07-03T07:48:40Z</time>
      </trkpt>
      <trkpt lat="59.955031" lon="17.721298">
        <ele>68.3909</ele>
        <time>2014-07-03T07:48:41Z</time>
      </trkpt>
      <trkpt lat="59.9550052" lon="17.7212932">
        <ele>68.3909</ele>
        <time>2014-07-03T07:48:42Z</time>
      </trkpt>
      <trkpt lat="59.9549843" lon="17.7212807">
        <ele>67.9103</ele>
        <time>2014-07-03T07:48:43Z</time>
      </trkpt>
      <trkpt lat="59.954965" lon="17.7212654">
        <ele>66.949</ele>
        <time>2014-07-03T07:48:44Z</time>
      </trkpt>
      <trkpt lat="59.9549439" lon="17.721253">
        <ele>66.4683</ele>
        <time>2014-07-03T07:48:45Z</time>
      </trkpt>
      <trkpt lat="59.9549232" lon="17.7212408">
        <ele>65.9877</ele>
        <time>2014-07-03T07:48:46Z</time>
      </trkpt>
      <trkpt lat="59.9548988" lon="17.7212316">
        <ele>65.5071</ele>
        <time>2014-07-03T07:48:47Z</time>
      </trkpt>
      <trkpt lat="59.9548718" lon="17.7212189">
        <ele>66.4683</ele>
        <time>2014-07-03T07:48:48Z</time>
      </trkpt>
      <trkpt lat="59.9548496" lon="17.7211994">
        <ele>65.9877</ele>
        <time>2014-07-03T07:48:49Z</time>
      </trkpt>
      <trkpt lat="59.954822" lon="17.7211678">
        <ele>66.949</ele>
        <time>2014-07-03T07:48:50Z</time>
      </trkpt>
      <trkpt lat="59.9547958" lon="17.7211312">
        <ele>66.949</ele>
        <time>2014-07-03T07:48:51Z</time>
      </trkpt>
      <trkpt lat="59.9547703" lon="17.7210984">
        <ele>67.4297</ele>
        <time>2014-07-03T07:48:52Z</time>
      </trkpt>
      <trkpt lat="59.9547518" lon="17.7210652">
        <ele>67.4297</ele>
        <time>2014-07-03T07:48:53Z</time>
      </trkpt>
      <trkpt lat="59.9547314" lon="17.7210246">
        <ele>67.4297</ele>
        <time>2014-07-03T07:48:54Z</time>
      </trkpt>
      <trkpt lat="59.9547208" lon="17.7209793">
        <ele>66.949</ele>
        <time>2014-07-03T07:48:55Z</time>
      </trkpt>
      <trkpt lat="59.9547203" lon="17.7209298">
        <ele>66.949</ele>
        <time>2014-07-03T07:48:56Z</time>
      </trkpt>
      <trkpt lat="59.954717" lon="17.720879">
        <ele>67.4297</ele>
        <time>2014-07-03T07:48:57Z</time>
      </trkpt>
      <trkpt lat="59.9547169" lon="17.7208318">
        <ele>67.4297</ele>
        <time>2014-07-03T07:48:58Z</time>
      </trkpt>
      <trkpt lat="59.9547217" lon="17.7207884">
        <ele>67.4297</ele>
        <time>2014-07-03T07:48:59Z</time>
      </trkpt>
      <trkpt lat="59.9547319" lon="17.7207451">
        <ele>68.3909</ele>
        <time>2014-07-03T07:49:00Z</time>
      </trkpt>
      <trkpt lat="59.9547474" lon="17.7207035">
        <ele>68.3909</ele>
        <time>2014-07-03T07:49:01Z</time>
      </trkpt>
      <trkpt lat="59.954756" lon="17.7206573">
        <ele>69.8329</ele>
        <time>2014-07-03T07:49:02Z</time>
      </trkpt>
      <trkpt lat="59.9547707" lon="17.7206101">
        <ele>69.3523</ele>
        <time>2014-07-03T07:49:03Z</time>
      </trkpt>
      <trkpt lat="59.9547822" lon="17.7205733">
        <ele>68.8716</ele>
        <time>2014-07-03T07:49:04Z</time>
      </trkpt>
      <trkpt lat="59.9547942" lon="17.7205455">
        <ele>68.8716</ele>
        <time>2014-07-03T07:49:05Z</time>
      </trkpt>
      <trkpt lat="59.9548021" lon="17.7205138">
        <ele>70.3135</ele>
        <time>2014-07-03T07:49:06Z</time>
      </trkpt>
      <trkpt lat="59.954817" lon="17.7204869">
        <ele>70.7942</ele>
        <time>2014-07-03T07:49:07Z</time>
      </trkpt>
      <trkpt lat="59.9548284" lon="17.7204652">
        <ele>71.2749</ele>
        <time>2014-07-03T07:49:08Z</time>
      </trkpt>
      <trkpt lat="59.9548465" lon="17.7204428">
        <ele>71.2749</ele>
        <time>2014-07-03T07:49:09Z</time>
      </trkpt>
      <trkpt lat="59.9548609" lon="17.7204257">
        <ele>72.2362</ele>
        <time>2014-07-03T07:49:10Z</time>
      </trkpt>
      <trkpt lat="59.9548818" lon="17.7204071">
        <ele>71.7555</ele>
        <time>2014-07-03T07:49:11Z</time>
      </trkpt>
      <trkpt lat="59.954894" lon="17.720378">
        <ele>72.2362</ele>
        <time>2014-07-03T07:49:12Z</time>
      </trkpt>
      <trkpt lat="59.9549095" lon="17.7203564">
        <ele>72.2362</ele>
        <time>2014-07-03T07:49:13Z</time>
      </trkpt>
      <trkpt lat="59.9549303" lon="17.7203352">
        <ele>72.2362</ele>
        <time>2014-07-03T07:49:14Z</time>
      </trkpt>
      <trkpt lat="59.954947" lon="17.7203098">
        <ele>73.1976</ele>
        <time>2014-07-03T07:49:15Z</time>
      </trkpt>
      <trkpt lat="59.954964" lon="17.7202848">
        <ele>73.1976</ele>
        <time>2014-07-03T07:49:16Z</time>
      </trkpt>
      <trkpt lat="59.9549775" lon="17.7202613">
        <ele>73.6782</ele>
        <time>2014-07-03T07:49:17Z</time>
      </trkpt>
      <trkpt lat="59.9549927" lon="17.7202423">
        <ele>73.6782</ele>
        <time>2014-07-03T07:49:18Z</time>
      </trkpt>
      <trkpt lat="59.9550116" lon="17.7202227">
        <ele>74.6395</ele>
        <time>2014-07-03T07:49:19Z</time>
      </trkpt>
      <trkpt lat="59.9550299" lon="17.7202144">
        <ele>75.1202</ele>
        <time>2014-07-03T07:49:20Z</time>
      </trkpt>
      <trkpt lat="59.9550491" lon="17.7202045">
        <ele>74.6395</ele>
        <time>2014-07-03T07:49:21Z</time>
      </trkpt>
      <trkpt lat="59.9550647" lon="17.7201795">
        <ele>75.1202</ele>
        <time>2014-07-03T07:49:22Z</time>
      </trkpt>
      <trkpt lat="59.9550865" lon="17.7201546">
        <ele>74.1588</ele>
        <time>2014-07-03T07:49:23Z</time>
      </trkpt>
      <trkpt lat="59.9550982" lon="17.7201382">
        <ele>76.0814</ele>
        <time>2014-07-03T07:49:24Z</time>
      </trkpt>
      <trkpt lat="59.9551131" lon="17.7201289">
        <ele>78.004</ele>
        <time>2014-07-03T07:49:25Z</time>
      </trkpt>
      <trkpt lat="59.9551321" lon="17.7201201">
        <ele>78.4847</ele>
        <time>2014-07-03T07:49:26Z</time>
      </trkpt>
      <trkpt lat="59.9551514" lon="17.7201069">
        <ele>79.446</ele>
        <time>2014-07-03T07:49:27Z</time>
      </trkpt>
      <trkpt lat="59.9551693" lon="17.7200836">
        <ele>80.8882</ele>
        <time>2014-07-03T07:49:28Z</time>
      </trkpt>
      <trkpt lat="59.9551918" lon="17.7200532">
        <ele>82.3301</ele>
        <time>2014-07-03T07:49:29Z</time>
      </trkpt>
      <trkpt lat="59.9552133" lon="17.7200309">
        <ele>82.8108</ele>
        <time>2014-07-03T07:49:30Z</time>
      </trkpt>
      <trkpt lat="59.9552243" lon="17.7200083">
        <ele>84.7334</ele>
        <time>2014-07-03T07:49:31Z</time>
      </trkpt>
      <trkpt lat="59.9552335" lon="17.7199837">
        <ele>89.0593</ele>
        <time>2014-07-03T07:49:32Z</time>
      </trkpt>
      <trkpt lat="59.9552486" lon="17.7199617">
        <ele>90.9819</ele>
        <time>2014-07-03T07:49:33Z</time>
      </trkpt>
      <trkpt lat="59.9552774" lon="17.7199419">
        <ele>91.4625</ele>
        <time>2014-07-03T07:49:34Z</time>
      </trkpt>
      <trkpt lat="59.9552988" lon="17.7199161">
        <ele>92.9045</ele>
        <time>2014-07-03T07:49:35Z</time>
      </trkpt>
      <trkpt lat="59.9553159" lon="17.7198937">
        <ele>94.8271</ele>
        <time>2014-07-03T07:49:36Z</time>
      </trkpt>
      <trkpt lat="59.9553351" lon="17.7198796">
        <ele>94.3466</ele>
        <time>2014-07-03T07:49:37Z</time>
      </trkpt>
      <trkpt lat="59.9553533" lon="17.7198616">
        <ele>94.8271</ele>
        <time>2014-07-03T07:49:38Z</time>
      </trkpt>
      <trkpt lat="59.9553717" lon="17.7198482">
        <ele>94.8271</ele>
        <time>2014-07-03T07:49:39Z</time>
      </trkpt>
      <trkpt lat="59.9553885" lon="17.7198339">
        <ele>95.7885</ele>
        <time>2014-07-03T07:49:40Z</time>
      </trkpt>
      <trkpt lat="59.955406" lon="17.7198251">
        <ele>95.7885</ele>
        <time>2014-07-03T07:49:41Z</time>
      </trkpt>
      <trkpt lat="59.9554263" lon="17.7198057">
        <ele>97.7112</ele>
        <time>2014-07-03T07:49:42Z</time>
      </trkpt>
      <trkpt lat="59.955454" lon="17.719793">
        <ele>95.7885</ele>
        <time>2014-07-03T07:49:43Z</time>
      </trkpt>
      <trkpt lat="59.9554734" lon="17.7197809">
        <ele>94.8271</ele>
        <time>2014-07-03T07:49:44Z</time>
      </trkpt>
      <trkpt lat="59.9554914" lon="17.7197756">
        <ele>94.8271</ele>
        <time>2014-07-03T07:49:45Z</time>
      </trkpt>
      <trkpt lat="59.9555117" lon="17.7197658">
        <ele>95.3077</ele>
        <time>2014-07-03T07:49:46Z</time>
      </trkpt>
      <trkpt lat="59.9555272" lon="17.719733">
        <ele>96.2693</ele>
        <time>2014-07-03T07:49:47Z</time>
      </trkpt>
      <trkpt lat="59.9555396" lon="17.7197049">
        <ele>97.2305</ele>
        <time>2014-07-03T07:49:48Z</time>
      </trkpt>
      <trkpt lat="59.955556" lon="17.7196792">
        <ele>97.7112</ele>
        <time>2014-07-03T07:49:49Z</time>
      </trkpt>
      <trkpt lat="59.9555803" lon="17.7196514">
        <ele>97.2305</ele>
        <time>2014-07-03T07:49:50Z</time>
      </trkpt>
      <trkpt lat="59.9556054" lon="17.7196288">
        <ele>97.2305</ele>
        <time>2014-07-03T07:49:51Z</time>
      </trkpt>
      <trkpt lat="59.9556329" lon="17.7196058">
        <ele>96.7499</ele>
        <time>2014-07-03T07:49:52Z</time>
      </trkpt>
      <trkpt lat="59.9556622" lon="17.7195773">
        <ele>97.2305</ele>
        <time>2014-07-03T07:49:53Z</time>
      </trkpt>
      <trkpt lat="59.9556876" lon="17.7195565">
        <ele>96.7499</ele>
        <time>2014-07-03T07:49:54Z</time>
      </trkpt>
      <trkpt lat="59.9557084" lon="17.71954">
        <ele>96.2693</ele>
        <time>2014-07-03T07:49:55Z</time>
      </trkpt>
      <trkpt lat="59.9557276" lon="17.7195224">
        <ele>95.7885</ele>
        <time>2014-07-03T07:49:56Z</time>
      </trkpt>
      <trkpt lat="59.9557446" lon="17.7194983">
        <ele>97.2305</ele>
        <time>2014-07-03T07:49:57Z</time>
      </trkpt>
      <trkpt lat="59.9557649" lon="17.7194765">
        <ele>97.2305</ele>
        <time>2014-07-03T07:49:58Z</time>
      </trkpt>
      <trkpt lat="59.9557929" lon="17.7194534">
        <ele>95.3077</ele>
        <time>2014-07-03T07:49:59Z</time>
      </trkpt>
      <trkpt lat="59.9558181" lon="17.7194305">
        <ele>94.8271</ele>
        <time>2014-07-03T07:50:00Z</time>
      </trkpt>
      <trkpt lat="59.9558409" lon="17.7194082">
        <ele>93.8658</ele>
        <time>2014-07-03T07:50:01Z</time>
      </trkpt>
      <trkpt lat="59.9558653" lon="17.7193827">
        <ele>91.9432</ele>
        <time>2014-07-03T07:50:02Z</time>
      </trkpt>
      <trkpt lat="59.9558887" lon="17.7193568">
        <ele>91.9432</ele>
        <time>2014-07-03T07:50:03Z</time>
      </trkpt>
      <trkpt lat="59.955911" lon="17.7193338">
        <ele>90.5013</ele>
        <time>2014-07-03T07:50:04Z</time>
      </trkpt>
      <trkpt lat="59.9559334" lon="17.7193108">
        <ele>89.0593</ele>
        <time>2014-07-03T07:50:05Z</time>
      </trkpt>
      <trkpt lat="59.9559551" lon="17.7192881">
        <ele>87.1366</ele>
        <time>2014-07-03T07:50:06Z</time>
      </trkpt>
      <trkpt lat="59.9559768" lon="17.7192528">
        <ele>84.7334</ele>
        <time>2014-07-03T07:50:07Z</time>
      </trkpt>
      <trkpt lat="59.9559959" lon="17.7192219">
        <ele>82.3301</ele>
        <time>2014-07-03T07:50:08Z</time>
      </trkpt>
      <trkpt lat="59.9560213" lon="17.7191907">
        <ele>80.8882</ele>
        <time>2014-07-03T07:50:09Z</time>
      </trkpt>
      <trkpt lat="59.9560481" lon="17.7191597">
        <ele>78.004</ele>
        <time>2014-07-03T07:50:10Z</time>
      </trkpt>
      <trkpt lat="59.9560732" lon="17.7191238">
        <ele>75.6008</ele>
        <time>2014-07-03T07:50:11Z</time>
      </trkpt>
      <trkpt lat="59.9560942" lon="17.7190834">
        <ele>74.1588</ele>
        <time>2014-07-03T07:50:12Z</time>
      </trkpt>
      <trkpt lat="59.9561095" lon="17.7190426">
        <ele>73.1976</ele>
        <time>2014-07-03T07:50:13Z</time>
      </trkpt>
      <trkpt lat="59.9561237" lon="17.7190051">
        <ele>72.2362</ele>
        <time>2014-07-03T07:50:14Z</time>
      </trkpt>
      <trkpt lat="59.9561379" lon="17.7189694">
        <ele>71.7555</ele>
        <time>2014-07-03T07:50:15Z</time>
      </trkpt>
      <trkpt lat="59.9561463" lon="17.7189333">
        <ele>71.7555</ele>
        <time>2014-07-03T07:50:16Z</time>
      </trkpt>
      <trkpt lat="59.9561564" lon="17.7188941">
        <ele>71.2749</ele>
        <time>2014-07-03T07:50:17Z</time>
      </trkpt>
      <trkpt lat="59.9561636" lon="17.7188515">
        <ele>70.3135</ele>
        <time>2014-07-03T07:50:18Z</time>
      </trkpt>
      <trkpt lat="59.9561695" lon="17.7188043">
        <ele>68.8716</ele>
        <time>2014-07-03T07:50:19Z</time>
      </trkpt>
      <trkpt lat="59.9561716" lon="17.7187578">
        <ele>67.4297</ele>
        <time>2014-07-03T07:50:20Z</time>
      </trkpt>
      <trkpt lat="59.9561719" lon="17.7187043">
        <ele>66.949</ele>
        <time>2014-07-03T07:50:21Z</time>
      </trkpt>
      <trkpt lat="59.956169" lon="17.7186446">
        <ele>66.949</ele>
        <time>2014-07-03T07:50:22Z</time>
      </trkpt>
      <trkpt lat="59.9561745" lon="17.7185954">
        <ele>65.0264</ele>
        <time>2014-07-03T07:50:23Z</time>
      </trkpt>
      <trkpt lat="59.9561712" lon="17.7185531">
        <ele>64.5457</ele>
        <time>2014-07-03T07:50:24Z</time>
      </trkpt>
      <trkpt lat="59.9561622" lon="17.7185091">
        <ele>64.0651</ele>
        <time>2014-07-03T07:50:25Z</time>
      </trkpt>
      <trkpt lat="59.9561561" lon="17.7184619">
        <ele>62.6229</ele>
        <time>2014-07-03T07:50:26Z</time>
      </trkpt>
      <trkpt lat="59.9561519" lon="17.7184138">
        <ele>61.181</ele>
        <time>2014-07-03T07:50:27Z</time>
      </trkpt>
      <trkpt lat="59.9561457" lon="17.7183832">
        <ele>58.7777</ele>
        <time>2014-07-03T07:50:28Z</time>
      </trkpt>
      <trkpt lat="59.9561327" lon="17.7183496">
        <ele>58.7777</ele>
        <time>2014-07-03T07:50:29Z</time>
      </trkpt>
      <trkpt lat="59.9561162" lon="17.7183089">
        <ele>59.2584</ele>
        <time>2014-07-03T07:50:30Z</time>
      </trkpt>
      <trkpt lat="59.9561002" lon="17.718268">
        <ele>58.7777</ele>
        <time>2014-07-03T07:50:31Z</time>
      </trkpt>
      <trkpt lat="59.956083" lon="17.7182278">
        <ele>58.2971</ele>
        <time>2014-07-03T07:50:32Z</time>
      </trkpt>
      <trkpt lat="59.9560634" lon="17.7181859">
        <ele>59.2584</ele>
        <time>2014-07-03T07:50:33Z</time>
      </trkpt>
      <trkpt lat="59.9560436" lon="17.7181444">
        <ele>58.7777</ele>
        <time>2014-07-03T07:50:34Z</time>
      </trkpt>
      <trkpt lat="59.9560209" lon="17.7181066">
        <ele>59.2584</ele>
        <time>2014-07-03T07:50:35Z</time>
      </trkpt>
      <trkpt lat="59.9559982" lon="17.7180645">
        <ele>60.2197</ele>
        <time>2014-07-03T07:50:36Z</time>
      </trkpt>
      <trkpt lat="59.9559749" lon="17.718019">
        <ele>61.181</ele>
        <time>2014-07-03T07:50:37Z</time>
      </trkpt>
      <trkpt lat="59.9559483" lon="17.717982">
        <ele>61.181</ele>
        <time>2014-07-03T07:50:38Z</time>
      </trkpt>
      <trkpt lat="59.9559194" lon="17.7179411">
        <ele>61.181</ele>
        <time>2014-07-03T07:50:39Z</time>
      </trkpt>
      <trkpt lat="59.9558965" lon="17.7178983">
        <ele>61.181</ele>
        <time>2014-07-03T07:50:40Z</time>
      </trkpt>
      <trkpt lat="59.9558783" lon="17.717858">
        <ele>61.181</ele>
        <time>2014-07-03T07:50:41Z</time>
      </trkpt>
      <trkpt lat="59.9558638" lon="17.7178124">
        <ele>61.181</ele>
        <time>2014-07-03T07:50:42Z</time>
      </trkpt>
      <trkpt lat="59.9558504" lon="17.7177733">
        <ele>61.181</ele>
        <time>2014-07-03T07:50:43Z</time>
      </trkpt>
      <trkpt lat="59.955834" lon="17.7177299">
        <ele>61.181</ele>
        <time>2014-07-03T07:50:44Z</time>
      </trkpt>
      <trkpt lat="59.9558178" lon="17.7176786">
        <ele>61.181</ele>
        <time>2014-07-03T07:50:45Z</time>
      </trkpt>
      <trkpt lat="59.9558007" lon="17.7176316">
        <ele>61.6617</ele>
        <time>2014-07-03T07:50:46Z</time>
      </trkpt>
      <trkpt lat="59.9557898" lon="17.7175861">
        <ele>62.1423</ele>
        <time>2014-07-03T07:50:47Z</time>
      </trkpt>
      <trkpt lat="59.9557782" lon="17.7175527">
        <ele>62.1423</ele>
        <time>2014-07-03T07:50:48Z</time>
      </trkpt>
      <trkpt lat="59.9557627" lon="17.7175242">
        <ele>61.6617</ele>
        <time>2014-07-03T07:50:49Z</time>
      </trkpt>
      <trkpt lat="59.9557447" lon="17.7174863">
        <ele>62.6229</ele>
        <time>2014-07-03T07:50:50Z</time>
      </trkpt>
      <trkpt lat="59.9557282" lon="17.7174425">
        <ele>62.6229</ele>
        <time>2014-07-03T07:50:51Z</time>
      </trkpt>
      <trkpt lat="59.9557062" lon="17.7174055">
        <ele>63.1036</ele>
        <time>2014-07-03T07:50:52Z</time>
      </trkpt>
      <trkpt lat="59.9556914" lon="17.717372">
        <ele>62.6229</ele>
        <time>2014-07-03T07:50:53Z</time>
      </trkpt>
      <trkpt lat="59.9556791" lon="17.7173299">
        <ele>62.6229</ele>
        <time>2014-07-03T07:50:54Z</time>
      </trkpt>
      <trkpt lat="59.9556622" lon="17.7172933">
        <ele>63.1036</ele>
        <time>2014-07-03T07:50:55Z</time>
      </trkpt>
      <trkpt lat="59.9556448" lon="17.7172566">
        <ele>63.1036</ele>
        <time>2014-07-03T07:50:56Z</time>
      </trkpt>
      <trkpt lat="59.9556276" lon="17.7172118">
        <ele>63.5844</ele>
        <time>2014-07-03T07:50:57Z</time>
      </trkpt>
      <trkpt lat="59.9556121" lon="17.7171745">
        <ele>63.5844</ele>
        <time>2014-07-03T07:50:58Z</time>
      </trkpt>
      <trkpt lat="59.9556059" lon="17.7171441">
        <ele>61.6617</ele>
        <time>2014-07-03T07:50:59Z</time>
      </trkpt>
      <trkpt lat="59.9555949" lon="17.7171136">
        <ele>62.1423</ele>
        <time>2014-07-03T07:51:00Z</time>
      </trkpt>
      <trkpt lat="59.9555895" lon="17.7170743">
        <ele>61.6617</ele>
        <time>2014-07-03T07:51:01Z</time>
      </trkpt>
      <trkpt lat="59.9555884" lon="17.7170333">
        <ele>60.7003</ele>
        <time>2014-07-03T07:51:02Z</time>
      </trkpt>
      <trkpt lat="59.9555847" lon="17.716998">
        <ele>60.7003</ele>
        <time>2014-07-03T07:51:03Z</time>
      </trkpt>
      <trkpt lat="59.9555773" lon="17.7169633">
        <ele>60.7003</ele>
        <time>2014-07-03T07:51:04Z</time>
      </trkpt>
      <trkpt lat="59.955566" lon="17.7169281">
        <ele>60.7003</ele>
        <time>2014-07-03T07:51:05Z</time>
      </trkpt>
      <trkpt lat="59.9555526" lon="17.7168861">
        <ele>60.7003</ele>
        <time>2014-07-03T07:51:06Z</time>
      </trkpt>
      <trkpt lat="59.9555443" lon="17.7168402">
        <ele>60.7003</ele>
        <time>2014-07-03T07:51:07Z</time>
      </trkpt>
      <trkpt lat="59.9555394" lon="17.7167974">
        <ele>60.7003</ele>
        <time>2014-07-03T07:51:08Z</time>
      </trkpt>
      <trkpt lat="59.9555324" lon="17.7167541">
        <ele>61.6617</ele>
        <time>2014-07-03T07:51:09Z</time>
      </trkpt>
      <trkpt lat="59.9555278" lon="17.716706">
        <ele>62.1423</ele>
        <time>2014-07-03T07:51:10Z</time>
      </trkpt>
      <trkpt lat="59.9555203" lon="17.7166537">
        <ele>62.1423</ele>
        <time>2014-07-03T07:51:11Z</time>
      </trkpt>
      <trkpt lat="59.9555148" lon="17.7166036">
        <ele>61.6617</ele>
        <time>2014-07-03T07:51:12Z</time>
      </trkpt>
      <trkpt lat="59.9555095" lon="17.7165582">
        <ele>61.6617</ele>
        <time>2014-07-03T07:51:13Z</time>
      </trkpt>
      <trkpt lat="59.9555113" lon="17.7165162">
        <ele>60.2197</ele>
        <time>2014-07-03T07:51:14Z</time>
      </trkpt>
      <trkpt lat="59.9555135" lon="17.7164702">
        <ele>59.7391</ele>
        <time>2014-07-03T07:51:15Z</time>
      </trkpt>
      <trkpt lat="59.9555166" lon="17.7164263">
        <ele>58.7777</ele>
        <time>2014-07-03T07:51:16Z</time>
      </trkpt>
      <trkpt lat="59.9555132" lon="17.7163842">
        <ele>58.7777</ele>
        <time>2014-07-03T07:51:17Z</time>
      </trkpt>
      <trkpt lat="59.955507" lon="17.7163443">
        <ele>58.2971</ele>
        <time>2014-07-03T07:51:18Z</time>
      </trkpt>
      <trkpt lat="59.9555012" lon="17.7162993">
        <ele>59.2584</ele>
        <time>2014-07-03T07:51:19Z</time>
      </trkpt>
      <trkpt lat="59.9554998" lon="17.716254">
        <ele>59.2584</ele>
        <time>2014-07-03T07:51:20Z</time>
      </trkpt>
      <trkpt lat="59.9555011" lon="17.7162108">
        <ele>59.7391</ele>
        <time>2014-07-03T07:51:21Z</time>
      </trkpt>
      <trkpt lat="59.9555002" lon="17.7161687">
        <ele>59.7391</ele>
        <time>2014-07-03T07:51:22Z</time>
      </trkpt>
      <trkpt lat="59.9554977" lon="17.7161276">
        <ele>60.2197</ele>
        <time>2014-07-03T07:51:23Z</time>
      </trkpt>
      <trkpt lat="59.9554935" lon="17.7160863">
        <ele>60.2197</ele>
        <time>2014-07-03T07:51:24Z</time>
      </trkpt>
      <trkpt lat="59.9554904" lon="17.7160413">
        <ele>58.7777</ele>
        <time>2014-07-03T07:51:25Z</time>
      </trkpt>
      <trkpt lat="59.9554864" lon="17.7159956">
        <ele>58.2971</ele>
        <time>2014-07-03T07:51:26Z</time>
      </trkpt>
      <trkpt lat="59.9554822" lon="17.7159492">
        <ele>58.7777</ele>
        <time>2014-07-03T07:51:27Z</time>
      </trkpt>
      <trkpt lat="59.9554843" lon="17.715904">
        <ele>56.8551</ele>
        <time>2014-07-03T07:51:28Z</time>
      </trkpt>
      <trkpt lat="59.9554847" lon="17.7158587">
        <ele>55.4131</ele>
        <time>2014-07-03T07:51:29Z</time>
      </trkpt>
      <trkpt lat="59.9554809" lon="17.7158126">
        <ele>55.4131</ele>
        <time>2014-07-03T07:51:30Z</time>
      </trkpt>
      <trkpt lat="59.9554696" lon="17.7157667">
        <ele>55.4131</ele>
        <time>2014-07-03T07:51:31Z</time>
      </trkpt>
      <trkpt lat="59.9554636" lon="17.7157228">
        <ele>54.4518</ele>
        <time>2014-07-03T07:51:32Z</time>
      </trkpt>
      <trkpt lat="59.9554581" lon="17.7156735">
        <ele>53.9712</ele>
        <time>2014-07-03T07:51:33Z</time>
      </trkpt>
      <trkpt lat="59.9554494" lon="17.7156218">
        <ele>53.9712</ele>
        <time>2014-07-03T07:51:34Z</time>
      </trkpt>
      <trkpt lat="59.9554417" lon="17.71557">
        <ele>54.4518</ele>
        <time>2014-07-03T07:51:35Z</time>
      </trkpt>
      <trkpt lat="59.9554363" lon="17.7155168">
        <ele>54.4518</ele>
        <time>2014-07-03T07:51:36Z</time>
      </trkpt>
      <trkpt lat="59.9554329" lon="17.7154699">
        <ele>54.4518</ele>
        <time>2014-07-03T07:51:37Z</time>
      </trkpt>
      <trkpt lat="59.9554283" lon="17.7154264">
        <ele>54.4518</ele>
        <time>2014-07-03T07:51:38Z</time>
      </trkpt>
      <trkpt lat="59.9554192" lon="17.7153759">
        <ele>54.4518</ele>
        <time>2014-07-03T07:51:39Z</time>
      </trkpt>
      <trkpt lat="59.9554154" lon="17.7153267">
        <ele>53.9712</ele>
        <time>2014-07-03T07:51:40Z</time>
      </trkpt>
      <trkpt lat="59.9554153" lon="17.715277">
        <ele>53.4905</ele>
        <time>2014-07-03T07:51:41Z</time>
      </trkpt>
      <trkpt lat="59.9554082" lon="17.7152254">
        <ele>53.0098</ele>
        <time>2014-07-03T07:51:42Z</time>
      </trkpt>
      <trkpt lat="59.9553968" lon="17.7151756">
        <ele>53.4905</ele>
        <time>2014-07-03T07:51:43Z</time>
      </trkpt>
      <trkpt lat="59.9553923" lon="17.7151247">
        <ele>53.0098</ele>
        <time>2014-07-03T07:51:44Z</time>
      </trkpt>
      <trkpt lat="59.9553847" lon="17.715069">
        <ele>53.4905</ele>
        <time>2014-07-03T07:51:45Z</time>
      </trkpt>
      <trkpt lat="59.9553759" lon="17.715023">
        <ele>53.4905</ele>
        <time>2014-07-03T07:51:46Z</time>
      </trkpt>
      <trkpt lat="59.9553641" lon="17.714983">
        <ele>53.9712</ele>
        <time>2014-07-03T07:51:47Z</time>
      </trkpt>
      <trkpt lat="59.9553522" lon="17.7149375">
        <ele>53.9712</ele>
        <time>2014-07-03T07:51:48Z</time>
      </trkpt>
      <trkpt lat="59.9553433" lon="17.7148906">
        <ele>53.9712</ele>
        <time>2014-07-03T07:51:49Z</time>
      </trkpt>
      <trkpt lat="59.9553312" lon="17.7148467">
        <ele>53.9712</ele>
        <time>2014-07-03T07:51:50Z</time>
      </trkpt>
      <trkpt lat="59.9553164" lon="17.7148043">
        <ele>54.4518</ele>
        <time>2014-07-03T07:51:51Z</time>
      </trkpt>
      <trkpt lat="59.9553029" lon="17.7147613">
        <ele>54.4518</ele>
        <time>2014-07-03T07:51:52Z</time>
      </trkpt>
      <trkpt lat="59.9552903" lon="17.714713">
        <ele>54.4518</ele>
        <time>2014-07-03T07:51:53Z</time>
      </trkpt>
      <trkpt lat="59.9552794" lon="17.7146588">
        <ele>53.9712</ele>
        <time>2014-07-03T07:51:54Z</time>
      </trkpt>
      <trkpt lat="59.9552699" lon="17.7146095">
        <ele>53.4905</ele>
        <time>2014-07-03T07:51:55Z</time>
      </trkpt>
      <trkpt lat="59.9552609" lon="17.714565">
        <ele>53.9712</ele>
        <time>2014-07-03T07:51:56Z</time>
      </trkpt>
      <trkpt lat="59.9552546" lon="17.7145161">
        <ele>53.9712</ele>
        <time>2014-07-03T07:51:57Z</time>
      </trkpt>
      <trkpt lat="59.9552463" lon="17.7144679">
        <ele>53.9712</ele>
        <time>2014-07-03T07:51:58Z</time>
      </trkpt>
      <trkpt lat="59.9552396" lon="17.7144292">
        <ele>53.9712</ele>
        <time>2014-07-03T07:51:59Z</time>
      </trkpt>
      <trkpt lat="59.9552308" lon="17.7143866">
        <ele>54.9324</ele>
        <time>2014-07-03T07:52:00Z</time>
      </trkpt>
      <trkpt lat="59.9552268" lon="17.7143435">
        <ele>54.4518</ele>
        <time>2014-07-03T07:52:01Z</time>
      </trkpt>
      <trkpt lat="59.9552242" lon="17.7143006">
        <ele>53.9712</ele>
        <time>2014-07-03T07:52:02Z</time>
      </trkpt>
      <trkpt lat="59.9552159" lon="17.714257">
        <ele>53.4905</ele>
        <time>2014-07-03T07:52:03Z</time>
      </trkpt>
      <trkpt lat="59.9552027" lon="17.7142118">
        <ele>53.9712</ele>
        <time>2014-07-03T07:52:04Z</time>
      </trkpt>
      <trkpt lat="59.9551921" lon="17.7141719">
        <ele>53.4905</ele>
        <time>2014-07-03T07:52:05Z</time>
      </trkpt>
      <trkpt lat="59.9551794" lon="17.7141392">
        <ele>53.4905</ele>
        <time>2014-07-03T07:52:06Z</time>
      </trkpt>
      <trkpt lat="59.9551606" lon="17.7141144">
        <ele>53.4905</ele>
        <time>2014-07-03T07:52:07Z</time>
      </trkpt>
      <trkpt lat="59.9551382" lon="17.714106">
        <ele>53.4905</ele>
        <time>2014-07-03T07:52:08Z</time>
      </trkpt>
      <trkpt lat="59.9551169" lon="17.7141099">
        <ele>53.0098</ele>
        <time>2014-07-03T07:52:09Z</time>
      </trkpt>
      <trkpt lat="59.9551022" lon="17.7141387">
        <ele>52.5292</ele>
        <time>2014-07-03T07:52:10Z</time>
      </trkpt>
      <trkpt lat="59.9551035" lon="17.7141859">
        <ele>50.6066</ele>
        <time>2014-07-03T07:52:11Z</time>
      </trkpt>
      <trkpt lat="59.9551" lon="17.7142298">
        <ele>51.0872</ele>
        <time>2014-07-03T07:52:12Z</time>
      </trkpt>
      <trkpt lat="59.9550891" lon="17.7142686">
        <ele>51.5679</ele>
        <time>2014-07-03T07:52:13Z</time>
      </trkpt>
      <trkpt lat="59.9550725" lon="17.714304">
        <ele>52.0486</ele>
        <time>2014-07-03T07:52:14Z</time>
      </trkpt>
      <trkpt lat="59.9550537" lon="17.7143344">
        <ele>52.0486</ele>
        <time>2014-07-03T07:52:15Z</time>
      </trkpt>
      <trkpt lat="59.9550347" lon="17.714357">
        <ele>52.5292</ele>
        <time>2014-07-03T07:52:16Z</time>
      </trkpt>
      <trkpt lat="59.9550165" lon="17.7143892">
        <ele>52.5292</ele>
        <time>2014-07-03T07:52:17Z</time>
      </trkpt>
      <trkpt lat="59.9549964" lon="17.7144172">
        <ele>53.0098</ele>
        <time>2014-07-03T07:52:18Z</time>
      </trkpt>
      <trkpt lat="59.9549761" lon="17.7144483">
        <ele>53.0098</ele>
        <time>2014-07-03T07:52:19Z</time>
      </trkpt>
      <trkpt lat="59.9549563" lon="17.7144753">
        <ele>53.4905</ele>
        <time>2014-07-03T07:52:20Z</time>
      </trkpt>
      <trkpt lat="59.9549367" lon="17.7145026">
        <ele>53.4905</ele>
        <time>2014-07-03T07:52:21Z</time>
      </trkpt>
      <trkpt lat="59.9549197" lon="17.7145359">
        <ele>53.0098</ele>
        <time>2014-07-03T07:52:22Z</time>
      </trkpt>
      <trkpt lat="59.9548992" lon="17.7145727">
        <ele>53.0098</ele>
        <time>2014-07-03T07:52:23Z</time>
      </trkpt>
      <trkpt lat="59.9548771" lon="17.714599">
        <ele>52.0486</ele>
        <time>2014-07-03T07:52:24Z</time>
      </trkpt>
      <trkpt lat="59.9548574" lon="17.7146292">
        <ele>51.5679</ele>
        <time>2014-07-03T07:52:25Z</time>
      </trkpt>
      <trkpt lat="59.9548396" lon="17.7146592">
        <ele>50.6066</ele>
        <time>2014-07-03T07:52:26Z</time>
      </trkpt>
      <trkpt lat="59.9548201" lon="17.7146913">
        <ele>50.6066</ele>
        <time>2014-07-03T07:52:27Z</time>
      </trkpt>
      <trkpt lat="59.9547947" lon="17.7147152">
        <ele>51.0872</ele>
        <time>2014-07-03T07:52:28Z</time>
      </trkpt>
      <trkpt lat="59.9547653" lon="17.714731">
        <ele>51.5679</ele>
        <time>2014-07-03T07:52:29Z</time>
      </trkpt>
      <trkpt lat="59.9547407" lon="17.7147469">
        <ele>51.0872</ele>
        <time>2014-07-03T07:52:30Z</time>
      </trkpt>
      <trkpt lat="59.9547179" lon="17.7147586">
        <ele>50.6066</ele>
        <time>2014-07-03T07:52:31Z</time>
      </trkpt>
      <trkpt lat="59.9546974" lon="17.7147624">
        <ele>50.126</ele>
        <time>2014-07-03T07:52:32Z</time>
      </trkpt>
      <trkpt lat="59.9546796" lon="17.714767">
        <ele>49.1646</ele>
        <time>2014-07-03T07:52:33Z</time>
      </trkpt>
      <trkpt lat="59.9546558" lon="17.71477">
        <ele>48.684</ele>
        <time>2014-07-03T07:52:34Z</time>
      </trkpt>
      <trkpt lat="59.9546305" lon="17.7147738">
        <ele>48.2034</ele>
        <time>2014-07-03T07:52:35Z</time>
      </trkpt>
      <trkpt lat="59.954604" lon="17.7147921">
        <ele>47.7225</ele>
        <time>2014-07-03T07:52:36Z</time>
      </trkpt>
      <trkpt lat="59.9545756" lon="17.7148036">
        <ele>47.7225</ele>
        <time>2014-07-03T07:52:37Z</time>
      </trkpt>
      <trkpt lat="59.9545481" lon="17.7148052">
        <ele>47.2418</ele>
        <time>2014-07-03T07:52:38Z</time>
      </trkpt>
      <trkpt lat="59.9545229" lon="17.7148089">
        <ele>47.2418</ele>
        <time>2014-07-03T07:52:39Z</time>
      </trkpt>
      <trkpt lat="59.9544977" lon="17.714811">
        <ele>47.2418</ele>
        <time>2014-07-03T07:52:40Z</time>
      </trkpt>
      <trkpt lat="59.9544703" lon="17.7148111">
        <ele>47.2418</ele>
        <time>2014-07-03T07:52:41Z</time>
      </trkpt>
      <trkpt lat="59.9544438" lon="17.7148136">
        <ele>46.7612</ele>
        <time>2014-07-03T07:52:42Z</time>
      </trkpt>
      <trkpt lat="59.9544212" lon="17.7148119">
        <ele>46.7612</ele>
        <time>2014-07-03T07:52:43Z</time>
      </trkpt>
      <trkpt lat="59.9543951" lon="17.7148155">
        <ele>47.2418</ele>
        <time>2014-07-03T07:52:44Z</time>
      </trkpt>
      <trkpt lat="59.9543706" lon="17.7148126">
        <ele>47.7225</ele>
        <time>2014-07-03T07:52:45Z</time>
      </trkpt>
      <trkpt lat="59.9543507" lon="17.7148116">
        <ele>46.7612</ele>
        <time>2014-07-03T07:52:46Z</time>
      </trkpt>
      <trkpt lat="59.9543306" lon="17.7148098">
        <ele>47.2418</ele>
        <time>2014-07-03T07:52:47Z</time>
      </trkpt>
      <trkpt lat="59.9543134" lon="17.7148005">
        <ele>46.7612</ele>
        <time>2014-07-03T07:52:48Z</time>
      </trkpt>
      <trkpt lat="59.9542897" lon="17.714796">
        <ele>47.2418</ele>
        <time>2014-07-03T07:52:49Z</time>
      </trkpt>
      <trkpt lat="59.9542706" lon="17.7147959">
        <ele>46.7612</ele>
        <time>2014-07-03T07:52:50Z</time>
      </trkpt>
      <trkpt lat="59.9542445" lon="17.714811">
        <ele>47.2418</ele>
        <time>2014-07-03T07:52:51Z</time>
      </trkpt>
      <trkpt lat="59.9542228" lon="17.7148329">
        <ele>47.2418</ele>
        <time>2014-07-03T07:52:52Z</time>
      </trkpt>
      <trkpt lat="59.9541999" lon="17.7148447">
        <ele>47.7225</ele>
        <time>2014-07-03T07:52:53Z</time>
      </trkpt>
      <trkpt lat="59.9541747" lon="17.7148515">
        <ele>47.7225</ele>
        <time>2014-07-03T07:52:54Z</time>
      </trkpt>
      <trkpt lat="59.9541487" lon="17.714856">
        <ele>48.2034</ele>
        <time>2014-07-03T07:52:55Z</time>
      </trkpt>
      <trkpt lat="59.9541208" lon="17.7148577">
        <ele>48.684</ele>
        <time>2014-07-03T07:52:56Z</time>
      </trkpt>
      <trkpt lat="59.9540949" lon="17.7148676">
        <ele>49.1646</ele>
        <time>2014-07-03T07:52:57Z</time>
      </trkpt>
      <trkpt lat="59.9540703" lon="17.714869">
        <ele>49.6453</ele>
        <time>2014-07-03T07:52:58Z</time>
      </trkpt>
      <trkpt lat="59.9540426" lon="17.7148665">
        <ele>50.6066</ele>
        <time>2014-07-03T07:52:59Z</time>
      </trkpt>
      <trkpt lat="59.9540182" lon="17.7148701">
        <ele>51.0872</ele>
        <time>2014-07-03T07:53:00Z</time>
      </trkpt>
      <trkpt lat="59.9540016" lon="17.7148685">
        <ele>50.6066</ele>
        <time>2014-07-03T07:53:01Z</time>
      </trkpt>
      <trkpt lat="59.9539862" lon="17.7148657">
        <ele>50.6066</ele>
        <time>2014-07-03T07:53:02Z</time>
      </trkpt>
      <trkpt lat="59.9539628" lon="17.7148662">
        <ele>50.6066</ele>
        <time>2014-07-03T07:53:03Z</time>
      </trkpt>
      <trkpt lat="59.9539395" lon="17.7148696">
        <ele>51.0872</ele>
        <time>2014-07-03T07:53:04Z</time>
      </trkpt>
      <trkpt lat="59.9539172" lon="17.7148833">
        <ele>51.5679</ele>
        <time>2014-07-03T07:53:05Z</time>
      </trkpt>
      <trkpt lat="59.9538939" lon="17.7148929">
        <ele>52.5292</ele>
        <time>2014-07-03T07:53:06Z</time>
      </trkpt>
      <trkpt lat="59.953868" lon="17.7149071">
        <ele>53.4905</ele>
        <time>2014-07-03T07:53:07Z</time>
      </trkpt>
      <trkpt lat="59.9538386" lon="17.7149182">
        <ele>54.4518</ele>
        <time>2014-07-03T07:53:08Z</time>
      </trkpt>
      <trkpt lat="59.9538105" lon="17.7149222">
        <ele>54.4518</ele>
        <time>2014-07-03T07:53:09Z</time>
      </trkpt>
      <trkpt lat="59.9537839" lon="17.7149263">
        <ele>54.9324</ele>
        <time>2014-07-03T07:53:10Z</time>
      </trkpt>
      <trkpt lat="59.9537621" lon="17.7149307">
        <ele>54.4518</ele>
        <time>2014-07-03T07:53:11Z</time>
      </trkpt>
      <trkpt lat="59.9537383" lon="17.7149442">
        <ele>54.4518</ele>
        <time>2014-07-03T07:53:12Z</time>
      </trkpt>
      <trkpt lat="59.953714" lon="17.7149592">
        <ele>54.9324</ele>
        <time>2014-07-03T07:53:13Z</time>
      </trkpt>
      <trkpt lat="59.953697" lon="17.7149698">
        <ele>54.4518</ele>
        <time>2014-07-03T07:53:14Z</time>
      </trkpt>
      <trkpt lat="59.9536818" lon="17.7149814">
        <ele>53.4905</ele>
        <time>2014-07-03T07:53:15Z</time>
      </trkpt>
      <trkpt lat="59.9536608" lon="17.7149988">
        <ele>53.9712</ele>
        <time>2014-07-03T07:53:16Z</time>
      </trkpt>
      <trkpt lat="59.9536406" lon="17.715011">
        <ele>53.4905</ele>
        <time>2014-07-03T07:53:17Z</time>
      </trkpt>
      <trkpt lat="59.9536226" lon="17.7150258">
        <ele>53.4905</ele>
        <time>2014-07-03T07:53:18Z</time>
      </trkpt>
      <trkpt lat="59.9536007" lon="17.7150427">
        <ele>53.4905</ele>
        <time>2014-07-03T07:53:19Z</time>
      </trkpt>
      <trkpt lat="59.9535831" lon="17.7150602">
        <ele>52.5292</ele>
        <time>2014-07-03T07:53:20Z</time>
      </trkpt>
      <trkpt lat="59.9535593" lon="17.7150824">
        <ele>53.0098</ele>
        <time>2014-07-03T07:53:21Z</time>
      </trkpt>
      <trkpt lat="59.9535365" lon="17.7151094">
        <ele>52.5292</ele>
        <time>2014-07-03T07:53:22Z</time>
      </trkpt>
      <trkpt lat="59.9535101" lon="17.715128">
        <ele>53.9712</ele>
        <time>2014-07-03T07:53:23Z</time>
      </trkpt>
      <trkpt lat="59.9534904" lon="17.7151418">
        <ele>53.4905</ele>
        <time>2014-07-03T07:53:24Z</time>
      </trkpt>
      <trkpt lat="59.9534708" lon="17.7151575">
        <ele>53.4905</ele>
        <time>2014-07-03T07:53:25Z</time>
      </trkpt>
      <trkpt lat="59.9534539" lon="17.7151726">
        <ele>53.4905</ele>
        <time>2014-07-03T07:53:26Z</time>
      </trkpt>
      <trkpt lat="59.9534335" lon="17.7151902">
        <ele>53.4905</ele>
        <time>2014-07-03T07:53:27Z</time>
      </trkpt>
      <trkpt lat="59.9534143" lon="17.7152166">
        <ele>53.4905</ele>
        <time>2014-07-03T07:53:28Z</time>
      </trkpt>
      <trkpt lat="59.9534021" lon="17.7152468">
        <ele>52.0486</ele>
        <time>2014-07-03T07:53:29Z</time>
      </trkpt>
      <trkpt lat="59.9533843" lon="17.7152719">
        <ele>52.5292</ele>
        <time>2014-07-03T07:53:30Z</time>
      </trkpt>
      <trkpt lat="59.9533645" lon="17.7152982">
        <ele>52.5292</ele>
        <time>2014-07-03T07:53:31Z</time>
      </trkpt>
      <trkpt lat="59.9533418" lon="17.7153372">
        <ele>53.4905</ele>
        <time>2014-07-03T07:53:32Z</time>
      </trkpt>
      <trkpt lat="59.953324" lon="17.7153768">
        <ele>54.4518</ele>
        <time>2014-07-03T07:53:33Z</time>
      </trkpt>
      <trkpt lat="59.9533074" lon="17.715418">
        <ele>55.4131</ele>
        <time>2014-07-03T07:53:34Z</time>
      </trkpt>
      <trkpt lat="59.9532878" lon="17.7154523">
        <ele>55.4131</ele>
        <time>2014-07-03T07:53:35Z</time>
      </trkpt>
      <trkpt lat="59.9532717" lon="17.7154892">
        <ele>54.9324</ele>
        <time>2014-07-03T07:53:36Z</time>
      </trkpt>
      <trkpt lat="59.9532553" lon="17.7155113">
        <ele>55.8938</ele>
        <time>2014-07-03T07:53:37Z</time>
      </trkpt>
      <trkpt lat="59.953236" lon="17.7155445">
        <ele>56.3745</ele>
        <time>2014-07-03T07:53:38Z</time>
      </trkpt>
      <trkpt lat="59.9532127" lon="17.7155733">
        <ele>57.3358</ele>
        <time>2014-07-03T07:53:39Z</time>
      </trkpt>
      <trkpt lat="59.9531892" lon="17.7155959">
        <ele>58.2971</ele>
        <time>2014-07-03T07:53:40Z</time>
      </trkpt>
      <trkpt lat="59.953164" lon="17.7156211">
        <ele>60.7003</ele>
        <time>2014-07-03T07:53:41Z</time>
      </trkpt>
      <trkpt lat="59.9531475" lon="17.7156432">
        <ele>61.181</ele>
        <time>2014-07-03T07:53:42Z</time>
      </trkpt>
      <trkpt lat="59.9531268" lon="17.7156741">
        <ele>62.1423</ele>
        <time>2014-07-03T07:53:43Z</time>
      </trkpt>
      <trkpt lat="59.9531081" lon="17.715707">
        <ele>63.1036</ele>
        <time>2014-07-03T07:53:44Z</time>
      </trkpt>
      <trkpt lat="59.953092" lon="17.715742">
        <ele>63.5844</ele>
        <time>2014-07-03T07:53:45Z</time>
      </trkpt>
      <trkpt lat="59.9530787" lon="17.7157634">
        <ele>63.1036</ele>
        <time>2014-07-03T07:53:46Z</time>
      </trkpt>
      <trkpt lat="59.9530651" lon="17.7157878">
        <ele>62.6229</ele>
        <time>2014-07-03T07:53:47Z</time>
      </trkpt>
      <trkpt lat="59.9530468" lon="17.7158242">
        <ele>62.6229</ele>
        <time>2014-07-03T07:53:48Z</time>
      </trkpt>
      <trkpt lat="59.9530323" lon="17.7158622">
        <ele>62.1423</ele>
        <time>2014-07-03T07:53:49Z</time>
      </trkpt>
      <trkpt lat="59.9530193" lon="17.7158997">
        <ele>62.1423</ele>
        <time>2014-07-03T07:53:50Z</time>
      </trkpt>
      <trkpt lat="59.9530107" lon="17.7159253">
        <ele>62.1423</ele>
        <time>2014-07-03T07:53:51Z</time>
      </trkpt>
      <trkpt lat="59.9530035" lon="17.7159553">
        <ele>63.1036</ele>
        <time>2014-07-03T07:53:52Z</time>
      </trkpt>
      <trkpt lat="59.9529962" lon="17.7159882">
        <ele>64.5457</ele>
        <time>2014-07-03T07:53:53Z</time>
      </trkpt>
      <trkpt lat="59.9529915" lon="17.7160205">
        <ele>65.9877</ele>
        <time>2014-07-03T07:53:54Z</time>
      </trkpt>
      <trkpt lat="59.9529849" lon="17.7160691">
        <ele>66.4683</ele>
        <time>2014-07-03T07:53:55Z</time>
      </trkpt>
      <trkpt lat="59.9529707" lon="17.7161246">
        <ele>67.9103</ele>
        <time>2014-07-03T07:53:56Z</time>
      </trkpt>
      <trkpt lat="59.9529537" lon="17.7161801">
        <ele>68.3909</ele>
        <time>2014-07-03T07:53:57Z</time>
      </trkpt>
      <trkpt lat="59.952936" lon="17.7162281">
        <ele>69.3523</ele>
        <time>2014-07-03T07:53:58Z</time>
      </trkpt>
      <trkpt lat="59.9529334" lon="17.7162753">
        <ele>67.9103</ele>
        <time>2014-07-03T07:53:59Z</time>
      </trkpt>
      <trkpt lat="59.9529307" lon="17.7163246">
        <ele>68.3909</ele>
        <time>2014-07-03T07:54:00Z</time>
      </trkpt>
      <trkpt lat="59.9529321" lon="17.7163804">
        <ele>68.3909</ele>
        <time>2014-07-03T07:54:01Z</time>
      </trkpt>
      <trkpt lat="59.9529277" lon="17.7164312">
        <ele>69.3523</ele>
        <time>2014-07-03T07:54:02Z</time>
      </trkpt>
      <trkpt lat="59.9529185" lon="17.7164717">
        <ele>71.2749</ele>
        <time>2014-07-03T07:54:03Z</time>
      </trkpt>
      <trkpt lat="59.9529147" lon="17.7165143">
        <ele>71.2749</ele>
        <time>2014-07-03T07:54:04Z</time>
      </trkpt>
      <trkpt lat="59.9529111" lon="17.7165646">
        <ele>71.7555</ele>
        <time>2014-07-03T07:54:05Z</time>
      </trkpt>
      <trkpt lat="59.9529133" lon="17.7166234">
        <ele>71.2749</ele>
        <time>2014-07-03T07:54:06Z</time>
      </trkpt>
      <trkpt lat="59.9529102" lon="17.7166666">
        <ele>71.7555</ele>
        <time>2014-07-03T07:54:07Z</time>
      </trkpt>
      <trkpt lat="59.9529169" lon="17.7167288">
        <ele>70.3135</ele>
        <time>2014-07-03T07:54:08Z</time>
      </trkpt>
      <trkpt lat="59.9529206" lon="17.7167882">
        <ele>70.3135</ele>
        <time>2014-07-03T07:54:09Z</time>
      </trkpt>
      <trkpt lat="59.9529134" lon="17.7168326">
        <ele>71.7555</ele>
        <time>2014-07-03T07:54:10Z</time>
      </trkpt>
      <trkpt lat="59.9529153" lon="17.7168748">
        <ele>72.2362</ele>
        <time>2014-07-03T07:54:11Z</time>
      </trkpt>
      <trkpt lat="59.9529167" lon="17.7169289">
        <ele>73.6782</ele>
        <time>2014-07-03T07:54:12Z</time>
      </trkpt>
      <trkpt lat="59.9529186" lon="17.7169882">
        <ele>72.7169</ele>
        <time>2014-07-03T07:54:13Z</time>
      </trkpt>
      <trkpt lat="59.9529173" lon="17.7170413">
        <ele>73.1976</ele>
        <time>2014-07-03T07:54:14Z</time>
      </trkpt>
      <trkpt lat="59.9529113" lon="17.7170973">
        <ele>73.6782</ele>
        <time>2014-07-03T07:54:15Z</time>
      </trkpt>
      <trkpt lat="59.9529091" lon="17.717138">
        <ele>73.1976</ele>
        <time>2014-07-03T07:54:16Z</time>
      </trkpt>
      <trkpt lat="59.9529065" lon="17.7171882">
        <ele>73.1976</ele>
        <time>2014-07-03T07:54:17Z</time>
      </trkpt>
      <trkpt lat="59.9528979" lon="17.7172243">
        <ele>72.2362</ele>
        <time>2014-07-03T07:54:18Z</time>
      </trkpt>
      <trkpt lat="59.9528865" lon="17.7172704">
        <ele>71.7555</ele>
        <time>2014-07-03T07:54:19Z</time>
      </trkpt>
      <trkpt lat="59.9528737" lon="17.71732">
        <ele>70.7942</ele>
        <time>2014-07-03T07:54:20Z</time>
      </trkpt>
      <trkpt lat="59.9528738" lon="17.7173633">
        <ele>68.3909</ele>
        <time>2014-07-03T07:54:21Z</time>
      </trkpt>
      <trkpt lat="59.9528729" lon="17.7174119">
        <ele>66.4683</ele>
        <time>2014-07-03T07:54:22Z</time>
      </trkpt>
      <trkpt lat="59.9528683" lon="17.7174467">
        <ele>65.5071</ele>
        <time>2014-07-03T07:54:23Z</time>
      </trkpt>
      <trkpt lat="59.9528539" lon="17.7174751">
        <ele>64.5457</ele>
        <time>2014-07-03T07:54:24Z</time>
      </trkpt>
      <trkpt lat="59.9528387" lon="17.7175081">
        <ele>63.1036</ele>
        <time>2014-07-03T07:54:25Z</time>
      </trkpt>
      <trkpt lat="59.9528245" lon="17.7175397">
        <ele>61.6617</ele>
        <time>2014-07-03T07:54:26Z</time>
      </trkpt>
      <trkpt lat="59.9528157" lon="17.7175718">
        <ele>60.2197</ele>
        <time>2014-07-03T07:54:27Z</time>
      </trkpt>
      <trkpt lat="59.9528085" lon="17.7176035">
        <ele>58.7777</ele>
        <time>2014-07-03T07:54:28Z</time>
      </trkpt>
      <trkpt lat="59.9527935" lon="17.7176383">
        <ele>58.2971</ele>
        <time>2014-07-03T07:54:29Z</time>
      </trkpt>
      <trkpt lat="59.9527739" lon="17.7176704">
        <ele>58.7777</ele>
        <time>2014-07-03T07:54:30Z</time>
      </trkpt>
      <trkpt lat="59.952759" lon="17.7177061">
        <ele>58.2971</ele>
        <time>2014-07-03T07:54:31Z</time>
      </trkpt>
      <trkpt lat="59.9527463" lon="17.7177543">
        <ele>57.3358</ele>
        <time>2014-07-03T07:54:32Z</time>
      </trkpt>
      <trkpt lat="59.9527287" lon="17.7177912">
        <ele>57.8165</ele>
        <time>2014-07-03T07:54:33Z</time>
      </trkpt>
      <trkpt lat="59.9527118" lon="17.7178266">
        <ele>57.3358</ele>
        <time>2014-07-03T07:54:34Z</time>
      </trkpt>
      <trkpt lat="59.9526962" lon="17.7178637">
        <ele>56.8551</ele>
        <time>2014-07-03T07:54:35Z</time>
      </trkpt>
      <trkpt lat="59.9526693" lon="17.7178925">
        <ele>58.2971</ele>
        <time>2014-07-03T07:54:36Z</time>
      </trkpt>
      <trkpt lat="59.9526508" lon="17.7179207">
        <ele>57.8165</ele>
        <time>2014-07-03T07:54:37Z</time>
      </trkpt>
      <trkpt lat="59.9526305" lon="17.7179585">
        <ele>58.2971</ele>
        <time>2014-07-03T07:54:38Z</time>
      </trkpt>
      <trkpt lat="59.9526139" lon="17.717993">
        <ele>58.7777</ele>
        <time>2014-07-03T07:54:39Z</time>
      </trkpt>
      <trkpt lat="59.9525984" lon="17.7180425">
        <ele>59.2584</ele>
        <time>2014-07-03T07:54:40Z</time>
      </trkpt>
      <trkpt lat="59.9525883" lon="17.7180863">
        <ele>59.2584</ele>
        <time>2014-07-03T07:54:41Z</time>
      </trkpt>
      <trkpt lat="59.9525905" lon="17.7181406">
        <ele>57.3358</ele>
        <time>2014-07-03T07:54:42Z</time>
      </trkpt>
      <trkpt lat="59.9525948" lon="17.7181874">
        <ele>56.3745</ele>
        <time>2014-07-03T07:54:43Z</time>
      </trkpt>
      <trkpt lat="59.9525861" lon="17.7182346">
        <ele>56.8551</ele>
        <time>2014-07-03T07:54:44Z</time>
      </trkpt>
      <trkpt lat="59.9525786" lon="17.7182787">
        <ele>56.8551</ele>
        <time>2014-07-03T07:54:45Z</time>
      </trkpt>
      <trkpt lat="59.9525725" lon="17.7183241">
        <ele>56.3745</ele>
        <time>2014-07-03T07:54:46Z</time>
      </trkpt>
      <trkpt lat="59.9525617" lon="17.7183706">
        <ele>56.8551</ele>
        <time>2014-07-03T07:54:47Z</time>
      </trkpt>
      <trkpt lat="59.9525612" lon="17.7184252">
        <ele>55.4131</ele>
        <time>2014-07-03T07:54:48Z</time>
      </trkpt>
      <trkpt lat="59.9525531" lon="17.7184832">
        <ele>54.9324</ele>
        <time>2014-07-03T07:54:49Z</time>
      </trkpt>
      <trkpt lat="59.9525449" lon="17.7185311">
        <ele>53.9712</ele>
        <time>2014-07-03T07:54:50Z</time>
      </trkpt>
      <trkpt lat="59.9525466" lon="17.718585">
        <ele>52.0486</ele>
        <time>2014-07-03T07:54:51Z</time>
      </trkpt>
      <trkpt lat="59.9525404" lon="17.7186195">
        <ele>52.0486</ele>
        <time>2014-07-03T07:54:52Z</time>
      </trkpt>
      <trkpt lat="59.9525378" lon="17.7186635">
        <ele>51.0872</ele>
        <time>2014-07-03T07:54:53Z</time>
      </trkpt>
      <trkpt lat="59.9525365" lon="17.7187101">
        <ele>49.6453</ele>
        <time>2014-07-03T07:54:54Z</time>
      </trkpt>
      <trkpt lat="59.9525282" lon="17.7187681">
        <ele>49.1646</ele>
        <time>2014-07-03T07:54:55Z</time>
      </trkpt>
      <trkpt lat="59.9525124" lon="17.7188188">
        <ele>50.126</ele>
        <time>2014-07-03T07:54:56Z</time>
      </trkpt>
      <trkpt lat="59.9524989" lon="17.7188642">
        <ele>50.6066</ele>
        <time>2014-07-03T07:54:57Z</time>
      </trkpt>
      <trkpt lat="59.9524873" lon="17.7189052">
        <ele>50.6066</ele>
        <time>2014-07-03T07:54:58Z</time>
      </trkpt>
      <trkpt lat="59.9524704" lon="17.7189426">
        <ele>51.0872</ele>
        <time>2014-07-03T07:54:59Z</time>
      </trkpt>
      <trkpt lat="59.9524575" lon="17.7189721">
        <ele>52.0486</ele>
        <time>2014-07-03T07:55:00Z</time>
      </trkpt>
      <trkpt lat="59.9524459" lon="17.7190265">
        <ele>52.5292</ele>
        <time>2014-07-03T07:55:01Z</time>
      </trkpt>
      <trkpt lat="59.9524413" lon="17.7191037">
        <ele>52.0486</ele>
        <time>2014-07-03T07:55:02Z</time>
      </trkpt>
      <trkpt lat="59.9524387" lon="17.7191614">
        <ele>52.5292</ele>
        <time>2014-07-03T07:55:03Z</time>
      </trkpt>
      <trkpt lat="59.9524321" lon="17.719228">
        <ele>53.0098</ele>
        <time>2014-07-03T07:55:04Z</time>
      </trkpt>
      <trkpt lat="59.952426" lon="17.7192677">
        <ele>52.5292</ele>
        <time>2014-07-03T07:55:05Z</time>
      </trkpt>
      <trkpt lat="59.9524128" lon="17.7193092">
        <ele>53.4905</ele>
        <time>2014-07-03T07:55:06Z</time>
      </trkpt>
      <trkpt lat="59.9524046" lon="17.7193493">
        <ele>54.4518</ele>
        <time>2014-07-03T07:55:07Z</time>
      </trkpt>
      <trkpt lat="59.9524018" lon="17.7193965">
        <ele>55.8938</ele>
        <time>2014-07-03T07:55:08Z</time>
      </trkpt>
      <trkpt lat="59.9524083" lon="17.7194555">
        <ele>54.9324</ele>
        <time>2014-07-03T07:55:09Z</time>
      </trkpt>
      <trkpt lat="59.9524233" lon="17.7195015">
        <ele>53.4905</ele>
        <time>2014-07-03T07:55:10Z</time>
      </trkpt>
      <trkpt lat="59.9524234" lon="17.7195394">
        <ele>55.4131</ele>
        <time>2014-07-03T07:55:11Z</time>
      </trkpt>
      <trkpt lat="59.9524141" lon="17.7195811">
        <ele>58.2971</ele>
        <time>2014-07-03T07:55:12Z</time>
      </trkpt>
      <trkpt lat="59.9524067" lon="17.7196294">
        <ele>60.7003</ele>
        <time>2014-07-03T07:55:13Z</time>
      </trkpt>
      <trkpt lat="59.9524015" lon="17.7196794">
        <ele>63.1036</ele>
        <time>2014-07-03T07:55:14Z</time>
      </trkpt>
      <trkpt lat="59.9524024" lon="17.7197238">
        <ele>65.5071</ele>
        <time>2014-07-03T07:55:15Z</time>
      </trkpt>
      <trkpt lat="59.9524013" lon="17.7197578">
        <ele>67.4297</ele>
        <time>2014-07-03T07:55:16Z</time>
      </trkpt>
      <trkpt lat="59.9524037" lon="17.7198">
        <ele>69.3523</ele>
        <time>2014-07-03T07:55:17Z</time>
      </trkpt>
      <trkpt lat="59.9524098" lon="17.7198471">
        <ele>71.2749</ele>
        <time>2014-07-03T07:55:18Z</time>
      </trkpt>
      <trkpt lat="59.9524091" lon="17.7198897">
        <ele>74.1588</ele>
        <time>2014-07-03T07:55:19Z</time>
      </trkpt>
      <trkpt lat="59.9524081" lon="17.7199371">
        <ele>76.5621</ele>
        <time>2014-07-03T07:55:20Z</time>
      </trkpt>
      <trkpt lat="59.9524129" lon="17.7199823">
        <ele>78.4847</ele>
        <time>2014-07-03T07:55:21Z</time>
      </trkpt>
      <trkpt lat="59.9524155" lon="17.7200211">
        <ele>80.8882</ele>
        <time>2014-07-03T07:55:22Z</time>
      </trkpt>
      <trkpt lat="59.9524264" lon="17.7200656">
        <ele>80.8882</ele>
        <time>2014-07-03T07:55:23Z</time>
      </trkpt>
      <trkpt lat="59.9524402" lon="17.720119">
        <ele>80.4075</ele>
        <time>2014-07-03T07:55:24Z</time>
      </trkpt>
      <trkpt lat="59.9524695" lon="17.7201834">
        <ele>79.446</ele>
        <time>2014-07-03T07:55:25Z</time>
      </trkpt>
      <trkpt lat="59.952473" lon="17.7202439">
        <ele>79.9266</ele>
        <time>2014-07-03T07:55:26Z</time>
      </trkpt>
      <trkpt lat="59.9524812" lon="17.7202986">
        <ele>80.4075</ele>
        <time>2014-07-03T07:55:27Z</time>
      </trkpt>
      <trkpt lat="59.9524745" lon="17.7203408">
        <ele>82.3301</ele>
        <time>2014-07-03T07:55:28Z</time>
      </trkpt>
      <trkpt lat="59.9524785" lon="17.7203944">
        <ele>82.8108</ele>
        <time>2014-07-03T07:55:29Z</time>
      </trkpt>
      <trkpt lat="59.9524849" lon="17.7204573">
        <ele>82.8108</ele>
        <time>2014-07-03T07:55:30Z</time>
      </trkpt>
      <trkpt lat="59.9524829" lon="17.7205138">
        <ele>83.772</ele>
        <time>2014-07-03T07:55:31Z</time>
      </trkpt>
      <trkpt lat="59.9524747" lon="17.7205644">
        <ele>84.2527</ele>
        <time>2014-07-03T07:55:32Z</time>
      </trkpt>
      <trkpt lat="59.9524811" lon="17.7206273">
        <ele>84.2527</ele>
        <time>2014-07-03T07:55:33Z</time>
      </trkpt>
      <trkpt lat="59.9524799" lon="17.7206921">
        <ele>86.1753</ele>
        <time>2014-07-03T07:55:34Z</time>
      </trkpt>
      <trkpt lat="59.9524835" lon="17.7207474">
        <ele>86.1753</ele>
        <time>2014-07-03T07:55:35Z</time>
      </trkpt>
      <trkpt lat="59.9524947" lon="17.7208084">
        <ele>84.7334</ele>
        <time>2014-07-03T07:55:36Z</time>
      </trkpt>
      <trkpt lat="59.9525049" lon="17.7208588">
        <ele>83.772</ele>
        <time>2014-07-03T07:55:37Z</time>
      </trkpt>
      <trkpt lat="59.9525068" lon="17.7209107">
        <ele>83.2914</ele>
        <time>2014-07-03T07:55:38Z</time>
      </trkpt>
      <trkpt lat="59.952506" lon="17.7209535">
        <ele>82.8108</ele>
        <time>2014-07-03T07:55:39Z</time>
      </trkpt>
      <trkpt lat="59.9525132" lon="17.7209992">
        <ele>81.8494</ele>
        <time>2014-07-03T07:55:40Z</time>
      </trkpt>
      <trkpt lat="59.9525195" lon="17.7210598">
        <ele>81.8494</ele>
        <time>2014-07-03T07:55:41Z</time>
      </trkpt>
      <trkpt lat="59.9525268" lon="17.7211257">
        <ele>80.4075</ele>
        <time>2014-07-03T07:55:42Z</time>
      </trkpt>
      <trkpt lat="59.9525387" lon="17.7211909">
        <ele>78.4847</ele>
        <time>2014-07-03T07:55:43Z</time>
      </trkpt>
      <trkpt lat="59.9525461" lon="17.7212499">
        <ele>77.0428</ele>
        <time>2014-07-03T07:55:44Z</time>
      </trkpt>
      <trkpt lat="59.9525443" lon="17.7213016">
        <ele>76.0814</ele>
        <time>2014-07-03T07:55:45Z</time>
      </trkpt>
      <trkpt lat="59.9525407" lon="17.7213534">
        <ele>76.0814</ele>
        <time>2014-07-03T07:55:46Z</time>
      </trkpt>
      <trkpt lat="59.9525363" lon="17.7214053">
        <ele>75.1202</ele>
        <time>2014-07-03T07:55:47Z</time>
      </trkpt>
      <trkpt lat="59.9525238" lon="17.7214561">
        <ele>75.1202</ele>
        <time>2014-07-03T07:55:48Z</time>
      </trkpt>
      <trkpt lat="59.9525169" lon="17.7215071">
        <ele>75.1202</ele>
        <time>2014-07-03T07:55:49Z</time>
      </trkpt>
      <trkpt lat="59.9525202" lon="17.7215647">
        <ele>73.6782</ele>
        <time>2014-07-03T07:55:50Z</time>
      </trkpt>
      <trkpt lat="59.9525202" lon="17.7216147">
        <ele>72.7169</ele>
        <time>2014-07-03T07:55:51Z</time>
      </trkpt>
      <trkpt lat="59.9525155" lon="17.7216627">
        <ele>72.7169</ele>
        <time>2014-07-03T07:55:52Z</time>
      </trkpt>
      <trkpt lat="59.9525143" lon="17.7217129">
        <ele>73.1976</ele>
        <time>2014-07-03T07:55:53Z</time>
      </trkpt>
      <trkpt lat="59.9525135" lon="17.721756">
        <ele>74.6395</ele>
        <time>2014-07-03T07:55:54Z</time>
      </trkpt>
      <trkpt lat="59.9525066" lon="17.7217907">
        <ele>76.0814</ele>
        <time>2014-07-03T07:55:55Z</time>
      </trkpt>
      <trkpt lat="59.952501" lon="17.7218276">
        <ele>77.5234</ele>
        <time>2014-07-03T07:55:56Z</time>
      </trkpt>
      <trkpt lat="59.9524943" lon="17.7218699">
        <ele>78.4847</ele>
        <time>2014-07-03T07:55:57Z</time>
      </trkpt>
      <trkpt lat="59.9524844" lon="17.7219139">
        <ele>80.4075</ele>
        <time>2014-07-03T07:55:58Z</time>
      </trkpt>
      <trkpt lat="59.9524832" lon="17.7219557">
        <ele>81.8494</ele>
        <time>2014-07-03T07:55:59Z</time>
      </trkpt>
      <trkpt lat="59.9524954" lon="17.7219946">
        <ele>82.8108</ele>
        <time>2014-07-03T07:56:00Z</time>
      </trkpt>
      <trkpt lat="59.9525039" lon="17.7220311">
        <ele>84.7334</ele>
        <time>2014-07-03T07:56:01Z</time>
      </trkpt>
      <trkpt lat="59.9525039" lon="17.7220726">
        <ele>85.6946</ele>
        <time>2014-07-03T07:56:02Z</time>
      </trkpt>
      <trkpt lat="59.9525108" lon="17.7221159">
        <ele>85.214</ele>
        <time>2014-07-03T07:56:03Z</time>
      </trkpt>
      <trkpt lat="59.9525083" lon="17.7221666">
        <ele>84.7334</ele>
        <time>2014-07-03T07:56:04Z</time>
      </trkpt>
      <trkpt lat="59.9525041" lon="17.7222155">
        <ele>84.7334</ele>
        <time>2014-07-03T07:56:05Z</time>
      </trkpt>
      <trkpt lat="59.9524951" lon="17.7222697">
        <ele>84.7334</ele>
        <time>2014-07-03T07:56:06Z</time>
      </trkpt>
      <trkpt lat="59.9524797" lon="17.7223131">
        <ele>85.6946</ele>
        <time>2014-07-03T07:56:07Z</time>
      </trkpt>
      <trkpt lat="59.9524682" lon="17.7223601">
        <ele>86.656</ele>
        <time>2014-07-03T07:56:08Z</time>
      </trkpt>
      <trkpt lat="59.9524632" lon="17.7224149">
        <ele>85.6946</ele>
        <time>2014-07-03T07:56:09Z</time>
      </trkpt>
      <trkpt lat="59.9524531" lon="17.7224594">
        <ele>86.1753</ele>
        <time>2014-07-03T07:56:10Z</time>
      </trkpt>
      <trkpt lat="59.9524526" lon="17.7225086">
        <ele>85.214</ele>
        <time>2014-07-03T07:56:11Z</time>
      </trkpt>
      <trkpt lat="59.9524444" lon="17.7225589">
        <ele>85.214</ele>
        <time>2014-07-03T07:56:12Z</time>
      </trkpt>
      <trkpt lat="59.9524438" lon="17.7226061">
        <ele>84.2527</ele>
        <time>2014-07-03T07:56:13Z</time>
      </trkpt>
      <trkpt lat="59.952443" lon="17.7226598">
        <ele>84.7334</ele>
        <time>2014-07-03T07:56:14Z</time>
      </trkpt>
      <trkpt lat="59.9524487" lon="17.722718">
        <ele>83.2914</ele>
        <time>2014-07-03T07:56:15Z</time>
      </trkpt>
      <trkpt lat="59.9524625" lon="17.7227916">
        <ele>81.3688</ele>
        <time>2014-07-03T07:56:16Z</time>
      </trkpt>
      <trkpt lat="59.9524591" lon="17.7228495">
        <ele>82.3301</ele>
        <time>2014-07-03T07:56:17Z</time>
      </trkpt>
      <trkpt lat="59.952451" lon="17.7229059">
        <ele>81.8494</ele>
        <time>2014-07-03T07:56:18Z</time>
      </trkpt>
      <trkpt lat="59.9524491" lon="17.7229519">
        <ele>81.3688</ele>
        <time>2014-07-03T07:56:19Z</time>
      </trkpt>
      <trkpt lat="59.9524651" lon="17.7229993">
        <ele>79.9266</ele>
        <time>2014-07-03T07:56:20Z</time>
      </trkpt>
      <trkpt lat="59.9524829" lon="17.7230473">
        <ele>79.446</ele>
        <time>2014-07-03T07:56:21Z</time>
      </trkpt>
      <trkpt lat="59.9525062" lon="17.7230975">
        <ele>78.4847</ele>
        <time>2014-07-03T07:56:22Z</time>
      </trkpt>
      <trkpt lat="59.9525264" lon="17.7231555">
        <ele>77.5234</ele>
        <time>2014-07-03T07:56:23Z</time>
      </trkpt>
      <trkpt lat="59.9525218" lon="17.7232058">
        <ele>77.0428</ele>
        <time>2014-07-03T07:56:24Z</time>
      </trkpt>
      <trkpt lat="59.9525331" lon="17.7232452">
        <ele>77.0428</ele>
        <time>2014-07-03T07:56:25Z</time>
      </trkpt>
      <trkpt lat="59.9525414" lon="17.7232857">
        <ele>75.6008</ele>
        <time>2014-07-03T07:56:26Z</time>
      </trkpt>
      <trkpt lat="59.9525518" lon="17.7233285">
        <ele>74.6395</ele>
        <time>2014-07-03T07:56:27Z</time>
      </trkpt>
      <trkpt lat="59.9525606" lon="17.7233717">
        <ele>74.1588</ele>
        <time>2014-07-03T07:56:28Z</time>
      </trkpt>
      <trkpt lat="59.9525704" lon="17.7234151">
        <ele>72.2362</ele>
        <time>2014-07-03T07:56:29Z</time>
      </trkpt>
      <trkpt lat="59.9525911" lon="17.7234562">
        <ele>70.3135</ele>
        <time>2014-07-03T07:56:30Z</time>
      </trkpt>
      <trkpt lat="59.9525994" lon="17.7234957">
        <ele>69.3523</ele>
        <time>2014-07-03T07:56:31Z</time>
      </trkpt>
      <trkpt lat="59.9526015" lon="17.72353">
        <ele>68.3909</ele>
        <time>2014-07-03T07:56:32Z</time>
      </trkpt>
      <trkpt lat="59.9526181" lon="17.7235589">
        <ele>66.949</ele>
        <time>2014-07-03T07:56:33Z</time>
      </trkpt>
      <trkpt lat="59.9526407" lon="17.7235913">
        <ele>64.0651</ele>
        <time>2014-07-03T07:56:34Z</time>
      </trkpt>
      <trkpt lat="59.9526529" lon="17.7236315">
        <ele>61.181</ele>
        <time>2014-07-03T07:56:35Z</time>
      </trkpt>
      <trkpt lat="59.9526604" lon="17.7236579">
        <ele>59.2584</ele>
        <time>2014-07-03T07:56:36Z</time>
      </trkpt>
      <trkpt lat="59.9526719" lon="17.7236849">
        <ele>57.8165</ele>
        <time>2014-07-03T07:56:37Z</time>
      </trkpt>
      <trkpt lat="59.9526757" lon="17.7237285">
        <ele>56.3745</ele>
        <time>2014-07-03T07:56:38Z</time>
      </trkpt>
      <trkpt lat="59.952675" lon="17.7237805">
        <ele>54.9324</ele>
        <time>2014-07-03T07:56:39Z</time>
      </trkpt>
      <trkpt lat="59.9526736" lon="17.7238259">
        <ele>53.9712</ele>
        <time>2014-07-03T07:56:40Z</time>
      </trkpt>
      <trkpt lat="59.95267" lon="17.7238662">
        <ele>52.0486</ele>
        <time>2014-07-03T07:56:41Z</time>
      </trkpt>
      <trkpt lat="59.9526677" lon="17.7239082">
        <ele>51.5679</ele>
        <time>2014-07-03T07:56:42Z</time>
      </trkpt>
      <trkpt lat="59.9526686" lon="17.7239503">
        <ele>50.126</ele>
        <time>2014-07-03T07:56:43Z</time>
      </trkpt>
      <trkpt lat="59.95267" lon="17.7240029">
        <ele>49.6453</ele>
        <time>2014-07-03T07:56:44Z</time>
      </trkpt>
      <trkpt lat="59.9526663" lon="17.7240471">
        <ele>49.1646</ele>
        <time>2014-07-03T07:56:45Z</time>
      </trkpt>
      <trkpt lat="59.952659" lon="17.7240844">
        <ele>48.684</ele>
        <time>2014-07-03T07:56:46Z</time>
      </trkpt>
      <trkpt lat="59.9526472" lon="17.7241274">
        <ele>48.684</ele>
        <time>2014-07-03T07:56:47Z</time>
      </trkpt>
      <trkpt lat="59.9526401" lon="17.724155">
        <ele>48.2034</ele>
        <time>2014-07-03T07:56:48Z</time>
      </trkpt>
      <trkpt lat="59.9526277" lon="17.7242029">
        <ele>48.2034</ele>
        <time>2014-07-03T07:56:49Z</time>
      </trkpt>
      <trkpt lat="59.9526145" lon="17.7242518">
        <ele>47.7225</ele>
        <time>2014-07-03T07:56:50Z</time>
      </trkpt>
      <trkpt lat="59.952598" lon="17.7242938">
        <ele>48.2034</ele>
        <time>2014-07-03T07:56:51Z</time>
      </trkpt>
      <trkpt lat="59.9525863" lon="17.7243264">
        <ele>48.2034</ele>
        <time>2014-07-03T07:56:52Z</time>
      </trkpt>
      <trkpt lat="59.9525735" lon="17.7243745">
        <ele>48.684</ele>
        <time>2014-07-03T07:56:53Z</time>
      </trkpt>
      <trkpt lat="59.9525655" lon="17.7244148">
        <ele>48.2034</ele>
        <time>2014-07-03T07:56:54Z</time>
      </trkpt>
      <trkpt lat="59.9525513" lon="17.724463">
        <ele>48.684</ele>
        <time>2014-07-03T07:56:55Z</time>
      </trkpt>
      <trkpt lat="59.9525362" lon="17.7245055">
        <ele>48.684</ele>
        <time>2014-07-03T07:56:56Z</time>
      </trkpt>
      <trkpt lat="59.9525225" lon="17.7245452">
        <ele>48.684</ele>
        <time>2014-07-03T07:56:57Z</time>
      </trkpt>
      <trkpt lat="59.9525066" lon="17.7245848">
        <ele>48.684</ele>
        <time>2014-07-03T07:56:58Z</time>
      </trkpt>
      <trkpt lat="59.9524901" lon="17.7246199">
        <ele>48.684</ele>
        <time>2014-07-03T07:56:59Z</time>
      </trkpt>
      <trkpt lat="59.9524747" lon="17.7246444">
        <ele>48.684</ele>
        <time>2014-07-03T07:57:00Z</time>
      </trkpt>
      <trkpt lat="59.9524558" lon="17.724676">
        <ele>48.2034</ele>
        <time>2014-07-03T07:57:01Z</time>
      </trkpt>
      <trkpt lat="59.9524367" lon="17.7247103">
        <ele>48.2034</ele>
        <time>2014-07-03T07:57:02Z</time>
      </trkpt>
      <trkpt lat="59.9524164" lon="17.7247452">
        <ele>47.7225</ele>
        <time>2014-07-03T07:57:03Z</time>
      </trkpt>
      <trkpt lat="59.9523928" lon="17.724783">
        <ele>48.2034</ele>
        <time>2014-07-03T07:57:04Z</time>
      </trkpt>
      <trkpt lat="59.9523708" lon="17.724821">
        <ele>48.2034</ele>
        <time>2014-07-03T07:57:05Z</time>
      </trkpt>
      <trkpt lat="59.9523528" lon="17.7248583">
        <ele>48.684</ele>
        <time>2014-07-03T07:57:06Z</time>
      </trkpt>
      <trkpt lat="59.9523337" lon="17.7248967">
        <ele>49.1646</ele>
        <time>2014-07-03T07:57:07Z</time>
      </trkpt>
      <trkpt lat="59.9523158" lon="17.7249392">
        <ele>49.1646</ele>
        <time>2014-07-03T07:57:08Z</time>
      </trkpt>
      <trkpt lat="59.9523005" lon="17.7249781">
        <ele>49.6453</ele>
        <time>2014-07-03T07:57:09Z</time>
      </trkpt>
      <trkpt lat="59.9522845" lon="17.7250106">
        <ele>50.126</ele>
        <time>2014-07-03T07:57:10Z</time>
      </trkpt>
      <trkpt lat="59.9522668" lon="17.7250423">
        <ele>50.126</ele>
        <time>2014-07-03T07:57:11Z</time>
      </trkpt>
      <trkpt lat="59.9522508" lon="17.7250739">
        <ele>50.126</ele>
        <time>2014-07-03T07:57:12Z</time>
      </trkpt>
      <trkpt lat="59.9522335" lon="17.7251192">
        <ele>50.126</ele>
        <time>2014-07-03T07:57:13Z</time>
      </trkpt>
      <trkpt lat="59.9522156" lon="17.7251666">
        <ele>50.126</ele>
        <time>2014-07-03T07:57:14Z</time>
      </trkpt>
      <trkpt lat="59.9521989" lon="17.7252055">
        <ele>50.6066</ele>
        <time>2014-07-03T07:57:15Z</time>
      </trkpt>
      <trkpt lat="59.9521815" lon="17.7252446">
        <ele>50.6066</ele>
        <time>2014-07-03T07:57:16Z</time>
      </trkpt>
      <trkpt lat="59.9521649" lon="17.72528">
        <ele>50.6066</ele>
        <time>2014-07-03T07:57:17Z</time>
      </trkpt>
      <trkpt lat="59.9521472" lon="17.7253142">
        <ele>50.6066</ele>
        <time>2014-07-03T07:57:18Z</time>
      </trkpt>
      <trkpt lat="59.9521289" lon="17.7253438">
        <ele>50.6066</ele>
        <time>2014-07-03T07:57:19Z</time>
      </trkpt>
      <trkpt lat="59.952109" lon="17.7253747">
        <ele>50.6066</ele>
        <time>2014-07-03T07:57:20Z</time>
      </trkpt>
      <trkpt lat="59.9520918" lon="17.7254006">
        <ele>50.6066</ele>
        <time>2014-07-03T07:57:21Z</time>
      </trkpt>
      <trkpt lat="59.9520751" lon="17.7254357">
        <ele>51.0872</ele>
        <time>2014-07-03T07:57:22Z</time>
      </trkpt>
      <trkpt lat="59.9520592" lon="17.7254753">
        <ele>51.0872</ele>
        <time>2014-07-03T07:57:23Z</time>
      </trkpt>
      <trkpt lat="59.9520456" lon="17.7255069">
        <ele>50.6066</ele>
        <time>2014-07-03T07:57:24Z</time>
      </trkpt>
      <trkpt lat="59.9520306" lon="17.725537">
        <ele>50.6066</ele>
        <time>2014-07-03T07:57:25Z</time>
      </trkpt>
      <trkpt lat="59.9520139" lon="17.7255771">
        <ele>50.126</ele>
        <time>2014-07-03T07:57:26Z</time>
      </trkpt>
      <trkpt lat="59.9519979" lon="17.7256172">
        <ele>50.6066</ele>
        <time>2014-07-03T07:57:27Z</time>
      </trkpt>
      <trkpt lat="59.9519788" lon="17.7256555">
        <ele>51.0872</ele>
        <time>2014-07-03T07:57:28Z</time>
      </trkpt>
      <trkpt lat="59.9519624" lon="17.7256865">
        <ele>51.0872</ele>
        <time>2014-07-03T07:57:29Z</time>
      </trkpt>
      <trkpt lat="59.9519465" lon="17.7257218">
        <ele>51.0872</ele>
        <time>2014-07-03T07:57:30Z</time>
      </trkpt>
      <trkpt lat="59.9519255" lon="17.7257731">
        <ele>51.0872</ele>
        <time>2014-07-03T07:57:31Z</time>
      </trkpt>
      <trkpt lat="59.9519064" lon="17.7258172">
        <ele>51.0872</ele>
        <time>2014-07-03T07:57:32Z</time>
      </trkpt>
      <trkpt lat="59.9518883" lon="17.7258594">
        <ele>51.0872</ele>
        <time>2014-07-03T07:57:33Z</time>
      </trkpt>
      <trkpt lat="59.9518644" lon="17.7258979">
        <ele>51.0872</ele>
        <time>2014-07-03T07:57:34Z</time>
      </trkpt>
      <trkpt lat="59.9518421" lon="17.7259257">
        <ele>51.0872</ele>
        <time>2014-07-03T07:57:35Z</time>
      </trkpt>
      <trkpt lat="59.9518238" lon="17.7259405">
        <ele>51.0872</ele>
        <time>2014-07-03T07:57:36Z</time>
      </trkpt>
      <trkpt lat="59.9518027" lon="17.725954">
        <ele>51.0872</ele>
        <time>2014-07-03T07:57:37Z</time>
      </trkpt>
      <trkpt lat="59.951785" lon="17.7259667">
        <ele>50.126</ele>
        <time>2014-07-03T07:57:38Z</time>
      </trkpt>
      <trkpt lat="59.951768" lon="17.7259843">
        <ele>49.6453</ele>
        <time>2014-07-03T07:57:39Z</time>
      </trkpt>
      <trkpt lat="59.9517494" lon="17.7260084">
        <ele>49.6453</ele>
        <time>2014-07-03T07:57:40Z</time>
      </trkpt>
      <trkpt lat="59.9517307" lon="17.7260347">
        <ele>49.6453</ele>
        <time>2014-07-03T07:57:41Z</time>
      </trkpt>
      <trkpt lat="59.9517109" lon="17.7260643">
        <ele>49.6453</ele>
        <time>2014-07-03T07:57:42Z</time>
      </trkpt>
      <trkpt lat="59.9516904" lon="17.7260871">
        <ele>49.1646</ele>
        <time>2014-07-03T07:57:43Z</time>
      </trkpt>
      <trkpt lat="59.9516731" lon="17.7261249">
        <ele>49.1646</ele>
        <time>2014-07-03T07:57:44Z</time>
      </trkpt>
      <trkpt lat="59.9516581" lon="17.7261571">
        <ele>49.6453</ele>
        <time>2014-07-03T07:57:45Z</time>
      </trkpt>
      <trkpt lat="59.9516416" lon="17.7261798">
        <ele>49.6453</ele>
        <time>2014-07-03T07:57:46Z</time>
      </trkpt>
      <trkpt lat="59.9516256" lon="17.7262127">
        <ele>50.126</ele>
        <time>2014-07-03T07:57:47Z</time>
      </trkpt>
      <trkpt lat="59.9516112" lon="17.7262481">
        <ele>50.126</ele>
        <time>2014-07-03T07:57:48Z</time>
      </trkpt>
      <trkpt lat="59.9515992" lon="17.7262895">
        <ele>50.126</ele>
        <time>2014-07-03T07:57:49Z</time>
      </trkpt>
      <trkpt lat="59.9515866" lon="17.7263272">
        <ele>50.126</ele>
        <time>2014-07-03T07:57:50Z</time>
      </trkpt>
      <trkpt lat="59.9515722" lon="17.726357">
        <ele>50.126</ele>
        <time>2014-07-03T07:57:51Z</time>
      </trkpt>
      <trkpt lat="59.951558" lon="17.7263919">
        <ele>50.126</ele>
        <time>2014-07-03T07:57:52Z</time>
      </trkpt>
      <trkpt lat="59.9515457" lon="17.7264306">
        <ele>50.126</ele>
        <time>2014-07-03T07:57:53Z</time>
      </trkpt>
      <trkpt lat="59.9515332" lon="17.7264714">
        <ele>50.126</ele>
        <time>2014-07-03T07:57:54Z</time>
      </trkpt>
      <trkpt lat="59.9515189" lon="17.7265114">
        <ele>50.6066</ele>
        <time>2014-07-03T07:57:55Z</time>
      </trkpt>
      <trkpt lat="59.9515036" lon="17.7265427">
        <ele>50.6066</ele>
        <time>2014-07-03T07:57:56Z</time>
      </trkpt>
      <trkpt lat="59.9514878" lon="17.7265859">
        <ele>51.0872</ele>
        <time>2014-07-03T07:57:57Z</time>
      </trkpt>
      <trkpt lat="59.9514769" lon="17.7266245">
        <ele>51.5679</ele>
        <time>2014-07-03T07:57:58Z</time>
      </trkpt>
      <trkpt lat="59.9514691" lon="17.7266647">
        <ele>51.5679</ele>
        <time>2014-07-03T07:57:59Z</time>
      </trkpt>
      <trkpt lat="59.9514654" lon="17.7267022">
        <ele>51.0872</ele>
        <time>2014-07-03T07:58:00Z</time>
      </trkpt>
      <trkpt lat="59.9514644" lon="17.7267444">
        <ele>51.0872</ele>
        <time>2014-07-03T07:58:01Z</time>
      </trkpt>
      <trkpt lat="59.951466" lon="17.7267879">
        <ele>51.0872</ele>
        <time>2014-07-03T07:58:02Z</time>
      </trkpt>
      <trkpt lat="59.9514751" lon="17.7268334">
        <ele>51.0872</ele>
        <time>2014-07-03T07:58:03Z</time>
      </trkpt>
      <trkpt lat="59.9514889" lon="17.726868">
        <ele>51.5679</ele>
        <time>2014-07-03T07:58:04Z</time>
      </trkpt>
      <trkpt lat="59.9515017" lon="17.7269066">
        <ele>52.0486</ele>
        <time>2014-07-03T07:58:05Z</time>
      </trkpt>
      <trkpt lat="59.9515147" lon="17.7269566">
        <ele>52.0486</ele>
        <time>2014-07-03T07:58:06Z</time>
      </trkpt>
      <trkpt lat="59.9515378" lon="17.7270053">
        <ele>52.5292</ele>
        <time>2014-07-03T07:58:07Z</time>
      </trkpt>
      <trkpt lat="59.9515514" lon="17.7270454">
        <ele>52.5292</ele>
        <time>2014-07-03T07:58:08Z</time>
      </trkpt>
      <trkpt lat="59.951553" lon="17.7270863">
        <ele>52.5292</ele>
        <time>2014-07-03T07:58:09Z</time>
      </trkpt>
      <trkpt lat="59.9515515" lon="17.7271319">
        <ele>52.0486</ele>
        <time>2014-07-03T07:58:10Z</time>
      </trkpt>
      <trkpt lat="59.9515494" lon="17.727179">
        <ele>51.5679</ele>
        <time>2014-07-03T07:58:11Z</time>
      </trkpt>
      <trkpt lat="59.9515478" lon="17.7272298">
        <ele>51.5679</ele>
        <time>2014-07-03T07:58:12Z</time>
      </trkpt>
      <trkpt lat="59.9515511" lon="17.7272738">
        <ele>51.0872</ele>
        <time>2014-07-03T07:58:13Z</time>
      </trkpt>
      <trkpt lat="59.9515494" lon="17.7273157">
        <ele>51.0872</ele>
        <time>2014-07-03T07:58:14Z</time>
      </trkpt>
      <trkpt lat="59.9515436" lon="17.7273619">
        <ele>50.126</ele>
        <time>2014-07-03T07:58:15Z</time>
      </trkpt>
      <trkpt lat="59.9515404" lon="17.7274146">
        <ele>50.126</ele>
        <time>2014-07-03T07:58:16Z</time>
      </trkpt>
      <trkpt lat="59.9515347" lon="17.7274618">
        <ele>50.6066</ele>
        <time>2014-07-03T07:58:17Z</time>
      </trkpt>
      <trkpt lat="59.9515365" lon="17.7275085">
        <ele>51.0872</ele>
        <time>2014-07-03T07:58:18Z</time>
      </trkpt>
      <trkpt lat="59.9515414" lon="17.7275628">
        <ele>50.6066</ele>
        <time>2014-07-03T07:58:19Z</time>
      </trkpt>
      <trkpt lat="59.9515526" lon="17.7276193">
        <ele>50.6066</ele>
        <time>2014-07-03T07:58:20Z</time>
      </trkpt>
      <trkpt lat="59.9515704" lon="17.7276643">
        <ele>50.6066</ele>
        <time>2014-07-03T07:58:21Z</time>
      </trkpt>
      <trkpt lat="59.9515887" lon="17.7277092">
        <ele>50.6066</ele>
        <time>2014-07-03T07:58:22Z</time>
      </trkpt>
      <trkpt lat="59.9515981" lon="17.7277503">
        <ele>51.0872</ele>
        <time>2014-07-03T07:58:23Z</time>
      </trkpt>
      <trkpt lat="59.9516119" lon="17.7277914">
        <ele>51.0872</ele>
        <time>2014-07-03T07:58:24Z</time>
      </trkpt>
      <trkpt lat="59.9516333" lon="17.7278271">
        <ele>51.0872</ele>
        <time>2014-07-03T07:58:25Z</time>
      </trkpt>
      <trkpt lat="59.9516566" lon="17.7278523">
        <ele>51.5679</ele>
        <time>2014-07-03T07:58:26Z</time>
      </trkpt>
      <trkpt lat="59.951667" lon="17.7278649">
        <ele>50.6066</ele>
        <time>2014-07-03T07:58:27Z</time>
      </trkpt>
      <trkpt lat="59.9516798" lon="17.7278788">
        <ele>50.126</ele>
        <time>2014-07-03T07:58:28Z</time>
      </trkpt>
      <trkpt lat="59.9516934" lon="17.7278947">
        <ele>49.1646</ele>
        <time>2014-07-03T07:58:29Z</time>
      </trkpt>
      <trkpt lat="59.9517161" lon="17.7278964">
        <ele>48.684</ele>
        <time>2014-07-03T07:58:30Z</time>
      </trkpt>
      <trkpt lat="59.9517327" lon="17.7278928">
        <ele>47.7225</ele>
        <time>2014-07-03T07:58:31Z</time>
      </trkpt>
      <trkpt lat="59.9517456" lon="17.7278916">
        <ele>47.2418</ele>
        <time>2014-07-03T07:58:32Z</time>
      </trkpt>
      <trkpt lat="59.9517565" lon="17.7278959">
        <ele>47.7225</ele>
        <time>2014-07-03T07:58:33Z</time>
      </trkpt>
      <trkpt lat="59.9517721" lon="17.7278985">
        <ele>47.7225</ele>
        <time>2014-07-03T07:58:34Z</time>
      </trkpt>
      <trkpt lat="59.9517842" lon="17.7279015">
        <ele>48.2034</ele>
        <time>2014-07-03T07:58:35Z</time>
      </trkpt>
      <trkpt lat="59.9517997" lon="17.7279027">
        <ele>48.2034</ele>
        <time>2014-07-03T07:58:36Z</time>
      </trkpt>
      <trkpt lat="59.9518168" lon="17.7278917">
        <ele>48.2034</ele>
        <time>2014-07-03T07:58:37Z</time>
      </trkpt>
      <trkpt lat="59.9518347" lon="17.7278813">
        <ele>48.2034</ele>
        <time>2014-07-03T07:58:38Z</time>
      </trkpt>
      <trkpt lat="59.9518492" lon="17.7278725">
        <ele>48.2034</ele>
        <time>2014-07-03T07:58:39Z</time>
      </trkpt>
      <trkpt lat="59.9518618" lon="17.7278618">
        <ele>48.684</ele>
        <time>2014-07-03T07:58:40Z</time>
      </trkpt>
      <trkpt lat="59.9518719" lon="17.7278467">
        <ele>48.2034</ele>
        <time>2014-07-03T07:58:41Z</time>
      </trkpt>
      <trkpt lat="59.951885" lon="17.7278296">
        <ele>48.2034</ele>
        <time>2014-07-03T07:58:42Z</time>
      </trkpt>
      <trkpt lat="59.9518976" lon="17.7278103">
        <ele>48.2034</ele>
        <time>2014-07-03T07:58:43Z</time>
      </trkpt>
      <trkpt lat="59.9519162" lon="17.7277846">
        <ele>47.7225</ele>
        <time>2014-07-03T07:58:44Z</time>
      </trkpt>
      <trkpt lat="59.9519358" lon="17.7277421">
        <ele>47.2418</ele>
        <time>2014-07-03T07:58:45Z</time>
      </trkpt>
      <trkpt lat="59.9519458" lon="17.7276963">
        <ele>46.7612</ele>
        <time>2014-07-03T07:58:46Z</time>
      </trkpt>
      <trkpt lat="59.951957" lon="17.7276442">
        <ele>46.2806</ele>
        <time>2014-07-03T07:58:47Z</time>
      </trkpt>
      <trkpt lat="59.9519691" lon="17.727596">
        <ele>45.3192</ele>
        <time>2014-07-03T07:58:48Z</time>
      </trkpt>
      <trkpt lat="59.9519836" lon="17.7275588">
        <ele>44.8386</ele>
        <time>2014-07-03T07:58:49Z</time>
      </trkpt>
      <trkpt lat="59.9519944" lon="17.7275162">
        <ele>45.3192</ele>
        <time>2014-07-03T07:58:50Z</time>
      </trkpt>
      <trkpt lat="59.952009" lon="17.7274629">
        <ele>45.3192</ele>
        <time>2014-07-03T07:58:51Z</time>
      </trkpt>
      <trkpt lat="59.9520201" lon="17.7274072">
        <ele>44.8386</ele>
        <time>2014-07-03T07:58:52Z</time>
      </trkpt>
      <trkpt lat="59.9520327" lon="17.7273572">
        <ele>44.358</ele>
        <time>2014-07-03T07:58:53Z</time>
      </trkpt>
      <trkpt lat="59.9520431" lon="17.7273185">
        <ele>43.8773</ele>
        <time>2014-07-03T07:58:54Z</time>
      </trkpt>
      <trkpt lat="59.9520486" lon="17.7272728">
        <ele>43.8773</ele>
        <time>2014-07-03T07:58:55Z</time>
      </trkpt>
      <trkpt lat="59.9520545" lon="17.7272307">
        <ele>44.8386</ele>
        <time>2014-07-03T07:58:56Z</time>
      </trkpt>
      <trkpt lat="59.9520627" lon="17.727191">
        <ele>45.3192</ele>
        <time>2014-07-03T07:58:57Z</time>
      </trkpt>
      <trkpt lat="59.9520711" lon="17.7271521">
        <ele>46.2806</ele>
        <time>2014-07-03T07:58:58Z</time>
      </trkpt>
      <trkpt lat="59.952075" lon="17.7271132">
        <ele>48.2034</ele>
        <time>2014-07-03T07:58:59Z</time>
      </trkpt>
      <trkpt lat="59.9520746" lon="17.7270646">
        <ele>49.6453</ele>
        <time>2014-07-03T07:59:00Z</time>
      </trkpt>
      <trkpt lat="59.95208" lon="17.7270178">
        <ele>49.1646</ele>
        <time>2014-07-03T07:59:01Z</time>
      </trkpt>
      <trkpt lat="59.9520902" lon="17.7269708">
        <ele>48.684</ele>
        <time>2014-07-03T07:59:02Z</time>
      </trkpt>
      <trkpt lat="59.952099" lon="17.7269267">
        <ele>49.1646</ele>
        <time>2014-07-03T07:59:03Z</time>
      </trkpt>
      <trkpt lat="59.9521064" lon="17.7268822">
        <ele>49.1646</ele>
        <time>2014-07-03T07:59:04Z</time>
      </trkpt>
      <trkpt lat="59.9521146" lon="17.7268366">
        <ele>49.1646</ele>
        <time>2014-07-03T07:59:05Z</time>
      </trkpt>
      <trkpt lat="59.9521221" lon="17.72679">
        <ele>49.6453</ele>
        <time>2014-07-03T07:59:06Z</time>
      </trkpt>
      <trkpt lat="59.9521316" lon="17.7267457">
        <ele>49.6453</ele>
        <time>2014-07-03T07:59:07Z</time>
      </trkpt>
      <trkpt lat="59.9521388" lon="17.7266988">
        <ele>50.6066</ele>
        <time>2014-07-03T07:59:08Z</time>
      </trkpt>
      <trkpt lat="59.9521467" lon="17.7266588">
        <ele>51.5679</ele>
        <time>2014-07-03T07:59:09Z</time>
      </trkpt>
      <trkpt lat="59.9521613" lon="17.7266194">
        <ele>50.6066</ele>
        <time>2014-07-03T07:59:10Z</time>
      </trkpt>
      <trkpt lat="59.9521695" lon="17.7265792">
        <ele>52.0486</ele>
        <time>2014-07-03T07:59:11Z</time>
      </trkpt>
      <trkpt lat="59.9521798" lon="17.7265387">
        <ele>53.0098</ele>
        <time>2014-07-03T07:59:12Z</time>
      </trkpt>
      <trkpt lat="59.952191" lon="17.7264993">
        <ele>53.9712</ele>
        <time>2014-07-03T07:59:13Z</time>
      </trkpt>
      <trkpt lat="59.9522016" lon="17.7264614">
        <ele>54.9324</ele>
        <time>2014-07-03T07:59:14Z</time>
      </trkpt>
      <trkpt lat="59.9522135" lon="17.7264252">
        <ele>55.8938</ele>
        <time>2014-07-03T07:59:15Z</time>
      </trkpt>
      <trkpt lat="59.9522245" lon="17.7263899">
        <ele>56.3745</ele>
        <time>2014-07-03T07:59:16Z</time>
      </trkpt>
      <trkpt lat="59.9522343" lon="17.7263516">
        <ele>57.3358</ele>
        <time>2014-07-03T07:59:17Z</time>
      </trkpt>
      <trkpt lat="59.9522477" lon="17.7263117">
        <ele>57.3358</ele>
        <time>2014-07-03T07:59:18Z</time>
      </trkpt>
      <trkpt lat="59.9522643" lon="17.7262797">
        <ele>56.8551</ele>
        <time>2014-07-03T07:59:19Z</time>
      </trkpt>
      <trkpt lat="59.9522804" lon="17.7262497">
        <ele>56.8551</ele>
        <time>2014-07-03T07:59:20Z</time>
      </trkpt>
      <trkpt lat="59.9522933" lon="17.7262139">
        <ele>57.3358</ele>
        <time>2014-07-03T07:59:21Z</time>
      </trkpt>
      <trkpt lat="59.9523063" lon="17.7261806">
        <ele>58.7777</ele>
        <time>2014-07-03T07:59:22Z</time>
      </trkpt>
      <trkpt lat="59.9523179" lon="17.7261554">
        <ele>59.2584</ele>
        <time>2014-07-03T07:59:23Z</time>
      </trkpt>
      <trkpt lat="59.9523279" lon="17.7261255">
        <ele>60.7003</ele>
        <time>2014-07-03T07:59:24Z</time>
      </trkpt>
      <trkpt lat="59.9523482" lon="17.7260902">
        <ele>60.2197</ele>
        <time>2014-07-03T07:59:25Z</time>
      </trkpt>
      <trkpt lat="59.9523658" lon="17.7260591">
        <ele>60.7003</ele>
        <time>2014-07-03T07:59:26Z</time>
      </trkpt>
      <trkpt lat="59.9523816" lon="17.7260317">
        <ele>59.7391</ele>
        <time>2014-07-03T07:59:27Z</time>
      </trkpt>
      <trkpt lat="59.952397" lon="17.7260103">
        <ele>57.8165</ele>
        <time>2014-07-03T07:59:28Z</time>
      </trkpt>
      <trkpt lat="59.9524113" lon="17.7259822">
        <ele>55.8938</ele>
        <time>2014-07-03T07:59:29Z</time>
      </trkpt>
      <trkpt lat="59.9524285" lon="17.7259516">
        <ele>54.9324</ele>
        <time>2014-07-03T07:59:30Z</time>
      </trkpt>
      <trkpt lat="59.9524467" lon="17.72592">
        <ele>54.4518</ele>
        <time>2014-07-03T07:59:31Z</time>
      </trkpt>
      <trkpt lat="59.9524604" lon="17.7258778">
        <ele>53.9712</ele>
        <time>2014-07-03T07:59:32Z</time>
      </trkpt>
      <trkpt lat="59.952477" lon="17.7258375">
        <ele>53.4905</ele>
        <time>2014-07-03T07:59:33Z</time>
      </trkpt>
      <trkpt lat="59.952493" lon="17.7258087">
        <ele>53.9712</ele>
        <time>2014-07-03T07:59:34Z</time>
      </trkpt>
      <trkpt lat="59.9525124" lon="17.7257839">
        <ele>54.4518</ele>
        <time>2014-07-03T07:59:35Z</time>
      </trkpt>
      <trkpt lat="59.9525342" lon="17.7257582">
        <ele>54.4518</ele>
        <time>2014-07-03T07:59:36Z</time>
      </trkpt>
      <trkpt lat="59.9525549" lon="17.7257318">
        <ele>54.4518</ele>
        <time>2014-07-03T07:59:37Z</time>
      </trkpt>
      <trkpt lat="59.9525719" lon="17.7257016">
        <ele>53.9712</ele>
        <time>2014-07-03T07:59:38Z</time>
      </trkpt>
      <trkpt lat="59.9525865" lon="17.7256745">
        <ele>54.9324</ele>
        <time>2014-07-03T07:59:39Z</time>
      </trkpt>
      <trkpt lat="59.9526086" lon="17.7256426">
        <ele>54.9324</ele>
        <time>2014-07-03T07:59:40Z</time>
      </trkpt>
      <trkpt lat="59.9526284" lon="17.7256084">
        <ele>54.9324</ele>
        <time>2014-07-03T07:59:41Z</time>
      </trkpt>
      <trkpt lat="59.9526451" lon="17.7255767">
        <ele>54.4518</ele>
        <time>2014-07-03T07:59:42Z</time>
      </trkpt>
      <trkpt lat="59.9526661" lon="17.7255457">
        <ele>53.9712</ele>
        <time>2014-07-03T07:59:43Z</time>
      </trkpt>
      <trkpt lat="59.9526862" lon="17.7255155">
        <ele>53.4905</ele>
        <time>2014-07-03T07:59:44Z</time>
      </trkpt>
      <trkpt lat="59.9527035" lon="17.7254862">
        <ele>53.0098</ele>
        <time>2014-07-03T07:59:45Z</time>
      </trkpt>
      <trkpt lat="59.952719" lon="17.7254551">
        <ele>53.0098</ele>
        <time>2014-07-03T07:59:46Z</time>
      </trkpt>
      <trkpt lat="59.9527346" lon="17.7254262">
        <ele>53.0098</ele>
        <time>2014-07-03T07:59:47Z</time>
      </trkpt>
      <trkpt lat="59.9527543" lon="17.7254043">
        <ele>52.5292</ele>
        <time>2014-07-03T07:59:48Z</time>
      </trkpt>
      <trkpt lat="59.9527745" lon="17.7253806">
        <ele>53.0098</ele>
        <time>2014-07-03T07:59:49Z</time>
      </trkpt>
      <trkpt lat="59.9527932" lon="17.7253494">
        <ele>52.5292</ele>
        <time>2014-07-03T07:59:50Z</time>
      </trkpt>
      <trkpt lat="59.9528062" lon="17.7253124">
        <ele>53.9712</ele>
        <time>2014-07-03T07:59:51Z</time>
      </trkpt>
      <trkpt lat="59.9528232" lon="17.7252732">
        <ele>55.8938</ele>
        <time>2014-07-03T07:59:52Z</time>
      </trkpt>
      <trkpt lat="59.9528381" lon="17.7252314">
        <ele>57.3358</ele>
        <time>2014-07-03T07:59:53Z</time>
      </trkpt>
      <trkpt lat="59.952857" lon="17.7252002">
        <ele>58.2971</ele>
        <time>2014-07-03T07:59:54Z</time>
      </trkpt>
      <trkpt lat="59.9528715" lon="17.7251698">
        <ele>59.7391</ele>
        <time>2014-07-03T07:59:55Z</time>
      </trkpt>
      <trkpt lat="59.9528817" lon="17.7251426">
        <ele>61.6617</ele>
        <time>2014-07-03T07:59:56Z</time>
      </trkpt>
      <trkpt lat="59.952893" lon="17.7251159">
        <ele>63.5844</ele>
        <time>2014-07-03T07:59:57Z</time>
      </trkpt>
      <trkpt lat="59.952908" lon="17.7250894">
        <ele>64.5457</ele>
        <time>2014-07-03T07:59:58Z</time>
      </trkpt>
      <trkpt lat="59.9529263" lon="17.7250599">
        <ele>64.5457</ele>
        <time>2014-07-03T07:59:59Z</time>
      </trkpt>
      <trkpt lat="59.9529414" lon="17.7250224">
        <ele>65.5071</ele>
        <time>2014-07-03T08:00:00Z</time>
      </trkpt>
      <trkpt lat="59.9529494" lon="17.7249842">
        <ele>67.4297</ele>
        <time>2014-07-03T08:00:01Z</time>
      </trkpt>
      <trkpt lat="59.9529615" lon="17.7249473">
        <ele>67.4297</ele>
        <time>2014-07-03T08:00:02Z</time>
      </trkpt>
      <trkpt lat="59.9529801" lon="17.7249127">
        <ele>67.4297</ele>
        <time>2014-07-03T08:00:03Z</time>
      </trkpt>
      <trkpt lat="59.9529982" lon="17.724877">
        <ele>67.9103</ele>
        <time>2014-07-03T08:00:04Z</time>
      </trkpt>
      <trkpt lat="59.9530064" lon="17.7248424">
        <ele>70.7942</ele>
        <time>2014-07-03T08:00:05Z</time>
      </trkpt>
      <trkpt lat="59.9530229" lon="17.7248118">
        <ele>70.7942</ele>
        <time>2014-07-03T08:00:06Z</time>
      </trkpt>
      <trkpt lat="59.9530351" lon="17.7247816">
        <ele>71.2749</ele>
        <time>2014-07-03T08:00:07Z</time>
      </trkpt>
      <trkpt lat="59.9530517" lon="17.7247547">
        <ele>70.3135</ele>
        <time>2014-07-03T08:00:08Z</time>
      </trkpt>
      <trkpt lat="59.9530682" lon="17.7247195">
        <ele>70.7942</ele>
        <time>2014-07-03T08:00:09Z</time>
      </trkpt>
      <trkpt lat="59.9530896" lon="17.7246852">
        <ele>69.8329</ele>
        <time>2014-07-03T08:00:10Z</time>
      </trkpt>
      <trkpt lat="59.9530997" lon="17.7246532">
        <ele>71.2749</ele>
        <time>2014-07-03T08:00:11Z</time>
      </trkpt>
      <trkpt lat="59.9531132" lon="17.7246188">
        <ele>72.7169</ele>
        <time>2014-07-03T08:00:12Z</time>
      </trkpt>
      <trkpt lat="59.9531288" lon="17.7245794">
        <ele>73.1976</ele>
        <time>2014-07-03T08:00:13Z</time>
      </trkpt>
      <trkpt lat="59.9531511" lon="17.7245478">
        <ele>71.7555</ele>
        <time>2014-07-03T08:00:14Z</time>
      </trkpt>
      <trkpt lat="59.9531661" lon="17.7245159">
        <ele>72.7169</ele>
        <time>2014-07-03T08:00:15Z</time>
      </trkpt>
      <trkpt lat="59.9531817" lon="17.7244841">
        <ele>73.6782</ele>
        <time>2014-07-03T08:00:16Z</time>
      </trkpt>
      <trkpt lat="59.9531985" lon="17.7244593">
        <ele>74.1588</ele>
        <time>2014-07-03T08:00:17Z</time>
      </trkpt>
      <trkpt lat="59.95322" lon="17.7244376">
        <ele>74.1588</ele>
        <time>2014-07-03T08:00:18Z</time>
      </trkpt>
      <trkpt lat="59.9532374" lon="17.7244072">
        <ele>72.7169</ele>
        <time>2014-07-03T08:00:19Z</time>
      </trkpt>
      <trkpt lat="59.9532524" lon="17.7243786">
        <ele>72.7169</ele>
        <time>2014-07-03T08:00:20Z</time>
      </trkpt>
      <trkpt lat="59.9532639" lon="17.7243469">
        <ele>71.7555</ele>
        <time>2014-07-03T08:00:21Z</time>
      </trkpt>
      <trkpt lat="59.9532763" lon="17.7243137">
        <ele>73.6782</ele>
        <time>2014-07-03T08:00:22Z</time>
      </trkpt>
      <trkpt lat="59.9532882" lon="17.7242822">
        <ele>74.6395</ele>
        <time>2014-07-03T08:00:23Z</time>
      </trkpt>
      <trkpt lat="59.9533023" lon="17.7242465">
        <ele>74.6395</ele>
        <time>2014-07-03T08:00:24Z</time>
      </trkpt>
      <trkpt lat="59.9533184" lon="17.7242091">
        <ele>74.6395</ele>
        <time>2014-07-03T08:00:25Z</time>
      </trkpt>
      <trkpt lat="59.9533339" lon="17.7241745">
        <ele>75.6008</ele>
        <time>2014-07-03T08:00:26Z</time>
      </trkpt>
      <trkpt lat="59.9533474" lon="17.724144">
        <ele>76.0814</ele>
        <time>2014-07-03T08:00:27Z</time>
      </trkpt>
      <trkpt lat="59.9533639" lon="17.7241106">
        <ele>75.6008</ele>
        <time>2014-07-03T08:00:28Z</time>
      </trkpt>
      <trkpt lat="59.9533775" lon="17.7240742">
        <ele>77.0428</ele>
        <time>2014-07-03T08:00:29Z</time>
      </trkpt>
      <trkpt lat="59.9533924" lon="17.7240377">
        <ele>77.5234</ele>
        <time>2014-07-03T08:00:30Z</time>
      </trkpt>
      <trkpt lat="59.9534092" lon="17.7239952">
        <ele>77.5234</ele>
        <time>2014-07-03T08:00:31Z</time>
      </trkpt>
      <trkpt lat="59.9534307" lon="17.7239612">
        <ele>76.5621</ele>
        <time>2014-07-03T08:00:32Z</time>
      </trkpt>
      <trkpt lat="59.9534474" lon="17.7239238">
        <ele>76.5621</ele>
        <time>2014-07-03T08:00:33Z</time>
      </trkpt>
      <trkpt lat="59.9534633" lon="17.7238912">
        <ele>76.5621</ele>
        <time>2014-07-03T08:00:34Z</time>
      </trkpt>
      <trkpt lat="59.953476" lon="17.723856">
        <ele>76.0814</ele>
        <time>2014-07-03T08:00:35Z</time>
      </trkpt>
      <trkpt lat="59.9534857" lon="17.7238312">
        <ele>76.5621</ele>
        <time>2014-07-03T08:00:36Z</time>
      </trkpt>
      <trkpt lat="59.9534905" lon="17.7238062">
        <ele>77.5234</ele>
        <time>2014-07-03T08:00:37Z</time>
      </trkpt>
      <trkpt lat="59.9535023" lon="17.7237788">
        <ele>78.4847</ele>
        <time>2014-07-03T08:00:38Z</time>
      </trkpt>
      <trkpt lat="59.9535163" lon="17.7237504">
        <ele>78.9655</ele>
        <time>2014-07-03T08:00:39Z</time>
      </trkpt>
      <trkpt lat="59.9535334" lon="17.7237239">
        <ele>79.446</ele>
        <time>2014-07-03T08:00:40Z</time>
      </trkpt>
      <trkpt lat="59.9535494" lon="17.7236975">
        <ele>80.4075</ele>
        <time>2014-07-03T08:00:41Z</time>
      </trkpt>
      <trkpt lat="59.9535713" lon="17.7236695">
        <ele>80.8882</ele>
        <time>2014-07-03T08:00:42Z</time>
      </trkpt>
      <trkpt lat="59.9536008" lon="17.7236374">
        <ele>80.8882</ele>
        <time>2014-07-03T08:00:43Z</time>
      </trkpt>
      <trkpt lat="59.9536266" lon="17.723604">
        <ele>82.8108</ele>
        <time>2014-07-03T08:00:44Z</time>
      </trkpt>
      <trkpt lat="59.9536557" lon="17.7235727">
        <ele>84.7334</ele>
        <time>2014-07-03T08:00:45Z</time>
      </trkpt>
      <trkpt lat="59.9536826" lon="17.7235424">
        <ele>85.214</ele>
        <time>2014-07-03T08:00:46Z</time>
      </trkpt>
      <trkpt lat="59.9537005" lon="17.7235028">
        <ele>85.6946</ele>
        <time>2014-07-03T08:00:47Z</time>
      </trkpt>
      <trkpt lat="59.9537283" lon="17.7234733">
        <ele>85.214</ele>
        <time>2014-07-03T08:00:48Z</time>
      </trkpt>
      <trkpt lat="59.9537489" lon="17.7234473">
        <ele>83.772</ele>
        <time>2014-07-03T08:00:49Z</time>
      </trkpt>
      <trkpt lat="59.9537749" lon="17.7234327">
        <ele>83.2914</ele>
        <time>2014-07-03T08:00:50Z</time>
      </trkpt>
      <trkpt lat="59.9537945" lon="17.7234096">
        <ele>83.2914</ele>
        <time>2014-07-03T08:00:51Z</time>
      </trkpt>
      <trkpt lat="59.9538053" lon="17.7233725">
        <ele>83.772</ele>
        <time>2014-07-03T08:00:52Z</time>
      </trkpt>
      <trkpt lat="59.953824" lon="17.7233505">
        <ele>83.772</ele>
        <time>2014-07-03T08:00:53Z</time>
      </trkpt>
      <trkpt lat="59.953851" lon="17.7233358">
        <ele>84.7334</ele>
        <time>2014-07-03T08:00:54Z</time>
      </trkpt>
      <trkpt lat="59.9538728" lon="17.7233186">
        <ele>84.2527</ele>
        <time>2014-07-03T08:00:55Z</time>
      </trkpt>
      <trkpt lat="59.9538953" lon="17.7233016">
        <ele>84.2527</ele>
        <time>2014-07-03T08:00:56Z</time>
      </trkpt>
      <trkpt lat="59.9539163" lon="17.7232763">
        <ele>82.8108</ele>
        <time>2014-07-03T08:00:57Z</time>
      </trkpt>
      <trkpt lat="59.953936" lon="17.7232572">
        <ele>82.8108</ele>
        <time>2014-07-03T08:00:58Z</time>
      </trkpt>
      <trkpt lat="59.9539591" lon="17.7232364">
        <ele>82.3301</ele>
        <time>2014-07-03T08:00:59Z</time>
      </trkpt>
      <trkpt lat="59.9539769" lon="17.7232122">
        <ele>80.8882</ele>
        <time>2014-07-03T08:01:00Z</time>
      </trkpt>
      <trkpt lat="59.9540031" lon="17.7232011">
        <ele>79.446</ele>
        <time>2014-07-03T08:01:01Z</time>
      </trkpt>
      <trkpt lat="59.9540279" lon="17.7231977">
        <ele>78.4847</ele>
        <time>2014-07-03T08:01:02Z</time>
      </trkpt>
      <trkpt lat="59.9540453" lon="17.7231909">
        <ele>80.8882</ele>
        <time>2014-07-03T08:01:03Z</time>
      </trkpt>
      <trkpt lat="59.9540577" lon="17.72318">
        <ele>81.3688</ele>
        <time>2014-07-03T08:01:04Z</time>
      </trkpt>
      <trkpt lat="59.9540724" lon="17.7231738">
        <ele>81.8494</ele>
        <time>2014-07-03T08:01:05Z</time>
      </trkpt>
      <trkpt lat="59.9540887" lon="17.7231633">
        <ele>80.8882</ele>
        <time>2014-07-03T08:01:06Z</time>
      </trkpt>
      <trkpt lat="59.9541084" lon="17.7231717">
        <ele>80.8882</ele>
        <time>2014-07-03T08:01:07Z</time>
      </trkpt>
      <trkpt lat="59.9541408" lon="17.7231956">
        <ele>77.5234</ele>
        <time>2014-07-03T08:01:08Z</time>
      </trkpt>
      <trkpt lat="59.954169" lon="17.7232139">
        <ele>77.5234</ele>
        <time>2014-07-03T08:01:09Z</time>
      </trkpt>
      <trkpt lat="59.954195" lon="17.7232288">
        <ele>75.1202</ele>
        <time>2014-07-03T08:01:10Z</time>
      </trkpt>
      <trkpt lat="59.9542159" lon="17.7232405">
        <ele>72.2362</ele>
        <time>2014-07-03T08:01:11Z</time>
      </trkpt>
      <trkpt lat="59.9542394" lon="17.7232515">
        <ele>68.8716</ele>
        <time>2014-07-03T08:01:12Z</time>
      </trkpt>
      <trkpt lat="59.9542627" lon="17.7232623">
        <ele>66.949</ele>
        <time>2014-07-03T08:01:13Z</time>
      </trkpt>
      <trkpt lat="59.9542807" lon="17.7232712">
        <ele>64.5457</ele>
        <time>2014-07-03T08:01:14Z</time>
      </trkpt>
      <trkpt lat="59.9542969" lon="17.7232754">
        <ele>63.1036</ele>
        <time>2014-07-03T08:01:15Z</time>
      </trkpt>
      <trkpt lat="59.9543219" lon="17.7232873">
        <ele>63.5844</ele>
        <time>2014-07-03T08:01:16Z</time>
      </trkpt>
      <trkpt lat="59.9543467" lon="17.7233039">
        <ele>62.6229</ele>
        <time>2014-07-03T08:01:17Z</time>
      </trkpt>
      <trkpt lat="59.9543757" lon="17.7233198">
        <ele>62.6229</ele>
        <time>2014-07-03T08:01:18Z</time>
      </trkpt>
      <trkpt lat="59.954391" lon="17.7233346">
        <ele>61.6617</ele>
        <time>2014-07-03T08:01:19Z</time>
      </trkpt>
      <trkpt lat="59.9544128" lon="17.7233567">
        <ele>61.181</ele>
        <time>2014-07-03T08:01:20Z</time>
      </trkpt>
      <trkpt lat="59.9544376" lon="17.7233919">
        <ele>59.7391</ele>
        <time>2014-07-03T08:01:21Z</time>
      </trkpt>
      <trkpt lat="59.954463" lon="17.723415">
        <ele>58.7777</ele>
        <time>2014-07-03T08:01:22Z</time>
      </trkpt>
      <trkpt lat="59.9544866" lon="17.7234287">
        <ele>58.7777</ele>
        <time>2014-07-03T08:01:23Z</time>
      </trkpt>
      <trkpt lat="59.954511" lon="17.7234472">
        <ele>57.3358</ele>
        <time>2014-07-03T08:01:24Z</time>
      </trkpt>
      <trkpt lat="59.9545347" lon="17.723459">
        <ele>57.3358</ele>
        <time>2014-07-03T08:01:25Z</time>
      </trkpt>
      <trkpt lat="59.9545614" lon="17.7234685">
        <ele>57.3358</ele>
        <time>2014-07-03T08:01:26Z</time>
      </trkpt>
      <trkpt lat="59.9545853" lon="17.7234825">
        <ele>56.8551</ele>
        <time>2014-07-03T08:01:27Z</time>
      </trkpt>
      <trkpt lat="59.9546076" lon="17.7235047">
        <ele>56.3745</ele>
        <time>2014-07-03T08:01:28Z</time>
      </trkpt>
      <trkpt lat="59.954627" lon="17.7235239">
        <ele>56.8551</ele>
        <time>2014-07-03T08:01:29Z</time>
      </trkpt>
      <trkpt lat="59.9546417" lon="17.7235385">
        <ele>56.8551</ele>
        <time>2014-07-03T08:01:30Z</time>
      </trkpt>
      <trkpt lat="59.9546502" lon="17.7235585">
        <ele>56.8551</ele>
        <time>2014-07-03T08:01:31Z</time>
      </trkpt>
      <trkpt lat="59.9546522" lon="17.7235931">
        <ele>56.8551</ele>
        <time>2014-07-03T08:01:32Z</time>
      </trkpt>
      <trkpt lat="59.9546646" lon="17.7236175">
        <ele>56.8551</ele>
        <time>2014-07-03T08:01:33Z</time>
      </trkpt>
      <trkpt lat="59.9546824" lon="17.7236331">
        <ele>57.3358</ele>
        <time>2014-07-03T08:01:34Z</time>
      </trkpt>
      <trkpt lat="59.9547104" lon="17.7236429">
        <ele>57.8165</ele>
        <time>2014-07-03T08:01:35Z</time>
      </trkpt>
      <trkpt lat="59.954735" lon="17.7236548">
        <ele>57.8165</ele>
        <time>2014-07-03T08:01:36Z</time>
      </trkpt>
      <trkpt lat="59.9547638" lon="17.7236679">
        <ele>58.7777</ele>
        <time>2014-07-03T08:01:37Z</time>
      </trkpt>
      <trkpt lat="59.9547907" lon="17.7236808">
        <ele>58.7777</ele>
        <time>2014-07-03T08:01:38Z</time>
      </trkpt>
      <trkpt lat="59.9548187" lon="17.7236802">
        <ele>59.7391</ele>
        <time>2014-07-03T08:01:39Z</time>
      </trkpt>
      <trkpt lat="59.9548311" lon="17.7236774">
        <ele>61.181</ele>
        <time>2014-07-03T08:01:40Z</time>
      </trkpt>
      <trkpt lat="59.9548508" lon="17.7236669">
        <ele>62.6229</ele>
        <time>2014-07-03T08:01:41Z</time>
      </trkpt>
      <trkpt lat="59.9548672" lon="17.7236654">
        <ele>64.5457</ele>
        <time>2014-07-03T08:01:42Z</time>
      </trkpt>
      <trkpt lat="59.9548989" lon="17.723653">
        <ele>65.9877</ele>
        <time>2014-07-03T08:01:43Z</time>
      </trkpt>
      <trkpt lat="59.9549295" lon="17.7236439">
        <ele>66.4683</ele>
        <time>2014-07-03T08:01:44Z</time>
      </trkpt>
      <trkpt lat="59.9549543" lon="17.7236357">
        <ele>67.4297</ele>
        <time>2014-07-03T08:01:45Z</time>
      </trkpt>
      <trkpt lat="59.9549686" lon="17.7236245">
        <ele>68.8716</ele>
        <time>2014-07-03T08:01:46Z</time>
      </trkpt>
      <trkpt lat="59.9549849" lon="17.7236092">
        <ele>69.3523</ele>
        <time>2014-07-03T08:01:47Z</time>
      </trkpt>
      <trkpt lat="59.9550007" lon="17.7235851">
        <ele>70.7942</ele>
        <time>2014-07-03T08:01:48Z</time>
      </trkpt>
      <trkpt lat="59.9550165" lon="17.7235643">
        <ele>71.2749</ele>
        <time>2014-07-03T08:01:49Z</time>
      </trkpt>
      <trkpt lat="59.9550362" lon="17.7235453">
        <ele>72.7169</ele>
        <time>2014-07-03T08:01:50Z</time>
      </trkpt>
      <trkpt lat="59.9550594" lon="17.7235202">
        <ele>73.1976</ele>
        <time>2014-07-03T08:01:51Z</time>
      </trkpt>
      <trkpt lat="59.9550812" lon="17.7235041">
        <ele>75.1202</ele>
        <time>2014-07-03T08:01:52Z</time>
      </trkpt>
      <trkpt lat="59.9551003" lon="17.7234777">
        <ele>76.5621</ele>
        <time>2014-07-03T08:01:53Z</time>
      </trkpt>
      <trkpt lat="59.9551148" lon="17.7234517">
        <ele>76.0814</ele>
        <time>2014-07-03T08:01:54Z</time>
      </trkpt>
      <trkpt lat="59.955135" lon="17.7234336">
        <ele>77.0428</ele>
        <time>2014-07-03T08:01:55Z</time>
      </trkpt>
      <trkpt lat="59.9551626" lon="17.7234189">
        <ele>77.5234</ele>
        <time>2014-07-03T08:01:56Z</time>
      </trkpt>
      <trkpt lat="59.9551847" lon="17.7234022">
        <ele>79.446</ele>
        <time>2014-07-03T08:01:57Z</time>
      </trkpt>
      <trkpt lat="59.9552082" lon="17.7233857">
        <ele>78.9655</ele>
        <time>2014-07-03T08:01:58Z</time>
      </trkpt>
      <trkpt lat="59.9552329" lon="17.7233742">
        <ele>78.004</ele>
        <time>2014-07-03T08:01:59Z</time>
      </trkpt>
      <trkpt lat="59.9552599" lon="17.7233716">
        <ele>77.0428</ele>
        <time>2014-07-03T08:02:00Z</time>
      </trkpt>
      <trkpt lat="59.955278" lon="17.7233772">
        <ele>77.0428</ele>
        <time>2014-07-03T08:02:01Z</time>
      </trkpt>
      <trkpt lat="59.9552987" lon="17.7233868">
        <ele>74.6395</ele>
        <time>2014-07-03T08:02:02Z</time>
      </trkpt>
      <trkpt lat="59.9553217" lon="17.7234001">
        <ele>72.7169</ele>
        <time>2014-07-03T08:02:03Z</time>
      </trkpt>
      <trkpt lat="59.9553434" lon="17.7234089">
        <ele>72.7169</ele>
        <time>2014-07-03T08:02:04Z</time>
      </trkpt>
      <trkpt lat="59.9553739" lon="17.7234134">
        <ele>72.2362</ele>
        <time>2014-07-03T08:02:05Z</time>
      </trkpt>
      <trkpt lat="59.9554102" lon="17.7234151">
        <ele>71.2749</ele>
        <time>2014-07-03T08:02:06Z</time>
      </trkpt>
      <trkpt lat="59.9554335" lon="17.7234295">
        <ele>70.7942</ele>
        <time>2014-07-03T08:02:07Z</time>
      </trkpt>
      <trkpt lat="59.9554495" lon="17.7234431">
        <ele>68.3909</ele>
        <time>2014-07-03T08:02:08Z</time>
      </trkpt>
      <trkpt lat="59.9554739" lon="17.7234616">
        <ele>66.4683</ele>
        <time>2014-07-03T08:02:09Z</time>
      </trkpt>
      <trkpt lat="59.9554965" lon="17.7234701">
        <ele>63.5844</ele>
        <time>2014-07-03T08:02:10Z</time>
      </trkpt>
      <trkpt lat="59.9555178" lon="17.7234783">
        <ele>62.6229</ele>
        <time>2014-07-03T08:02:11Z</time>
      </trkpt>
      <trkpt lat="59.9555458" lon="17.7234892">
        <ele>60.7003</ele>
        <time>2014-07-03T08:02:12Z</time>
      </trkpt>
      <trkpt lat="59.9555743" lon="17.7235014">
        <ele>59.2584</ele>
        <time>2014-07-03T08:02:13Z</time>
      </trkpt>
      <trkpt lat="59.9555944" lon="17.7235187">
        <ele>58.2971</ele>
        <time>2014-07-03T08:02:14Z</time>
      </trkpt>
      <trkpt lat="59.9556148" lon="17.7235342">
        <ele>58.7777</ele>
        <time>2014-07-03T08:02:15Z</time>
      </trkpt>
      <trkpt lat="59.9556365" lon="17.7235586">
        <ele>59.2584</ele>
        <time>2014-07-03T08:02:16Z</time>
      </trkpt>
      <trkpt lat="59.9556707" lon="17.7235757">
        <ele>59.2584</ele>
        <time>2014-07-03T08:02:17Z</time>
      </trkpt>
      <trkpt lat="59.9557073" lon="17.7235901">
        <ele>58.7777</ele>
        <time>2014-07-03T08:02:18Z</time>
      </trkpt>
      <trkpt lat="59.9557256" lon="17.7236119">
        <ele>58.7777</ele>
        <time>2014-07-03T08:02:19Z</time>
      </trkpt>
      <trkpt lat="59.9557479" lon="17.7236286">
        <ele>58.7777</ele>
        <time>2014-07-03T08:02:20Z</time>
      </trkpt>
      <trkpt lat="59.9557728" lon="17.7236415">
        <ele>57.8165</ele>
        <time>2014-07-03T08:02:21Z</time>
      </trkpt>
      <trkpt lat="59.9557948" lon="17.7236563">
        <ele>57.3358</ele>
        <time>2014-07-03T08:02:22Z</time>
      </trkpt>
      <trkpt lat="59.9558275" lon="17.7236404">
        <ele>58.2971</ele>
        <time>2014-07-03T08:02:23Z</time>
      </trkpt>
      <trkpt lat="59.9558542" lon="17.7236165">
        <ele>58.7777</ele>
        <time>2014-07-03T08:02:24Z</time>
      </trkpt>
      <trkpt lat="59.955871" lon="17.723597">
        <ele>59.2584</ele>
        <time>2014-07-03T08:02:25Z</time>
      </trkpt>
      <trkpt lat="59.955882" lon="17.7235709">
        <ele>60.2197</ele>
        <time>2014-07-03T08:02:26Z</time>
      </trkpt>
      <trkpt lat="59.9558946" lon="17.7235404">
        <ele>61.6617</ele>
        <time>2014-07-03T08:02:27Z</time>
      </trkpt>
      <trkpt lat="59.9559079" lon="17.723511">
        <ele>62.1423</ele>
        <time>2014-07-03T08:02:28Z</time>
      </trkpt>
      <trkpt lat="59.9559178" lon="17.7234766">
        <ele>63.1036</ele>
        <time>2014-07-03T08:02:29Z</time>
      </trkpt>
      <trkpt lat="59.9559266" lon="17.7234412">
        <ele>65.0264</ele>
        <time>2014-07-03T08:02:30Z</time>
      </trkpt>
      <trkpt lat="59.9559395" lon="17.7234032">
        <ele>66.4683</ele>
        <time>2014-07-03T08:02:31Z</time>
      </trkpt>
      <trkpt lat="59.9559473" lon="17.7233586">
        <ele>67.4297</ele>
        <time>2014-07-03T08:02:32Z</time>
      </trkpt>
      <trkpt lat="59.9559581" lon="17.723316">
        <ele>68.3909</ele>
        <time>2014-07-03T08:02:33Z</time>
      </trkpt>
      <trkpt lat="59.955968" lon="17.7232691">
        <ele>68.3909</ele>
        <time>2014-07-03T08:02:34Z</time>
      </trkpt>
      <trkpt lat="59.9559711" lon="17.7232245">
        <ele>70.3135</ele>
        <time>2014-07-03T08:02:35Z</time>
      </trkpt>
      <trkpt lat="59.9559746" lon="17.7231821">
        <ele>71.2749</ele>
        <time>2014-07-03T08:02:36Z</time>
      </trkpt>
      <trkpt lat="59.9559783" lon="17.7231359">
        <ele>72.2362</ele>
        <time>2014-07-03T08:02:37Z</time>
      </trkpt>
      <trkpt lat="59.9559806" lon="17.7230903">
        <ele>71.7555</ele>
        <time>2014-07-03T08:02:38Z</time>
      </trkpt>
      <trkpt lat="59.9559846" lon="17.7230365">
        <ele>71.7555</ele>
        <time>2014-07-03T08:02:39Z</time>
      </trkpt>
      <trkpt lat="59.9559835" lon="17.7229843">
        <ele>72.2362</ele>
        <time>2014-07-03T08:02:40Z</time>
      </trkpt>
      <trkpt lat="59.9559877" lon="17.7229343">
        <ele>72.7169</ele>
        <time>2014-07-03T08:02:41Z</time>
      </trkpt>
      <trkpt lat="59.955986" lon="17.7228893">
        <ele>73.1976</ele>
        <time>2014-07-03T08:02:42Z</time>
      </trkpt>
      <trkpt lat="59.9559852" lon="17.7228469">
        <ele>72.7169</ele>
        <time>2014-07-03T08:02:43Z</time>
      </trkpt>
      <trkpt lat="59.9559852" lon="17.7227995">
        <ele>72.7169</ele>
        <time>2014-07-03T08:02:44Z</time>
      </trkpt>
      <trkpt lat="59.9559891" lon="17.7227562">
        <ele>71.7555</ele>
        <time>2014-07-03T08:02:45Z</time>
      </trkpt>
      <trkpt lat="59.9559893" lon="17.7227158">
        <ele>69.8329</ele>
        <time>2014-07-03T08:02:46Z</time>
      </trkpt>
      <trkpt lat="59.9559846" lon="17.7226723">
        <ele>68.8716</ele>
        <time>2014-07-03T08:02:47Z</time>
      </trkpt>
      <trkpt lat="59.9559799" lon="17.7226289">
        <ele>68.8716</ele>
        <time>2014-07-03T08:02:48Z</time>
      </trkpt>
      <trkpt lat="59.9559752" lon="17.7225874">
        <ele>68.3909</ele>
        <time>2014-07-03T08:02:49Z</time>
      </trkpt>
      <trkpt lat="59.9559725" lon="17.7225444">
        <ele>67.4297</ele>
        <time>2014-07-03T08:02:50Z</time>
      </trkpt>
      <trkpt lat="59.9559687" lon="17.7225035">
        <ele>67.4297</ele>
        <time>2014-07-03T08:02:51Z</time>
      </trkpt>
      <trkpt lat="59.9559622" lon="17.722461">
        <ele>66.4683</ele>
        <time>2014-07-03T08:02:52Z</time>
      </trkpt>
      <trkpt lat="59.9559608" lon="17.7224163">
        <ele>65.0264</ele>
        <time>2014-07-03T08:02:53Z</time>
      </trkpt>
      <trkpt lat="59.9559596" lon="17.7223694">
        <ele>64.5457</ele>
        <time>2014-07-03T08:02:54Z</time>
      </trkpt>
      <trkpt lat="59.9559564" lon="17.722319">
        <ele>63.1036</ele>
        <time>2014-07-03T08:02:55Z</time>
      </trkpt>
      <trkpt lat="59.9559535" lon="17.7222688">
        <ele>62.1423</ele>
        <time>2014-07-03T08:02:56Z</time>
      </trkpt>
      <trkpt lat="59.9559525" lon="17.7222207">
        <ele>61.6617</ele>
        <time>2014-07-03T08:02:57Z</time>
      </trkpt>
      <trkpt lat="59.9559504" lon="17.7221727">
        <ele>61.181</ele>
        <time>2014-07-03T08:02:58Z</time>
      </trkpt>
      <trkpt lat="59.9559455" lon="17.7221257">
        <ele>61.181</ele>
        <time>2014-07-03T08:02:59Z</time>
      </trkpt>
      <trkpt lat="59.9559401" lon="17.7220777">
        <ele>62.1423</ele>
        <time>2014-07-03T08:03:00Z</time>
      </trkpt>
      <trkpt lat="59.9559339" lon="17.7220327">
        <ele>61.6617</ele>
        <time>2014-07-03T08:03:01Z</time>
      </trkpt>
      <trkpt lat="59.9559261" lon="17.72199">
        <ele>62.1423</ele>
        <time>2014-07-03T08:03:02Z</time>
      </trkpt>
      <trkpt lat="59.9559243" lon="17.7219439">
        <ele>61.6617</ele>
        <time>2014-07-03T08:03:03Z</time>
      </trkpt>
      <trkpt lat="59.955923" lon="17.7218966">
        <ele>61.181</ele>
        <time>2014-07-03T08:03:04Z</time>
      </trkpt>
      <trkpt lat="59.9559219" lon="17.7218553">
        <ele>61.181</ele>
        <time>2014-07-03T08:03:05Z</time>
      </trkpt>
      <trkpt lat="59.9559243" lon="17.7218079">
        <ele>60.7003</ele>
        <time>2014-07-03T08:03:06Z</time>
      </trkpt>
      <trkpt lat="59.9559282" lon="17.7217617">
        <ele>60.2197</ele>
        <time>2014-07-03T08:03:07Z</time>
      </trkpt>
      <trkpt lat="59.9559275" lon="17.7217177">
        <ele>61.6617</ele>
        <time>2014-07-03T08:03:08Z</time>
      </trkpt>
      <trkpt lat="59.955928" lon="17.7216731">
        <ele>64.0651</ele>
        <time>2014-07-03T08:03:09Z</time>
      </trkpt>
      <trkpt lat="59.9559276" lon="17.7216288">
        <ele>65.9877</ele>
        <time>2014-07-03T08:03:10Z</time>
      </trkpt>
      <trkpt lat="59.9559262" lon="17.7215881">
        <ele>67.4297</ele>
        <time>2014-07-03T08:03:11Z</time>
      </trkpt>
      <trkpt lat="59.9559276" lon="17.7215465">
        <ele>67.9103</ele>
        <time>2014-07-03T08:03:12Z</time>
      </trkpt>
      <trkpt lat="59.9559231" lon="17.7215042">
        <ele>69.3523</ele>
        <time>2014-07-03T08:03:13Z</time>
      </trkpt>
      <trkpt lat="59.9559168" lon="17.7214574">
        <ele>70.7942</ele>
        <time>2014-07-03T08:03:14Z</time>
      </trkpt>
      <trkpt lat="59.9559084" lon="17.7214108">
        <ele>71.2749</ele>
        <time>2014-07-03T08:03:15Z</time>
      </trkpt>
      <trkpt lat="59.9559013" lon="17.7213689">
        <ele>70.7942</ele>
        <time>2014-07-03T08:03:16Z</time>
      </trkpt>
      <trkpt lat="59.9558933" lon="17.7213302">
        <ele>69.3523</ele>
        <time>2014-07-03T08:03:17Z</time>
      </trkpt>
      <trkpt lat="59.9558826" lon="17.721294">
        <ele>68.3909</ele>
        <time>2014-07-03T08:03:18Z</time>
      </trkpt>
      <trkpt lat="59.9558706" lon="17.7212582">
        <ele>67.4297</ele>
        <time>2014-07-03T08:03:19Z</time>
      </trkpt>
      <trkpt lat="59.9558567" lon="17.7212285">
        <ele>66.4683</ele>
        <time>2014-07-03T08:03:20Z</time>
      </trkpt>
      <trkpt lat="59.9558415" lon="17.7212139">
        <ele>65.0264</ele>
        <time>2014-07-03T08:03:21Z</time>
      </trkpt>
      <trkpt lat="59.9558204" lon="17.7212084">
        <ele>65.0264</ele>
        <time>2014-07-03T08:03:22Z</time>
      </trkpt>
      <trkpt lat="59.9558" lon="17.7212124">
        <ele>64.0651</ele>
        <time>2014-07-03T08:03:23Z</time>
      </trkpt>
      <trkpt lat="59.9557795" lon="17.7212163">
        <ele>63.5844</ele>
        <time>2014-07-03T08:03:24Z</time>
      </trkpt>
      <trkpt lat="59.9557609" lon="17.7212198">
        <ele>63.5844</ele>
        <time>2014-07-03T08:03:25Z</time>
      </trkpt>
      <trkpt lat="59.9557394" lon="17.7212289">
        <ele>63.5844</ele>
        <time>2014-07-03T08:03:26Z</time>
      </trkpt>
      <trkpt lat="59.9557194" lon="17.7212441">
        <ele>62.6229</ele>
        <time>2014-07-03T08:03:27Z</time>
      </trkpt>
      <trkpt lat="59.955696" lon="17.7212675">
        <ele>62.1423</ele>
        <time>2014-07-03T08:03:28Z</time>
      </trkpt>
      <trkpt lat="59.9556717" lon="17.7212899">
        <ele>61.6617</ele>
        <time>2014-07-03T08:03:29Z</time>
      </trkpt>
      <trkpt lat="59.9556514" lon="17.7213021">
        <ele>61.181</ele>
        <time>2014-07-03T08:03:30Z</time>
      </trkpt>
      <trkpt lat="59.9556335" lon="17.7213141">
        <ele>60.7003</ele>
        <time>2014-07-03T08:03:31Z</time>
      </trkpt>
      <trkpt lat="59.9556166" lon="17.7213203">
        <ele>60.2197</ele>
        <time>2014-07-03T08:03:32Z</time>
      </trkpt>
      <trkpt lat="59.9555931" lon="17.7213282">
        <ele>60.2197</ele>
        <time>2014-07-03T08:03:33Z</time>
      </trkpt>
      <trkpt lat="59.955571" lon="17.7213375">
        <ele>60.2197</ele>
        <time>2014-07-03T08:03:34Z</time>
      </trkpt>
      <trkpt lat="59.9555459" lon="17.7213522">
        <ele>60.2197</ele>
        <time>2014-07-03T08:03:35Z</time>
      </trkpt>
      <trkpt lat="59.95552" lon="17.7213586">
        <ele>60.2197</ele>
        <time>2014-07-03T08:03:36Z</time>
      </trkpt>
      <trkpt lat="59.9554965" lon="17.7213681">
        <ele>59.7391</ele>
        <time>2014-07-03T08:03:37Z</time>
      </trkpt>
      <trkpt lat="59.9554769" lon="17.7213758">
        <ele>58.7777</ele>
        <time>2014-07-03T08:03:38Z</time>
      </trkpt>
      <trkpt lat="59.9554547" lon="17.7213792">
        <ele>57.8165</ele>
        <time>2014-07-03T08:03:39Z</time>
      </trkpt>
      <trkpt lat="59.9554298" lon="17.7213821">
        <ele>57.3358</ele>
        <time>2014-07-03T08:03:40Z</time>
      </trkpt>
      <trkpt lat="59.955409" lon="17.7213779">
        <ele>55.8938</ele>
        <time>2014-07-03T08:03:41Z</time>
      </trkpt>
      <trkpt lat="59.9553893" lon="17.7213714">
        <ele>55.8938</ele>
        <time>2014-07-03T08:03:42Z</time>
      </trkpt>
      <trkpt lat="59.9553737" lon="17.7213555">
        <ele>55.8938</ele>
        <time>2014-07-03T08:03:43Z</time>
      </trkpt>
      <trkpt lat="59.9553583" lon="17.721346">
        <ele>54.9324</ele>
        <time>2014-07-03T08:03:44Z</time>
      </trkpt>
      <trkpt lat="59.9553376" lon="17.7213379">
        <ele>54.4518</ele>
        <time>2014-07-03T08:03:45Z</time>
      </trkpt>
      <trkpt lat="59.9553134" lon="17.7213303">
        <ele>54.4518</ele>
        <time>2014-07-03T08:03:46Z</time>
      </trkpt>
      <trkpt lat="59.9552898" lon="17.7213244">
        <ele>53.9712</ele>
        <time>2014-07-03T08:03:47Z</time>
      </trkpt>
      <trkpt lat="59.9552671" lon="17.7213193">
        <ele>53.9712</ele>
        <time>2014-07-03T08:03:48Z</time>
      </trkpt>
      <trkpt lat="59.9552491" lon="17.7213136">
        <ele>53.9712</ele>
        <time>2014-07-03T08:03:49Z</time>
      </trkpt>
      <trkpt lat="59.9552317" lon="17.7213114">
        <ele>53.4905</ele>
        <time>2014-07-03T08:03:50Z</time>
      </trkpt>
      <trkpt lat="59.9552074" lon="17.7213108">
        <ele>52.5292</ele>
        <time>2014-07-03T08:03:51Z</time>
      </trkpt>
      <trkpt lat="59.9551843" lon="17.7213116">
        <ele>52.0486</ele>
        <time>2014-07-03T08:03:52Z</time>
      </trkpt>
      <trkpt lat="59.9551657" lon="17.7213173">
        <ele>51.5679</ele>
        <time>2014-07-03T08:03:53Z</time>
      </trkpt>
      <trkpt lat="59.9551431" lon="17.7213303">
        <ele>51.5679</ele>
        <time>2014-07-03T08:03:54Z</time>
      </trkpt>
      <trkpt lat="59.955121" lon="17.7213322">
        <ele>51.0872</ele>
        <time>2014-07-03T08:03:55Z</time>
      </trkpt>
      <trkpt lat="59.9550967" lon="17.7213305">
        <ele>51.5679</ele>
        <time>2014-07-03T08:03:56Z</time>
      </trkpt>
      <trkpt lat="59.9550727" lon="17.7213308">
        <ele>52.5292</ele>
        <time>2014-07-03T08:03:57Z</time>
      </trkpt>
      <trkpt lat="59.955048" lon="17.7213272">
        <ele>53.0098</ele>
        <time>2014-07-03T08:03:58Z</time>
      </trkpt>
      <trkpt lat="59.9550242" lon="17.7213187">
        <ele>53.9712</ele>
        <time>2014-07-03T08:03:59Z</time>
      </trkpt>
      <trkpt lat="59.9550045" lon="17.7213078">
        <ele>54.4518</ele>
        <time>2014-07-03T08:04:00Z</time>
      </trkpt>
      <trkpt lat="59.9549838" lon="17.7212955">
        <ele>54.4518</ele>
        <time>2014-07-03T08:04:01Z</time>
      </trkpt>
      <trkpt lat="59.9549559" lon="17.7212924">
        <ele>54.4518</ele>
        <time>2014-07-03T08:04:02Z</time>
      </trkpt>
      <trkpt lat="59.9549298" lon="17.7212859">
        <ele>54.4518</ele>
        <time>2014-07-03T08:04:03Z</time>
      </trkpt>
      <trkpt lat="59.9549039" lon="17.7212716">
        <ele>54.9324</ele>
        <time>2014-07-03T08:04:04Z</time>
      </trkpt>
      <trkpt lat="59.9548797" lon="17.7212535">
        <ele>54.9324</ele>
        <time>2014-07-03T08:04:05Z</time>
      </trkpt>
      <trkpt lat="59.95486" lon="17.7212333">
        <ele>55.4131</ele>
        <time>2014-07-03T08:04:06Z</time>
      </trkpt>
      <trkpt lat="59.9548424" lon="17.7212027">
        <ele>55.4131</ele>
        <time>2014-07-03T08:04:07Z</time>
      </trkpt>
      <trkpt lat="59.9548221" lon="17.7211711">
        <ele>55.4131</ele>
        <time>2014-07-03T08:04:08Z</time>
      </trkpt>
      <trkpt lat="59.9548033" lon="17.721143">
        <ele>55.8938</ele>
        <time>2014-07-03T08:04:09Z</time>
      </trkpt>
      <trkpt lat="59.9547859" lon="17.7211098">
        <ele>55.8938</ele>
        <time>2014-07-03T08:04:10Z</time>
      </trkpt>
      <trkpt lat="59.9547689" lon="17.7210723">
        <ele>57.3358</ele>
        <time>2014-07-03T08:04:11Z</time>
      </trkpt>
      <trkpt lat="59.9547552" lon="17.7210314">
        <ele>59.2584</ele>
        <time>2014-07-03T08:04:12Z</time>
      </trkpt>
      <trkpt lat="59.9547467" lon="17.7209772">
        <ele>61.181</ele>
        <time>2014-07-03T08:04:13Z</time>
      </trkpt>
      <trkpt lat="59.9547455" lon="17.7209233">
        <ele>61.6617</ele>
        <time>2014-07-03T08:04:14Z</time>
      </trkpt>
      <trkpt lat="59.9547466" lon="17.7208764">
        <ele>62.6229</ele>
        <time>2014-07-03T08:04:15Z</time>
      </trkpt>
      <trkpt lat="59.9547467" lon="17.7208261">
        <ele>64.5457</ele>
        <time>2014-07-03T08:04:16Z</time>
      </trkpt>
      <trkpt lat="59.9547476" lon="17.7207835">
        <ele>65.0264</ele>
        <time>2014-07-03T08:04:17Z</time>
      </trkpt>
      <trkpt lat="59.9547547" lon="17.7207427">
        <ele>65.0264</ele>
        <time>2014-07-03T08:04:18Z</time>
      </trkpt>
      <trkpt lat="59.9547621" lon="17.7207049">
        <ele>65.0264</ele>
        <time>2014-07-03T08:04:19Z</time>
      </trkpt>
      <trkpt lat="59.9547682" lon="17.7206667">
        <ele>65.9877</ele>
        <time>2014-07-03T08:04:20Z</time>
      </trkpt>
      <trkpt lat="59.9547731" lon="17.7206272">
        <ele>66.949</ele>
        <time>2014-07-03T08:04:21Z</time>
      </trkpt>
      <trkpt lat="59.954776" lon="17.7205928">
        <ele>68.3909</ele>
        <time>2014-07-03T08:04:22Z</time>
      </trkpt>
      <trkpt lat="59.9547782" lon="17.720563">
        <ele>71.2749</ele>
        <time>2014-07-03T08:04:23Z</time>
      </trkpt>
      <trkpt lat="59.9547947" lon="17.7205265">
        <ele>70.7942</ele>
        <time>2014-07-03T08:04:24Z</time>
      </trkpt>
      <trkpt lat="59.9547999" lon="17.7204944">
        <ele>73.6782</ele>
        <time>2014-07-03T08:04:25Z</time>
      </trkpt>
      <trkpt lat="59.9548112" lon="17.7204655">
        <ele>75.6008</ele>
        <time>2014-07-03T08:04:26Z</time>
      </trkpt>
      <trkpt lat="59.9548244" lon="17.7204356">
        <ele>77.5234</ele>
        <time>2014-07-03T08:04:27Z</time>
      </trkpt>
      <trkpt lat="59.9548433" lon="17.7204138">
        <ele>77.0428</ele>
        <time>2014-07-03T08:04:28Z</time>
      </trkpt>
      <trkpt lat="59.954859" lon="17.7203896">
        <ele>77.0428</ele>
        <time>2014-07-03T08:04:29Z</time>
      </trkpt>
      <trkpt lat="59.9548709" lon="17.7203602">
        <ele>77.0428</ele>
        <time>2014-07-03T08:04:30Z</time>
      </trkpt>
      <trkpt lat="59.9548876" lon="17.7203324">
        <ele>77.0428</ele>
        <time>2014-07-03T08:04:31Z</time>
      </trkpt>
      <trkpt lat="59.9549064" lon="17.7203005">
        <ele>77.0428</ele>
        <time>2014-07-03T08:04:32Z</time>
      </trkpt>
      <trkpt lat="59.9549252" lon="17.7202777">
        <ele>76.5621</ele>
        <time>2014-07-03T08:04:33Z</time>
      </trkpt>
      <trkpt lat="59.9549423" lon="17.7202608">
        <ele>76.0814</ele>
        <time>2014-07-03T08:04:34Z</time>
      </trkpt>
      <trkpt lat="59.9549517" lon="17.7202513">
        <ele>77.5234</ele>
        <time>2014-07-03T08:04:35Z</time>
      </trkpt>
      <trkpt lat="59.9549656" lon="17.7202376">
        <ele>78.4847</ele>
        <time>2014-07-03T08:04:36Z</time>
      </trkpt>
      <trkpt lat="59.9549821" lon="17.7202179">
        <ele>78.9655</ele>
        <time>2014-07-03T08:04:37Z</time>
      </trkpt>
      <trkpt lat="59.9550051" lon="17.7202008">
        <ele>78.4847</ele>
        <time>2014-07-03T08:04:38Z</time>
      </trkpt>
      <trkpt lat="59.9550223" lon="17.7201797">
        <ele>78.9655</ele>
        <time>2014-07-03T08:04:39Z</time>
      </trkpt>
      <trkpt lat="59.9550393" lon="17.7201517">
        <ele>78.9655</ele>
        <time>2014-07-03T08:04:40Z</time>
      </trkpt>
      <trkpt lat="59.9550619" lon="17.7201289">
        <ele>77.0428</ele>
        <time>2014-07-03T08:04:41Z</time>
      </trkpt>
      <trkpt lat="59.955081" lon="17.7201075">
        <ele>76.5621</ele>
        <time>2014-07-03T08:04:42Z</time>
      </trkpt>
      <trkpt lat="59.9550997" lon="17.7200823">
        <ele>75.6008</ele>
        <time>2014-07-03T08:04:43Z</time>
      </trkpt>
      <trkpt lat="59.9551183" lon="17.7200497">
        <ele>73.6782</ele>
        <time>2014-07-03T08:04:44Z</time>
      </trkpt>
      <trkpt lat="59.9551408" lon="17.720028">
        <ele>71.7555</ele>
        <time>2014-07-03T08:04:45Z</time>
      </trkpt>
      <trkpt lat="59.9551579" lon="17.7200144">
        <ele>71.7555</ele>
        <time>2014-07-03T08:04:46Z</time>
      </trkpt>
      <trkpt lat="59.9551801" lon="17.7199981">
        <ele>70.7942</ele>
        <time>2014-07-03T08:04:47Z</time>
      </trkpt>
      <trkpt lat="59.9552014" lon="17.7199791">
        <ele>70.3135</ele>
        <time>2014-07-03T08:04:48Z</time>
      </trkpt>
      <trkpt lat="59.9552214" lon="17.7199658">
        <ele>70.3135</ele>
        <time>2014-07-03T08:04:49Z</time>
      </trkpt>
      <trkpt lat="59.9552444" lon="17.7199465">
        <ele>68.3909</ele>
        <time>2014-07-03T08:04:50Z</time>
      </trkpt>
      <trkpt lat="59.9552651" lon="17.7199314">
        <ele>68.3909</ele>
        <time>2014-07-03T08:04:51Z</time>
      </trkpt>
      <trkpt lat="59.9552932" lon="17.7199098">
        <ele>67.9103</ele>
        <time>2014-07-03T08:04:52Z</time>
      </trkpt>
      <trkpt lat="59.9553147" lon="17.7198992">
        <ele>68.8716</ele>
        <time>2014-07-03T08:04:53Z</time>
      </trkpt>
      <trkpt lat="59.9553366" lon="17.7198883">
        <ele>68.8716</ele>
        <time>2014-07-03T08:04:54Z</time>
      </trkpt>
      <trkpt lat="59.9553535" lon="17.7198729">
        <ele>67.4297</ele>
        <time>2014-07-03T08:04:55Z</time>
      </trkpt>
      <trkpt lat="59.9553697" lon="17.7198642">
        <ele>66.4683</ele>
        <time>2014-07-03T08:04:56Z</time>
      </trkpt>
      <trkpt lat="59.9553892" lon="17.719856">
        <ele>65.9877</ele>
        <time>2014-07-03T08:04:57Z</time>
      </trkpt>
      <trkpt lat="59.9554132" lon="17.7198445">
        <ele>66.4683</ele>
        <time>2014-07-03T08:04:58Z</time>
      </trkpt>
      <trkpt lat="59.9554379" lon="17.7198374">
        <ele>66.4683</ele>
        <time>2014-07-03T08:04:59Z</time>
      </trkpt>
      <trkpt lat="59.955463" lon="17.719827">
        <ele>65.9877</ele>
        <time>2014-07-03T08:05:00Z</time>
      </trkpt>
      <trkpt lat="59.9554853" lon="17.7198158">
        <ele>65.5071</ele>
        <time>2014-07-03T08:05:01Z</time>
      </trkpt>
      <trkpt lat="59.9555087" lon="17.7198051">
        <ele>63.5844</ele>
        <time>2014-07-03T08:05:02Z</time>
      </trkpt>
      <trkpt lat="59.9555308" lon="17.7197933">
        <ele>62.6229</ele>
        <time>2014-07-03T08:05:03Z</time>
      </trkpt>
      <trkpt lat="59.9555482" lon="17.7197759">
        <ele>62.6229</ele>
        <time>2014-07-03T08:05:04Z</time>
      </trkpt>
      <trkpt lat="59.9555659" lon="17.719749">
        <ele>63.1036</ele>
        <time>2014-07-03T08:05:05Z</time>
      </trkpt>
      <trkpt lat="59.9555801" lon="17.7197291">
        <ele>65.0264</ele>
        <time>2014-07-03T08:05:06Z</time>
      </trkpt>
      <trkpt lat="59.9555925" lon="17.7197122">
        <ele>65.0264</ele>
        <time>2014-07-03T08:05:07Z</time>
      </trkpt>
      <trkpt lat="59.9556121" lon="17.7196936">
        <ele>65.9877</ele>
        <time>2014-07-03T08:05:08Z</time>
      </trkpt>
      <trkpt lat="59.9556389" lon="17.7196649">
        <ele>65.9877</ele>
        <time>2014-07-03T08:05:09Z</time>
      </trkpt>
      <trkpt lat="59.9556613" lon="17.7196412">
        <ele>65.9877</ele>
        <time>2014-07-03T08:05:10Z</time>
      </trkpt>
      <trkpt lat="59.9556851" lon="17.7196207">
        <ele>65.9877</ele>
        <time>2014-07-03T08:05:11Z</time>
      </trkpt>
      <trkpt lat="59.9557102" lon="17.7196021">
        <ele>66.4683</ele>
        <time>2014-07-03T08:05:12Z</time>
      </trkpt>
      <trkpt lat="59.9557316" lon="17.7195798">
        <ele>65.9877</ele>
        <time>2014-07-03T08:05:13Z</time>
      </trkpt>
      <trkpt lat="59.9557537" lon="17.719554">
        <ele>65.9877</ele>
        <time>2014-07-03T08:05:14Z</time>
      </trkpt>
      <trkpt lat="59.9557716" lon="17.7195309">
        <ele>65.9877</ele>
        <time>2014-07-03T08:05:15Z</time>
      </trkpt>
      <trkpt lat="59.9557891" lon="17.7195156">
        <ele>66.4683</ele>
        <time>2014-07-03T08:05:16Z</time>
      </trkpt>
      <trkpt lat="59.9558117" lon="17.7194915">
        <ele>65.9877</ele>
        <time>2014-07-03T08:05:17Z</time>
      </trkpt>
      <trkpt lat="59.9558278" lon="17.7194784">
        <ele>65.0264</ele>
        <time>2014-07-03T08:05:18Z</time>
      </trkpt>
      <trkpt lat="59.9558483" lon="17.7194685">
        <ele>64.5457</ele>
        <time>2014-07-03T08:05:19Z</time>
      </trkpt>
      <trkpt lat="59.9558711" lon="17.719447">
        <ele>64.5457</ele>
        <time>2014-07-03T08:05:20Z</time>
      </trkpt>
      <trkpt lat="59.9558865" lon="17.7194281">
        <ele>65.9877</ele>
        <time>2014-07-03T08:05:21Z</time>
      </trkpt>
      <trkpt lat="59.9559029" lon="17.719398">
        <ele>65.0264</ele>
        <time>2014-07-03T08:05:22Z</time>
      </trkpt>
      <trkpt lat="59.9559218" lon="17.7193688">
        <ele>64.5457</ele>
        <time>2014-07-03T08:05:23Z</time>
      </trkpt>
      <trkpt lat="59.9559394" lon="17.7193414">
        <ele>64.5457</ele>
        <time>2014-07-03T08:05:24Z</time>
      </trkpt>
      <trkpt lat="59.9559572" lon="17.7193191">
        <ele>64.5457</ele>
        <time>2014-07-03T08:05:25Z</time>
      </trkpt>
      <trkpt lat="59.9559732" lon="17.7192984">
        <ele>64.5457</ele>
        <time>2014-07-03T08:05:26Z</time>
      </trkpt>
      <trkpt lat="59.9559901" lon="17.7192707">
        <ele>63.5844</ele>
        <time>2014-07-03T08:05:27Z</time>
      </trkpt>
      <trkpt lat="59.9560059" lon="17.7192404">
        <ele>62.1423</ele>
        <time>2014-07-03T08:05:28Z</time>
      </trkpt>
      <trkpt lat="59.9560244" lon="17.719212">
        <ele>61.6617</ele>
        <time>2014-07-03T08:05:29Z</time>
      </trkpt>
      <trkpt lat="59.9560401" lon="17.7191824">
        <ele>61.6617</ele>
        <time>2014-07-03T08:05:30Z</time>
      </trkpt>
      <trkpt lat="59.9560548" lon="17.7191483">
        <ele>61.181</ele>
        <time>2014-07-03T08:05:31Z</time>
      </trkpt>
      <trkpt lat="59.9560688" lon="17.7191106">
        <ele>61.181</ele>
        <time>2014-07-03T08:05:32Z</time>
      </trkpt>
      <trkpt lat="59.9560807" lon="17.719068">
        <ele>60.7003</ele>
        <time>2014-07-03T08:05:33Z</time>
      </trkpt>
      <trkpt lat="59.9560867" lon="17.7190265">
        <ele>61.6617</ele>
        <time>2014-07-03T08:05:34Z</time>
      </trkpt>
      <trkpt lat="59.9560934" lon="17.7189784">
        <ele>61.6617</ele>
        <time>2014-07-03T08:05:35Z</time>
      </trkpt>
      <trkpt lat="59.956098" lon="17.7189348">
        <ele>62.6229</ele>
        <time>2014-07-03T08:05:36Z</time>
      </trkpt>
      <trkpt lat="59.9561004" lon="17.7188938">
        <ele>64.0651</ele>
        <time>2014-07-03T08:05:37Z</time>
      </trkpt>
      <trkpt lat="59.9561016" lon="17.7188435">
        <ele>65.0264</ele>
        <time>2014-07-03T08:05:38Z</time>
      </trkpt>
      <trkpt lat="59.9561057" lon="17.7187919">
        <ele>65.0264</ele>
        <time>2014-07-03T08:05:39Z</time>
      </trkpt>
      <trkpt lat="59.956111" lon="17.7187397">
        <ele>65.0264</ele>
        <time>2014-07-03T08:05:40Z</time>
      </trkpt>
      <trkpt lat="59.956114" lon="17.7186904">
        <ele>64.5457</ele>
        <time>2014-07-03T08:05:41Z</time>
      </trkpt>
      <trkpt lat="59.9561167" lon="17.7186371">
        <ele>64.5457</ele>
        <time>2014-07-03T08:05:42Z</time>
      </trkpt>
      <trkpt lat="59.9561146" lon="17.7185878">
        <ele>64.0651</ele>
        <time>2014-07-03T08:05:43Z</time>
      </trkpt>
      <trkpt lat="59.9561129" lon="17.7185396">
        <ele>63.1036</ele>
        <time>2014-07-03T08:05:44Z</time>
      </trkpt>
      <trkpt lat="59.9561109" lon="17.7184973">
        <ele>61.6617</ele>
        <time>2014-07-03T08:05:45Z</time>
      </trkpt>
      <trkpt lat="59.9561063" lon="17.7184505">
        <ele>61.181</ele>
        <time>2014-07-03T08:05:46Z</time>
      </trkpt>
      <trkpt lat="59.9560906" lon="17.7184089">
        <ele>61.181</ele>
        <time>2014-07-03T08:05:47Z</time>
      </trkpt>
      <trkpt lat="59.9560763" lon="17.7183692">
        <ele>59.7391</ele>
        <time>2014-07-03T08:05:48Z</time>
      </trkpt>
      <trkpt lat="59.9560633" lon="17.718334">
        <ele>58.7777</ele>
        <time>2014-07-03T08:05:49Z</time>
      </trkpt>
      <trkpt lat="59.9560507" lon="17.7182916">
        <ele>57.8165</ele>
        <time>2014-07-03T08:05:50Z</time>
      </trkpt>
      <trkpt lat="59.9560411" lon="17.7182483">
        <ele>56.3745</ele>
        <time>2014-07-03T08:05:51Z</time>
      </trkpt>
      <trkpt lat="59.9560264" lon="17.7182103">
        <ele>56.8551</ele>
        <time>2014-07-03T08:05:52Z</time>
      </trkpt>
      <trkpt lat="59.9560151" lon="17.7181675">
        <ele>56.3745</ele>
        <time>2014-07-03T08:05:53Z</time>
      </trkpt>
      <trkpt lat="59.9560039" lon="17.7181231">
        <ele>55.8938</ele>
        <time>2014-07-03T08:05:54Z</time>
      </trkpt>
      <trkpt lat="59.9559922" lon="17.7180794">
        <ele>54.9324</ele>
        <time>2014-07-03T08:05:55Z</time>
      </trkpt>
      <trkpt lat="59.95598" lon="17.7180367">
        <ele>53.9712</ele>
        <time>2014-07-03T08:05:56Z</time>
      </trkpt>
      <trkpt lat="59.955966" lon="17.7180014">
        <ele>54.4518</ele>
        <time>2014-07-03T08:05:57Z</time>
      </trkpt>
      <trkpt lat="59.9559545" lon="17.7179661">
        <ele>53.9712</ele>
        <time>2014-07-03T08:05:58Z</time>
      </trkpt>
      <trkpt lat="59.9559411" lon="17.7179222">
        <ele>53.4905</ele>
        <time>2014-07-03T08:05:59Z</time>
      </trkpt>
      <trkpt lat="59.955925" lon="17.7178841">
        <ele>53.0098</ele>
        <time>2014-07-03T08:06:00Z</time>
      </trkpt>
      <trkpt lat="59.9559079" lon="17.7178496">
        <ele>53.0098</ele>
        <time>2014-07-03T08:06:01Z</time>
      </trkpt>
      <trkpt lat="59.9558928" lon="17.7178165">
        <ele>53.0098</ele>
        <time>2014-07-03T08:06:02Z</time>
      </trkpt>
      <trkpt lat="59.9558738" lon="17.7177844">
        <ele>54.4518</ele>
        <time>2014-07-03T08:06:03Z</time>
      </trkpt>
      <trkpt lat="59.955853" lon="17.7177531">
        <ele>55.8938</ele>
        <time>2014-07-03T08:06:04Z</time>
      </trkpt>
      <trkpt lat="59.9558266" lon="17.7177247">
        <ele>57.3358</ele>
        <time>2014-07-03T08:06:05Z</time>
      </trkpt>
      <trkpt lat="59.955805" lon="17.7176942">
        <ele>57.3358</ele>
        <time>2014-07-03T08:06:06Z</time>
      </trkpt>
      <trkpt lat="59.9557831" lon="17.7176569">
        <ele>58.2971</ele>
        <time>2014-07-03T08:06:07Z</time>
      </trkpt>
      <trkpt lat="59.9557664" lon="17.7176144">
        <ele>59.2584</ele>
        <time>2014-07-03T08:06:08Z</time>
      </trkpt>
      <trkpt lat="59.9557525" lon="17.7175782">
        <ele>59.2584</ele>
        <time>2014-07-03T08:06:09Z</time>
      </trkpt>
      <trkpt lat="59.955735" lon="17.7175487">
        <ele>59.2584</ele>
        <time>2014-07-03T08:06:10Z</time>
      </trkpt>
      <trkpt lat="59.9557185" lon="17.7175202">
        <ele>58.7777</ele>
        <time>2014-07-03T08:06:11Z</time>
      </trkpt>
      <trkpt lat="59.955709" lon="17.7174853">
        <ele>58.7777</ele>
        <time>2014-07-03T08:06:12Z</time>
      </trkpt>
      <trkpt lat="59.9557003" lon="17.7174404">
        <ele>58.2971</ele>
        <time>2014-07-03T08:06:13Z</time>
      </trkpt>
      <trkpt lat="59.9556934" lon="17.7173864">
        <ele>58.2971</ele>
        <time>2014-07-03T08:06:14Z</time>
      </trkpt>
      <trkpt lat="59.9556829" lon="17.7173341">
        <ele>58.2971</ele>
        <time>2014-07-03T08:06:15Z</time>
      </trkpt>
      <trkpt lat="59.9556671" lon="17.7172825">
        <ele>58.7777</ele>
        <time>2014-07-03T08:06:16Z</time>
      </trkpt>
      <trkpt lat="59.9556524" lon="17.7172399">
        <ele>58.2971</ele>
        <time>2014-07-03T08:06:17Z</time>
      </trkpt>
      <trkpt lat="59.9556417" lon="17.7171936">
        <ele>57.8165</ele>
        <time>2014-07-03T08:06:18Z</time>
      </trkpt>
      <trkpt lat="59.9556306" lon="17.7171467">
        <ele>57.8165</ele>
        <time>2014-07-03T08:06:19Z</time>
      </trkpt>
      <trkpt lat="59.9556237" lon="17.7171095">
        <ele>58.2971</ele>
        <time>2014-07-03T08:06:20Z</time>
      </trkpt>
      <trkpt lat="59.9556135" lon="17.7170662">
        <ele>58.7777</ele>
        <time>2014-07-03T08:06:21Z</time>
      </trkpt>
      <trkpt lat="59.9556012" lon="17.7170187">
        <ele>58.2971</ele>
        <time>2014-07-03T08:06:22Z</time>
      </trkpt>
      <trkpt lat="59.955594" lon="17.7169697">
        <ele>58.2971</ele>
        <time>2014-07-03T08:06:23Z</time>
      </trkpt>
      <trkpt lat="59.9555894" lon="17.716925">
        <ele>57.3358</ele>
        <time>2014-07-03T08:06:24Z</time>
      </trkpt>
      <trkpt lat="59.9555759" lon="17.7168903">
        <ele>57.3358</ele>
        <time>2014-07-03T08:06:25Z</time>
      </trkpt>
      <trkpt lat="59.9555698" lon="17.7168463">
        <ele>57.8165</ele>
        <time>2014-07-03T08:06:26Z</time>
      </trkpt>
      <trkpt lat="59.9555676" lon="17.7168011">
        <ele>57.8165</ele>
        <time>2014-07-03T08:06:27Z</time>
      </trkpt>
      <trkpt lat="59.9555629" lon="17.716752">
        <ele>57.8165</ele>
        <time>2014-07-03T08:06:28Z</time>
      </trkpt>
      <trkpt lat="59.9555578" lon="17.7166995">
        <ele>58.2971</ele>
        <time>2014-07-03T08:06:29Z</time>
      </trkpt>
      <trkpt lat="59.9555544" lon="17.7166464">
        <ele>58.7777</ele>
        <time>2014-07-03T08:06:30Z</time>
      </trkpt>
      <trkpt lat="59.95555" lon="17.7165944">
        <ele>58.2971</ele>
        <time>2014-07-03T08:06:31Z</time>
      </trkpt>
      <trkpt lat="59.955542" lon="17.7165444">
        <ele>57.8165</ele>
        <time>2014-07-03T08:06:32Z</time>
      </trkpt>
      <trkpt lat="59.9555375" lon="17.7164983">
        <ele>57.3358</ele>
        <time>2014-07-03T08:06:33Z</time>
      </trkpt>
      <trkpt lat="59.9555343" lon="17.7164475">
        <ele>56.8551</ele>
        <time>2014-07-03T08:06:34Z</time>
      </trkpt>
      <trkpt lat="59.9555324" lon="17.7164007">
        <ele>56.3745</ele>
        <time>2014-07-03T08:06:35Z</time>
      </trkpt>
      <trkpt lat="59.9555308" lon="17.7163546">
        <ele>55.8938</ele>
        <time>2014-07-03T08:06:36Z</time>
      </trkpt>
      <trkpt lat="59.9555282" lon="17.7163068">
        <ele>55.8938</ele>
        <time>2014-07-03T08:06:37Z</time>
      </trkpt>
      <trkpt lat="59.955524" lon="17.7162591">
        <ele>55.4131</ele>
        <time>2014-07-03T08:06:38Z</time>
      </trkpt>
      <trkpt lat="59.955521" lon="17.7162023">
        <ele>54.9324</ele>
        <time>2014-07-03T08:06:39Z</time>
      </trkpt>
      <trkpt lat="59.9555225" lon="17.7161511">
        <ele>53.4905</ele>
        <time>2014-07-03T08:06:40Z</time>
      </trkpt>
      <trkpt lat="59.9555194" lon="17.7161046">
        <ele>52.5292</ele>
        <time>2014-07-03T08:06:41Z</time>
      </trkpt>
      <trkpt lat="59.9555143" lon="17.7160523">
        <ele>52.5292</ele>
        <time>2014-07-03T08:06:42Z</time>
      </trkpt>
      <trkpt lat="59.9555085" lon="17.7160074">
        <ele>52.0486</ele>
        <time>2014-07-03T08:06:43Z</time>
      </trkpt>
      <trkpt lat="59.9555014" lon="17.7159652">
        <ele>52.0486</ele>
        <time>2014-07-03T08:06:44Z</time>
      </trkpt>
      <trkpt lat="59.9554977" lon="17.7159238">
        <ele>51.5679</ele>
        <time>2014-07-03T08:06:45Z</time>
      </trkpt>
      <trkpt lat="59.9554918" lon="17.7158779">
        <ele>51.5679</ele>
        <time>2014-07-03T08:06:46Z</time>
      </trkpt>
      <trkpt lat="59.9554828" lon="17.7158326">
        <ele>52.5292</ele>
        <time>2014-07-03T08:06:47Z</time>
      </trkpt>
      <trkpt lat="59.9554744" lon="17.7157891">
        <ele>52.5292</ele>
        <time>2014-07-03T08:06:48Z</time>
      </trkpt>
      <trkpt lat="59.955463" lon="17.7157365">
        <ele>53.0098</ele>
        <time>2014-07-03T08:06:49Z</time>
      </trkpt>
      <trkpt lat="59.9554608" lon="17.7156797">
        <ele>52.0486</ele>
        <time>2014-07-03T08:06:50Z</time>
      </trkpt>
      <trkpt lat="59.9554588" lon="17.7156274">
        <ele>51.0872</ele>
        <time>2014-07-03T08:06:51Z</time>
      </trkpt>
      <trkpt lat="59.9554543" lon="17.7155791">
        <ele>50.6066</ele>
        <time>2014-07-03T08:06:52Z</time>
      </trkpt>
      <trkpt lat="59.9554481" lon="17.7155256">
        <ele>50.6066</ele>
        <time>2014-07-03T08:06:53Z</time>
      </trkpt>
      <trkpt lat="59.9554436" lon="17.7154746">
        <ele>50.6066</ele>
        <time>2014-07-03T08:06:54Z</time>
      </trkpt>
      <trkpt lat="59.95544" lon="17.7154242">
        <ele>50.126</ele>
        <time>2014-07-03T08:06:55Z</time>
      </trkpt>
      <trkpt lat="59.9554391" lon="17.7153739">
        <ele>50.126</ele>
        <time>2014-07-03T08:06:56Z</time>
      </trkpt>
      <trkpt lat="59.9554397" lon="17.7153275">
        <ele>50.126</ele>
        <time>2014-07-03T08:06:57Z</time>
      </trkpt>
      <trkpt lat="59.9554332" lon="17.7152814">
        <ele>50.126</ele>
        <time>2014-07-03T08:06:58Z</time>
      </trkpt>
      <trkpt lat="59.955427" lon="17.7152284">
        <ele>50.126</ele>
        <time>2014-07-03T08:06:59Z</time>
      </trkpt>
      <trkpt lat="59.9554227" lon="17.7151839">
        <ele>50.126</ele>
        <time>2014-07-03T08:07:00Z</time>
      </trkpt>
      <trkpt lat="59.9554193" lon="17.7151352">
        <ele>49.1646</ele>
        <time>2014-07-03T08:07:01Z</time>
      </trkpt>
      <trkpt lat="59.9554106" lon="17.7150892">
        <ele>49.6453</ele>
        <time>2014-07-03T08:07:02Z</time>
      </trkpt>
      <trkpt lat="59.955405" lon="17.7150468">
        <ele>49.1646</ele>
        <time>2014-07-03T08:07:03Z</time>
      </trkpt>
      <trkpt lat="59.9553954" lon="17.7149985">
        <ele>48.684</ele>
        <time>2014-07-03T08:07:04Z</time>
      </trkpt>
      <trkpt lat="59.9553843" lon="17.7149513">
        <ele>48.2034</ele>
        <time>2014-07-03T08:07:05Z</time>
      </trkpt>
      <trkpt lat="59.9553739" lon="17.7149106">
        <ele>48.2034</ele>
        <time>2014-07-03T08:07:06Z</time>
      </trkpt>
      <trkpt lat="59.9553651" lon="17.7148665">
        <ele>48.2034</ele>
        <time>2014-07-03T08:07:07Z</time>
      </trkpt>
      <trkpt lat="59.9553563" lon="17.7148245">
        <ele>48.2034</ele>
        <time>2014-07-03T08:07:08Z</time>
      </trkpt>
      <trkpt lat="59.9553486" lon="17.7147913">
        <ele>47.2418</ele>
        <time>2014-07-03T08:07:09Z</time>
      </trkpt>
      <trkpt lat="59.9553405" lon="17.7147517">
        <ele>46.7612</ele>
        <time>2014-07-03T08:07:10Z</time>
      </trkpt>
      <trkpt lat="59.9553313" lon="17.71471">
        <ele>46.2806</ele>
        <time>2014-07-03T08:07:11Z</time>
      </trkpt>
      <trkpt lat="59.9553217" lon="17.7146689">
        <ele>45.7999</ele>
        <time>2014-07-03T08:07:12Z</time>
      </trkpt>
      <trkpt lat="59.9553148" lon="17.7146199">
        <ele>46.2806</ele>
        <time>2014-07-03T08:07:13Z</time>
      </trkpt>
      <trkpt lat="59.9553081" lon="17.7145747">
        <ele>46.7612</ele>
        <time>2014-07-03T08:07:14Z</time>
      </trkpt>
      <trkpt lat="59.9553011" lon="17.7145357">
        <ele>47.2418</ele>
        <time>2014-07-03T08:07:15Z</time>
      </trkpt>
      <trkpt lat="59.9552958" lon="17.7144866">
        <ele>47.2418</ele>
        <time>2014-07-03T08:07:16Z</time>
      </trkpt>
      <trkpt lat="59.9552889" lon="17.7144407">
        <ele>47.7225</ele>
        <time>2014-07-03T08:07:17Z</time>
      </trkpt>
      <trkpt lat="59.9552816" lon="17.7144002">
        <ele>47.7225</ele>
        <time>2014-07-03T08:07:18Z</time>
      </trkpt>
      <trkpt lat="59.9552712" lon="17.7143583">
        <ele>47.7225</ele>
        <time>2014-07-03T08:07:19Z</time>
      </trkpt>
      <trkpt lat="59.9552626" lon="17.7143133">
        <ele>46.7612</ele>
        <time>2014-07-03T08:07:20Z</time>
      </trkpt>
      <trkpt lat="59.9552541" lon="17.7142728">
        <ele>46.7612</ele>
        <time>2014-07-03T08:07:21Z</time>
      </trkpt>
      <trkpt lat="59.9552423" lon="17.7142335">
        <ele>47.2418</ele>
        <time>2014-07-03T08:07:22Z</time>
      </trkpt>
      <trkpt lat="59.9552302" lon="17.7141877">
        <ele>47.7225</ele>
        <time>2014-07-03T08:07:23Z</time>
      </trkpt>
      <trkpt lat="59.9552208" lon="17.7141407">
        <ele>46.7612</ele>
        <time>2014-07-03T08:07:24Z</time>
      </trkpt>
      <trkpt lat="59.9552017" lon="17.7141123">
        <ele>47.2418</ele>
        <time>2014-07-03T08:07:25Z</time>
      </trkpt>
      <trkpt lat="59.955179" lon="17.7141008">
        <ele>47.2418</ele>
        <time>2014-07-03T08:07:26Z</time>
      </trkpt>
      <trkpt lat="59.9551616" lon="17.7141096">
        <ele>46.7612</ele>
        <time>2014-07-03T08:07:27Z</time>
      </trkpt>
      <trkpt lat="59.9551455" lon="17.7141474">
        <ele>46.7612</ele>
        <time>2014-07-03T08:07:28Z</time>
      </trkpt>
      <trkpt lat="59.9551331" lon="17.7141911">
        <ele>46.7612</ele>
        <time>2014-07-03T08:07:29Z</time>
      </trkpt>
      <trkpt lat="59.9551257" lon="17.714236">
        <ele>46.7612</ele>
        <time>2014-07-03T08:07:30Z</time>
      </trkpt>
      <trkpt lat="59.9551164" lon="17.7142786">
        <ele>46.2806</ele>
        <time>2014-07-03T08:07:31Z</time>
      </trkpt>
      <trkpt lat="59.9551015" lon="17.7143142">
        <ele>46.2806</ele>
        <time>2014-07-03T08:07:32Z</time>
      </trkpt>
      <trkpt lat="59.9550771" lon="17.7143495">
        <ele>46.2806</ele>
        <time>2014-07-03T08:07:33Z</time>
      </trkpt>
      <trkpt lat="59.9550516" lon="17.7143836">
        <ele>46.7612</ele>
        <time>2014-07-03T08:07:34Z</time>
      </trkpt>
      <trkpt lat="59.9550305" lon="17.7144086">
        <ele>46.7612</ele>
        <time>2014-07-03T08:07:35Z</time>
      </trkpt>
      <trkpt lat="59.9550119" lon="17.7144343">
        <ele>46.2806</ele>
        <time>2014-07-03T08:07:36Z</time>
      </trkpt>
      <trkpt lat="59.954993" lon="17.7144585">
        <ele>45.7999</ele>
        <time>2014-07-03T08:07:37Z</time>
      </trkpt>
      <trkpt lat="59.954974" lon="17.7144846">
        <ele>46.2806</ele>
        <time>2014-07-03T08:07:38Z</time>
      </trkpt>
      <trkpt lat="59.9549572" lon="17.7145088">
        <ele>45.7999</ele>
        <time>2014-07-03T08:07:39Z</time>
      </trkpt>
      <trkpt lat="59.9549401" lon="17.7145344">
        <ele>45.3192</ele>
        <time>2014-07-03T08:07:40Z</time>
      </trkpt>
      <trkpt lat="59.9549206" lon="17.7145653">
        <ele>44.8386</ele>
        <time>2014-07-03T08:07:41Z</time>
      </trkpt>
      <trkpt lat="59.9549016" lon="17.7146022">
        <ele>45.3192</ele>
        <time>2014-07-03T08:07:42Z</time>
      </trkpt>
      <trkpt lat="59.9548814" lon="17.7146419">
        <ele>45.7999</ele>
        <time>2014-07-03T08:07:43Z</time>
      </trkpt>
      <trkpt lat="59.9548622" lon="17.7146773">
        <ele>44.8386</ele>
        <time>2014-07-03T08:07:44Z</time>
      </trkpt>
      <trkpt lat="59.9548414" lon="17.7147152">
        <ele>44.8386</ele>
        <time>2014-07-03T08:07:45Z</time>
      </trkpt>
      <trkpt lat="59.9548195" lon="17.7147376">
        <ele>44.358</ele>
        <time>2014-07-03T08:07:46Z</time>
      </trkpt>
      <trkpt lat="59.9547976" lon="17.7147469">
        <ele>43.8773</ele>
        <time>2014-07-03T08:07:47Z</time>
      </trkpt>
      <trkpt lat="59.9547752" lon="17.7147469">
        <ele>43.3966</ele>
        <time>2014-07-03T08:07:48Z</time>
      </trkpt>
      <trkpt lat="59.9547491" lon="17.7147509">
        <ele>42.916</ele>
        <time>2014-07-03T08:07:49Z</time>
      </trkpt>
      <trkpt lat="59.9547217" lon="17.7147597">
        <ele>42.916</ele>
        <time>2014-07-03T08:07:50Z</time>
      </trkpt>
      <trkpt lat="59.9546968" lon="17.7147685">
        <ele>42.916</ele>
        <time>2014-07-03T08:07:51Z</time>
      </trkpt>
      <trkpt lat="59.954672" lon="17.7147799">
        <ele>43.3966</ele>
        <time>2014-07-03T08:07:52Z</time>
      </trkpt>
      <trkpt lat="59.9546467" lon="17.7147914">
        <ele>43.8773</ele>
        <time>2014-07-03T08:07:53Z</time>
      </trkpt>
      <trkpt lat="59.9546203" lon="17.7147987">
        <ele>43.3966</ele>
        <time>2014-07-03T08:07:54Z</time>
      </trkpt>
      <trkpt lat="59.9545953" lon="17.7148023">
        <ele>43.8773</ele>
        <time>2014-07-03T08:07:55Z</time>
      </trkpt>
      <trkpt lat="59.9545678" lon="17.7148126">
        <ele>44.8386</ele>
        <time>2014-07-03T08:07:56Z</time>
      </trkpt>
      <trkpt lat="59.9545388" lon="17.714821">
        <ele>44.8386</ele>
        <time>2014-07-03T08:07:57Z</time>
      </trkpt>
      <trkpt lat="59.9545118" lon="17.7148268">
        <ele>44.8386</ele>
        <time>2014-07-03T08:07:58Z</time>
      </trkpt>
      <trkpt lat="59.9544818" lon="17.7148395">
        <ele>45.3192</ele>
        <time>2014-07-03T08:07:59Z</time>
      </trkpt>
      <trkpt lat="59.9544544" lon="17.7148416">
        <ele>45.7999</ele>
        <time>2014-07-03T08:08:00Z</time>
      </trkpt>
      <trkpt lat="59.9544294" lon="17.7148466">
        <ele>45.7999</ele>
        <time>2014-07-03T08:08:01Z</time>
      </trkpt>
      <trkpt lat="59.9544099" lon="17.7148383">
        <ele>45.7999</ele>
        <time>2014-07-03T08:08:02Z</time>
      </trkpt>
      <trkpt lat="59.9543841" lon="17.7148393">
        <ele>46.2806</ele>
        <time>2014-07-03T08:08:03Z</time>
      </trkpt>
      <trkpt lat="59.9543568" lon="17.7148429">
        <ele>45.7999</ele>
        <time>2014-07-03T08:08:04Z</time>
      </trkpt>
      <trkpt lat="59.9543348" lon="17.7148395">
        <ele>45.7999</ele>
        <time>2014-07-03T08:08:05Z</time>
      </trkpt>
      <trkpt lat="59.9543156" lon="17.7148425">
        <ele>45.7999</ele>
        <time>2014-07-03T08:08:06Z</time>
      </trkpt>
      <trkpt lat="59.9542944" lon="17.7148491">
        <ele>46.7612</ele>
        <time>2014-07-03T08:08:07Z</time>
      </trkpt>
      <trkpt lat="59.9542739" lon="17.7148473">
        <ele>46.7612</ele>
        <time>2014-07-03T08:08:08Z</time>
      </trkpt>
      <trkpt lat="59.954247" lon="17.7148579">
        <ele>47.2418</ele>
        <time>2014-07-03T08:08:09Z</time>
      </trkpt>
      <trkpt lat="59.9542223" lon="17.7148567">
        <ele>47.7225</ele>
        <time>2014-07-03T08:08:10Z</time>
      </trkpt>
      <trkpt lat="59.9541964" lon="17.714865">
        <ele>48.684</ele>
        <time>2014-07-03T08:08:11Z</time>
      </trkpt>
      <trkpt lat="59.9541665" lon="17.7148689">
        <ele>49.1646</ele>
        <time>2014-07-03T08:08:12Z</time>
      </trkpt>
      <trkpt lat="59.9541384" lon="17.7148766">
        <ele>49.6453</ele>
        <time>2014-07-03T08:08:13Z</time>
      </trkpt>
      <trkpt lat="59.9541088" lon="17.7148942">
        <ele>50.126</ele>
        <time>2014-07-03T08:08:14Z</time>
      </trkpt>
      <trkpt lat="59.9540805" lon="17.7149121">
        <ele>50.126</ele>
        <time>2014-07-03T08:08:15Z</time>
      </trkpt>
      <trkpt lat="59.9540531" lon="17.714925">
        <ele>50.6066</ele>
        <time>2014-07-03T08:08:16Z</time>
      </trkpt>
    </trkseg>
  </trk>
</gpx>